     2              OBSERVATION DATA    GPS                 RINEX VERSION / TYPE
teqc 2002Apr3 20051206 01:25:56UTC                          PGM / RUN BY / DATE
                                                            COMMENT
L2: 1 -> 1; 150 -> 5; 250 -> 9                              COMMENT
L2: 1 -> 1; 150 -> 5; 250 -> 9                              COMMENT
L2: 1 -> 1; 150 -> 5; 250 -> 9                              COMMENT
L2: 1 -> 1; 150 -> 5; 250 -> 9                              COMMENT
L2: 1 -> 1; 150 -> 5; 250 -> 9                              COMMENT
Original Marker Name: DIVD                                  COMMENT
Campaign Name: CSUSB 2005                                   COMMENT
4-Character Station Name: DIVD                              COMMENT
6-Character Antenna Code: DMRCHT                            COMMENT
Vertical Measurement Point: BCR                             COMMENT
Vertical Offset to Rinex Ref. Point: 0.0348                 COMMENT
Radial Measurement Point: ECF                               COMMENT
Radial Offset to Rinex Ref. Point: 0.1897                   COMMENT
Antenna Height from Field Measurement: 1.0160 m             COMMENT
Additional Antenna Identification Info.:                    COMMENT
Turborogue and Ashtech Choke Ring                           COMMENT
Original XYZ: -2395224.2700 -4697948.6700 3579975.5500      COMMENT
New XYZ position is based on association with SCEC monument COMMENT
E1D0S2W5+0011. Position of that monument is believed to be  COMMENT
valid to within 1 m horizontally; vertical accuracy         COMMENT
should be no worse than 3-times this value.                 COMMENT
                                                            COMMENT
Revised Rinex header created by UCSD GPS archive for        COMMENT
GSAC on 01-Apr-2006 (2006:091) 00:16:16 GMT                 COMMENT
For assistance contact dagnew@ucsd.edu                      COMMENT
or anderson@python.ucsd.edu                                 COMMENT
                                                            COMMENT
DIVIDE 1960                                                 MARKER NAME
___ CSUSB                                                   OBSERVER / AGENCY
1012 ASHTECH Z-X ZE00                                       REC # / TYPE / VERS
1401 DORNE-MARGOL. TYPE T                                   ANT # / TYPE
 -2399058.0000 -4714681.0000  3554665.0000                  APPROX POSITION XYZ
        0.9633        0.0000        0.0000                  ANTENNA: DELTA H/E/N
     1     1     0                                          WAVELENGTH FACT L1/2
     7    C1    L1    L2    P1    P2    S1    S2            # / TYPES OF OBSERV
     0                                                      INTERVAL
  2005    10    14     1    30    0.000000                  TIME OF FIRST OBS
  2005    10    16     0    11    0.000000                  TIME OF LAST OBS
                                                            END OF HEADER
 05 10 14  1 30  0.0000000  0  3G 4G 2G30
  21217403.1854   12848136.87254  10004278.56952  21217404.9114   21217402.9584
        57.0004         50.0004
  20532990.0284    -111187.24654    -82341.17252  20532991.2444   20532987.1134
        59.0004         52.0004
  24340052.3134    -373557.24153   -272993.06052  24340054.9024   24340052.2664
        45.0004         38.0004
 05 10 14  1 30 30.0000000  0  3G 4G 2G30
  21227453.9604   12900954.36344  10045435.06842  21227455.4714   21227453.6694
        57.0004         50.0004
  20525253.5264    -151842.31144   -114020.41542  20525254.8104   20525250.7554
        58.0004         52.0004
  24320114.3754    -478330.11943   -354634.18142  24320116.5804   24320115.3204
        45.0004         38.0004
 05 10 14  1 31  0.0000000  0  3G 4G 2G30
  21237576.0914   12954146.67844  10086883.63642  21237578.0094   21237575.6344
        57.0004         50.0004
  20517602.3654    -192049.48944   -145350.65942  20517603.5704   20517599.4474
        58.0004         52.0004
  24300162.6934    -583179.06143   -436334.57642  24300165.5564   24300161.2244
        45.0004         37.0004
 05 10 14  1 31 30.0010000  0  4G 9G 4G 7G 2
  21800217.0114    -851613.95853   -667072.80152  21800217.9594   21800216.6824
        56.0004         49.0004
  21364408.7044   12045235.72744   9378641.35842  21364410.3534   21364408.2454
        57.0004         50.0004
  23491581.0704    -802618.47353   -628434.16052  23491580.5484   23491580.4104
        49.0004         42.0004
  20626675.4664   -1194285.93044   -926314.09242  20626676.9154   20626672.6554
        59.0004         52.0004
 05 10 14  1 32  0.0010000  0  4G 9G 4G 7G 2
  21810668.6804    -796691.24843   -624275.88942  21810669.8594   21810668.0594
        56.0004         49.0004
  21375580.7754   12103942.81944   9424387.15542  21375582.0394   21375579.7294
        57.0004         50.0004
  23503264.4234    -741222.18943   -580592.89742  23503264.4484   23503263.7134
        49.0004         42.0004
  20620103.3354   -1228823.07544   -953226.12842  20620104.7444   20620100.3814
        59.0004         52.0004
 05 10 14  1 32 30.0010000  0  4G 9G 4G 7G 2
  21821215.1574    -741268.29043   -581089.17042  21821216.3034   21821214.6714
        56.0004         49.0004
  21386839.5574   12163109.81644   9470491.32142  21386841.0404   21386839.1274
        57.0004         50.0004
  23514953.0584    -679792.46943   -532725.57042  23514953.7884   23514954.1554
        49.0004         42.0004
  20613634.3674   -1262818.09244   -979715.72342  20613635.7684   20613631.0484
        59.0004         52.0004
 05 10 14  1 33  0.0010000  0  4G 9G 4G 7G 2
  21831855.9324    -685348.78943   -537515.53642  21831857.5824   21831855.8454
        56.0004         49.0004
  21398185.1754   12222732.94244   9516950.91542  21398186.8874   21398184.6564
        57.0004         49.0004
  23526649.1124    -618330.64443   -484833.23942  23526649.4594   23526648.3784
        50.0004         42.0004
  20607268.1854   -1296271.78444  -1005783.51242  20607269.5394   20607265.2474
        59.0004         52.0004
 05 10 14  1 33 30.0010000  0  4G 9G 4G 7G 2
  21842591.9674    -628931.72643   -493554.19042  21842593.2314   21842591.6774
        56.0004         49.0004
  21409618.1664   12282813.21944   9563766.73242  21409619.6654   21409617.7764
        57.0004         49.0004
  23538351.7534    -556833.38743   -436913.29942  23538352.9614   23538351.7214
        49.0004         43.0004
  20601005.8964   -1329180.30844  -1031426.49242  20601007.2654   20601002.9934
        59.0004         52.0004
 05 10 14  1 34  0.0010000  0  4G 9G 4G 7G 2
  21853426.7274    -571994.50143   -449187.52542  21853428.0474   21853426.0294
        56.0004         49.0004
  21421141.7604   12343373.04244   9610956.21642  21421143.7854   21421141.6524
        57.0004         49.0004
  23550065.6154    -495275.87643   -388946.38942  23550066.9774   23550065.1164
        50.0004         43.0004
  20594852.2474   -1361517.73344  -1056624.46042  20594853.5294   20594849.3154
        59.0004         52.0004
 05 10 14  1 34 30.0010000  0  4G 9G 4G 7G 2
  21864344.9724    -514617.82243   -404478.42842  21864346.7514   21864344.8494
        56.0004         49.0004
  21432742.3774   12404332.03644   9658456.74742  21432743.8474   21432741.8694
        57.0004         49.0004
  23561776.6784    -433736.33643   -340993.48342  23561777.3534   23561776.0264
        50.0004         43.0004
  20588792.3244   -1393362.21744  -1081438.31842  20588793.7974   20588789.4954
        59.0004         53.0004
 05 10 14  1 35  0.0010000  0  4G 9G 4G 7G 2
  21875360.6394    -456730.64343   -359371.53542  21875362.0094   21875360.6744
        56.0004         49.0004
  21444432.2114   12465761.20844   9706323.64942  21444433.4994   21444431.6624
        57.0004         49.0004
  23573497.7884    -372140.98943   -292997.12042  23573499.7754   23573496.2054
        51.0004         43.0004
  20582840.5364   -1424639.50744  -1105810.20642  20582841.8374   20582837.5454
        59.0004         53.0004
 05 10 14  1 35 30.0010000  0  4G 9G 4G 7G 2
  21886469.4734    -398352.53843   -313882.10742  21886470.6254   21886469.8594
        56.0004         49.0004
  21456207.3194   12527641.26944   9754541.89242  21456209.0614   21456207.2564
        57.0004         49.0004
  23585226.2344    -310506.83343   -244970.47742  23585227.2264   23585225.1254
        51.0004         43.0004
  20576993.3834   -1455365.75944  -1129752.71642  20576994.6984   20576990.4654
        59.0004         53.0004
 05 10 14  1 36  0.0010000  0  4G 9G 4G 7G 2
  21897670.3864    -339492.49843   -268017.14442  21897671.5434   21897669.9434
        56.0004         48.0004
  21468066.8234   12589963.33344   9803104.55442  21468068.3624   21468066.3154
        57.0004         49.0004
  23596961.1014    -248840.45343   -196918.74142  23596962.0634   23596962.4594
        50.0004         43.0004
  20571250.0914   -1485547.18544  -1153270.68642  20571251.4884   20571247.1544
        59.0004         53.0004
 05 10 14  1 36 30.0010000  0  4G 9G 4G 7G 2
  21908962.8604    -280149.19543   -221775.61042  21908964.6034   21908963.0384
        56.0004         48.0004
  21480010.6264   12652728.52444   9852012.51142  21480012.3254   21480009.9734
        57.0004         49.0004
  23608702.1944    -187138.02843   -148838.90842  23608702.9754   23608702.3164
        50.0004         43.0004
  20565611.6274   -1515179.43344  -1176360.72342  20565612.8564   20565608.2684
        59.0004         53.0004
 05 10 14  1 37  0.0010000  0  4G 9G 4G 7G 2
  21920346.4974    -220327.49343   -175161.30342  21920348.0754   21920346.3614
        56.0004         48.0004
  21492038.0634   12715932.12944   9901262.09142  21492039.9654   21492037.1824
        57.0004         49.0004
  23620450.4384    -125401.87843   -100732.81042  23620453.0724   23620451.4414
        50.0004         43.0004
  20560076.8514   -1544264.58144  -1199024.44842  20560077.9574   20560073.6274
        59.0004         53.0004
 05 10 14  1 37 30.0010000  0  4G 9G 4G 7G 2
  21931820.9484    -160029.61943   -128175.95142  21931822.2024   21931820.6644
        56.0004         48.0004
  21504148.1634   12779571.95144   9950851.58442  21504149.8514   21504147.5474
        57.0004         49.0004
  23632204.8364     -63631.68643    -52600.20042  23632205.6474   23632204.1304
        50.0004         43.0004
  20554645.9834   -1572801.76744  -1221261.19242  20554647.4314   20554643.0444
        59.0004         53.0004
 05 10 14  1 38  0.0010000  0  4G 9G 4G 7G 2
  21943385.2104     -99259.23243    -80822.40642  21943386.7564   21943384.7874
        56.0004         48.0004
  21516340.6574   12843644.39244  10000778.17542  21516342.4414   21516340.0544
        57.0004         49.0004
  23643965.7634      -1828.62743     -4441.97742  23643966.7314   23643966.5964
        51.0004         43.0004
  20549319.7814   -1600791.87544  -1243071.64542  20549321.1384   20549316.7784
        59.0004         53.0004
 05 10 14  1 38 30.0010000  0  4G 9G 4G 7G 2
  21955038.8574     -38016.52543    -33100.81742  21955040.8534   21955039.5084
        55.0004         48.0004
  21528615.7444   12908149.51844  10051041.92542  21528617.4124   21528615.1004
        57.0004         49.0004
  23655733.0644      60010.10843     43744.06342  23655733.8254   23655733.0704
        50.0004         43.0004
  20544097.9924   -1628231.87244  -1264453.43542  20544099.5734   20544095.0344
        59.0004         53.0004
 05 10 14  1 39  0.0010000  0  5G 9G 4G 7G 2G30
  21966782.2544      23694.31843     14985.55742  21966783.8234   21966782.5214
        55.0004         48.0004
  21540971.9984   12973083.44944  10101639.80942  21540973.6844   21540971.0114
        57.0004         49.0004
  23667507.4094     121882.78543     91956.53442  23667509.1874   23667507.0854
        50.0004         43.0004
  20538980.9324   -1655122.84144  -1285407.41142  20538982.3284   20538977.8904
        59.0004         53.0004
  24111341.3604   -3150852.07543  -2437117.26542  24111343.5594   24111344.1134
        46.0004         39.0004
 05 10 14  1 39 30.0010000  0  5G 9G 4G 7G 2G30
  21978614.0204      85870.74943     63434.72442  21978615.5104   21978614.2204
        55.0004         48.0004
  21553409.7044   13038443.31744  10152569.59542  21553411.4174   21553408.9444
        57.0004         49.0004
  23679287.5274     183789.47443    140195.52742  23679289.0654   23679286.1304
        50.0004         43.0004
  20533967.9704   -1681464.72844  -1305933.53342  20533969.4314   20533965.3914
        59.0004         53.0004
  24092367.6134   -3250561.90543  -2514813.14842  24092369.1314   24092368.9074
        46.0004         39.0004
 05 10 14  1 40  0.0010000  0  5G 9G 4G 7G 2G30
  21990534.2154     148510.73443    112245.09842  21990535.8184   21990534.1494
        56.0004         48.0004
  21565928.0044   13104227.50544  10203830.01242  21565929.5144   21565927.1664
        57.0004         49.0004
  23691074.5854     245730.65843    188461.39742  23691075.5054   23691074.7874
        50.0004         42.0004
  20529059.9714   -1707256.49444  -1326030.98742  20529061.3284   20529057.1634
        59.0004         53.0004
  24073402.6424   -3350222.56943  -2592470.72342  24073405.7314   24073404.4054
        46.0004         39.0004
 05 10 14  1 40 30.0010000  0  5G 9G 4G 7G 2G30
  22002541.7104     211610.66243    161413.87342  22002542.9014   22002541.6874
        55.0004         48.0004
  21578526.5084   13170432.45444  10255418.30442  21578528.1034   21578525.8564
        57.0004         49.0004
  23702868.7454     307705.68743    236753.63742  23702869.1164   23702868.5594
        50.0004         42.0004
  20524256.6474   -1732498.89144  -1345700.36242  20524257.8424   20524253.7184
        59.0004         53.0004
  24054447.4294   -3449833.05543  -2670089.17942  24054450.6934   24054448.1724
        46.0004         39.0004
 05 10 14  1 41  0.0010000  0  5G 9G 4G 7G 2G30
  22014636.4684     275167.56043    210938.72842  22014637.5194   22014636.1694
        56.0004         48.0004
  21591204.2174   13237055.42944  10307332.32342  21591205.8434   21591203.5614
        57.0004         49.0004
  23714667.6754     369714.28043    285072.04142  23714669.3634   23714667.4864
        49.0004         42.0004
  20519557.6174   -1757191.74244  -1364941.51942  20519559.0674   20519554.7664
        59.0004         53.0004
  24035502.6124   -3549391.81743  -2747667.34542  24035504.4124   24035501.0534
        46.0004         39.0004
 05 10 14  1 41 30.0010000  0  6G 9G 4G 5G 7G 2G30
  22026817.3804     339179.56543    260818.21042  22026818.4844   22026817.4964
        55.0004         48.0004
  21603961.5364   13304094.39244  10359570.49442  21603963.0654   21603960.5214
        57.0004         49.0004
  21548674.5774   -1082997.05354   -824367.26952  21548675.5444   21548673.9964
        57.0004         49.0004
  23726474.7844     431757.12843    333417.12242  23726474.3634   23726474.7694
        48.0004         42.0004
  20514963.4614   -1781334.30644  -1383753.88442  20514964.9504   20514960.5824
        59.0004         53.0004
  24016567.4254   -3648896.23543  -2825203.17542  24016569.2414   24016567.7694
        47.0004         39.0004
 05 10 14  1 42  0.0010000  0  6G 9G 4G 5G 7G 2G30
  22039083.1054     403636.03543    311044.03342  22039084.1754   22039082.9704
        55.0004         48.0004
  21616795.6944   13371539.01343  10412124.75842  21616797.2184   21616794.9424
        56.0004         49.0004
  21536062.3634   -1149274.51444   -876012.02642  21536063.2474   21536061.5304
        57.0004         49.0004
  23738285.0914     493826.36343    381782.76442  23738285.4874   23738285.4944
        48.0004         41.0004
  20510472.5084   -1804934.29644  -1402143.46542  20510473.9324   20510469.6594
        59.0004         53.0004
  23997641.2624   -3748352.51043  -2902701.49042  23997643.9844   23997641.6464
        46.0004         39.0004
 05 10 14  1 42 30.0010000  0  6G 9G 4G 5G 7G 2G30
  22051435.6464     468549.82643    361626.20742  22051436.8434   22051435.5744
        55.0004         48.0004
  21629709.7184   13439402.37943  10465005.31342  21629711.4734   21629709.0644
        56.0004         49.0004
  21523508.6854   -1215244.26144   -927417.00342  21523509.5544   21523508.0644
        57.0004         49.0004
  23750105.1084     555937.71543    430181.23042  23750105.4594   23750104.2324
        48.0004         41.0004
  20506087.9674   -1827975.74144  -1420097.81442  20506089.4294   20506084.9494
        59.0004         53.0004
  23978727.6334   -3847742.83343  -2980148.42842  23978729.6304   23978728.5824
        47.0004         40.0004
 05 10 14  1 43  0.0010000  0  6G 9G 4G 5G 7G 2G30
  22063873.0594     533909.21543    412555.59942  22063874.5524   22063872.9574
        55.0004         48.0004
  21642700.8714   13507672.78443  10518203.03942  21642702.6784   21642700.3284
        56.0004         49.0004
  21511012.2604   -1280913.21244   -978587.59742  21511012.9404   21511011.0914
        57.0004         49.0004
  23761931.0614     618082.33343    478605.61342  23761930.0234   23761931.0094
        47.0004         41.0004
  20501807.9184   -1850467.43944  -1437623.78642  20501809.1664   20501804.7464
        59.0004         53.0004
  23959825.4094   -3947074.47243  -3057549.63542  23959827.6164   23959825.8284
        47.0004         40.0004
 05 10 14  1 43 30.0010000  0  6G 9G 4G 5G 7G 2G30
  22076395.2974     599714.72443    463832.61542  22076396.9144   22076395.3454
        55.0004         48.0004
  21655769.7244   13576350.89843  10571718.46942  21655771.3194   21655769.2574
        56.0004         49.0004
  21498574.1464   -1346276.04644  -1029519.65742  21498575.1734   21498573.5014
        57.0004         49.0004
  23773764.5694     680263.32343    527058.32842  23773763.5804   23773762.3414
        48.0004         41.0004
  20497633.2744   -1872406.23644  -1454718.92842  20497634.4034   20497630.0454
        59.0004         53.0004
  23940935.6394   -4046342.41143  -3134901.21542  23940936.3614   23940936.0734
        47.0004         40.0004
 05 10 14  1 44  0.0010000  0  6G 9G 4G 5G 7G 2G30
  22089001.9974     665962.18343    515454.00642  22089003.3114   22089002.0174
        55.0004         48.0004
  21668915.9344   13645432.92143  10625548.62842  21668917.7914   21668915.4954
        56.0004         49.0004
  21486194.5734   -1411331.79444  -1080212.42842  21486195.7024   21486193.6934
        57.0004         50.0004
  23785603.2594     742479.47743    575538.43342  23785603.2164   23785602.0794
        48.0004         41.0004
  20493563.2884   -1893793.30644  -1471384.15542  20493564.6974   20493560.2404
        59.0004         53.0004
  23922057.4194   -4145545.99643  -3212202.65342  23922059.9074   23922057.4384
        48.0004         41.0004
 05 10 14  1 44 30.0010000  0  6G 9G 4G 5G 7G 2G30
  22101692.0514     732649.06543    567417.80942  22101693.0974   22101692.0784
        55.0004         48.0004
  21682138.1684   13714916.81143  10679691.93142  21682139.6074   21682137.3604
        56.0004         49.0004
  21473873.7244   -1476077.87244  -1130663.89542  21473874.6244   21473873.0634
        57.0004         50.0004
  23797449.4334     804731.21243    624046.28342  23797450.5724   23797447.8294
        48.0004         41.0004
  20489598.5684   -1914628.09344  -1487619.03142  20489599.6884   20489595.4334
        59.0004         53.0004
  23903192.6254   -4244682.91443  -3289452.13642  23903193.9414   23903192.3424
        48.0004         41.0004
 05 10 14  1 45  0.0010000  0  6G 9G 4G 5G 7G 2G30
  22114464.5834     799768.19643    619718.42942  22114465.8834   22114464.3524
        55.0004         48.0004
  21695435.8804   13784795.27043  10734142.68942  21695437.7084   21695434.7284
        56.0004         48.0004
  21461611.2004   -1540516.50844  -1180875.79642  21461612.8274   21461610.6464
        57.0004         50.0004
  23809301.3284     867014.28143    672578.53442  23809303.5924   23809299.4184
        47.0004         41.0004
  20485737.9814   -1934915.02544  -1503427.00842  20485739.3354   20485734.8364
        59.0004         53.0004
  23884338.9974   -4343755.58943  -3366651.57142  23884342.4084   23884340.2344
        48.0004         41.0004
 05 10 14  1 45 30.0010000  0  6G 9G 4G 5G 7G 2G30
  22127319.7044     867323.87943    672359.22042  22127321.2774   22127319.2564
        55.0004         48.0004
  21708808.7104   13855072.71743  10788904.35042  21708810.4014   21708808.3434
        56.0004         48.0004
  21449409.5214   -1604638.51844  -1230840.98142  21449410.2274   21449408.7044
        58.0004         50.0004
  23821160.3294     929335.62143    721140.61342  23821161.2164   23821161.1574
        48.0004         40.0004
  20481983.1854   -1954646.94544  -1518802.50442  20481984.5134   20481979.9214
        59.0004         53.0004
  23865500.3014   -4442755.07043  -3443793.96342  23865501.2694   23865501.3054
        48.0004         41.0004
 05 10 14  1 46  0.0010000  0  6G 9G 4G 5G 7G 2G30
  22140256.2714     935306.86343    725332.97342  22140257.4924   22140256.4584
        55.0004         48.0004
  21722256.5344   13925740.19143  10843969.93142  21722258.3104   21722255.1424
        56.0004         48.0004
  21437266.8204   -1668448.25044  -1280562.83142  21437267.6274   21437265.7654
        57.0004         50.0004
  23833026.0614     991688.86843    769727.55742  23833025.7554   23833025.8454
        47.0004         40.0004
  20478332.6564   -1973830.52444  -1533750.72242  20478333.8444   20478329.4404
        59.0004         53.0004
  23846674.3754   -4541686.09343  -3520883.01942  23846676.1624   23846674.9044
        48.0004         41.0004
 05 10 14  1 46 30.0010000  0  6G 9G 4G 5G 7G 2G30
  22153275.0334    1003720.44143    778642.25242  22153276.6024   22153275.2054
        55.0004         48.0004
  21735779.1604   13996801.24443  10899342.18642  21735780.3864   21735777.9824
        56.0004         48.0004
  21425185.1024   -1731937.27744  -1330034.78542  21425185.9824   21425184.3264
        57.0004         50.0004
  23844897.2934    1054080.36043    818344.31042  23844898.4404   23844897.2734
        47.0004         40.0004
  20474787.6134   -1992459.74744  -1548266.97542  20474788.9284   20474784.5444
        59.0004         53.0004
  23827862.8974   -4640540.38043  -3597912.27342  23827864.1114   23827862.4534
        48.0004         41.0004
 05 10 14  1 47  0.0010000  0  6G 9G 4G 5G 7G 2G30
  22166373.8124    1072554.15243    832278.90942  22166374.8984   22166373.5004
        55.0004         48.0004
  21749374.3364   14068245.49243  10955013.03642  21749375.9324   21749373.6304
        56.0004         48.0004
  21413163.6674   -1795111.12144  -1379261.14342  21413164.6054   21413162.7654
        58.0004         50.0004
  23856777.5674    1116502.35143    866984.82342  23856778.2434   23856778.1664
        48.0004         40.0004
  20471346.7024   -2010541.89344  -1562356.93642  20471347.9204   20471343.4064
        59.0004         53.0004
  23809064.8144   -4739323.65043  -3674886.18342  23809066.1144   23809065.6844
        47.0004         41.0004
 05 10 14  1 47 30.0010000  0  6G 9G 4G 5G 7G 2G30
  22179553.5044    1141815.10443    886248.47542  22179555.1654   22179553.8694
        55.0004         48.0004
  21763043.8014   14140080.47743  11010988.36442  21763045.5574   21763043.8694
        56.0004         48.0004
  21401204.2274   -1857957.49544  -1428232.32642  21401205.3064   21401203.5224
        57.0004         50.0004
  23868662.2994    1178965.10643    915657.11542  23868662.7914   23868663.4574
        48.0004         40.0004
  20468011.7644   -2028067.01044  -1576012.85042  20468013.1204   20468008.5424
        59.0004         53.0004
  23790283.0934   -4838023.85643  -3751795.36042  23790285.5634   23790284.0634
        48.0004         41.0004
 05 10 14  1 48  0.0010000  0  6G 9G 4G 5G 7G 2G30
  22192812.5524    1211490.70843    940541.15342  22192813.8264   22192812.9004
        55.0004         48.0004
  21776785.4114   14212293.40543  11067258.18342  21776786.8394   21776784.9124
        56.0004         48.0004
  21389305.7904   -1920484.23144  -1476954.43442  21389306.8044   21389305.2394
        57.0004         50.0004
  23880555.5734    1241458.75543    964353.47142  23880556.3434   23880555.5624
        48.0004         40.0004
  20464780.7054   -2045045.22344  -1589242.60242  20464782.2594   20464777.7694
        59.0004         53.0004
  23771515.4824   -4936648.92943  -3828645.98842  23771518.2834   23771514.9794
        48.0004         41.0004
 05 10 14  1 48 30.0010000  0  6G 9G 4G 5G 7G 2G30
  22206150.9604    1281583.84943    995159.18642  22206152.1974   22206150.9224
        55.0004         48.0004
  21790599.9294   14284887.58943  11123825.09942  21790602.0814   21790599.4414
        56.0004         48.0004
  21377469.6234   -1982683.27944  -1525421.20242  21377470.7074   21377468.9634
        57.0004         50.0004
  23892454.2764    1303989.23343   1013078.53542  23892456.2184   23892453.2754
        47.0004         41.0004
  20461654.8944   -2061470.76244  -1602041.70342  20461656.4944   20461651.9354
        59.0004         53.0004
  23752763.1994   -5035191.23843  -3905432.12042  23752765.2534   23752763.4244
        48.0004         41.0004
 05 10 14  1 49  0.0010000  0  6G 9G 4G 5G 7G 2G30
  22219567.4594    1352088.15843   1050097.60742  22219568.9554   22219567.9094
        55.0004         48.0004
  21804485.5504   14357857.24843  11180684.58442  21804487.2394   21804485.2494
        56.0004         48.0004
  21365695.6604   -2044555.73944  -1573633.48742  21365696.6174   21365694.7264
        57.0004         50.0004
  23904359.7194    1366553.24043   1061829.71142  23904359.5264   23904359.5864
        48.0004         41.0004
  20458633.8904   -2077347.27344  -1614412.98642  20458635.0984   20458630.5394
        59.0004         53.0004
  23734026.5174   -5133652.05443  -3982154.76442  23734028.1384   23734027.8164
        48.0004         41.0004
 05 10 14  1 49 30.0010000  0  6G 9G 4G 5G 7G 2G30
  22233062.0824    1423003.40243   1105356.23442  22233063.4694   22233062.0884
        55.0004         48.0004
  21818442.3934   14431202.16743  11237836.47442  21818443.9084   21818441.7444
        56.0004         48.0004
  21353984.8384   -2106096.78344  -1621587.52442  21353985.6484   21353984.1544
        57.0004         50.0004
  23916272.6314    1429153.60843   1110609.21142  23916274.9264   23916271.4094
        49.0004         41.0004
  20455717.7824   -2092671.89544  -1626354.22842  20455719.0344   20455714.6524
        59.0004         53.0004
  23715306.8384   -5232026.63943  -4058810.20642  23715307.9514   23715307.8894
        48.0004         41.0004
 05 10 14  1 50  0.0010000  0  6G 9G 4G 5G 7G 2G30
  22246633.5124    1494323.14143   1160930.05742  22246634.9994   22246633.8484
        54.0004         47.0004
  21832469.6184   14504916.33743  11295276.10042  21832471.2574   21832469.8974
        55.0004         48.0004
  21342336.7834   -2167307.72544  -1669284.33942  21342337.7194   21342336.0824
        58.0004         50.0004
  23928190.7614    1491786.96243   1159414.42442  23928189.8594   23928192.3784
        49.0004         41.0004
  20452905.9184   -2107448.53544  -1637868.46942  20452907.0354   20452902.5124
        59.0004         53.0004
  23696602.5374   -5330316.41643  -4135399.57242  23696604.5254   23696602.3254
        48.0004         41.0004
 05 10 14  1 50 30.0010000  0  6G 9G 4G 5G 7G 2G30
  22260282.7834    1566050.12943   1216821.21642  22260284.3924   22260283.0704
        54.0004         47.0004
  21846567.8654   14579002.56543  11353005.64142  21846569.4874   21846567.5454
        56.0004         48.0004
  21330753.0264   -2228180.82744  -1716717.90242  21330753.9814   21330752.3854
        58.0004         50.0004
  23940117.0814    1554458.95443   1208249.74842  23940118.1704   23940116.4144
        49.0004         41.0004
  20450199.1874   -2121671.65744  -1648951.40242  20450200.3984   20450195.9794
        59.0004         53.0004
  23677916.7464   -5428513.91843  -4211917.05142  23677918.1274   23677917.1064
        49.0004         42.0004
 05 10 14  1 51  0.0010000  0  6G 9G 4G 5G 7G 2G30
  22274008.3994    1638176.11143   1273023.27942  22274009.3384   22274008.0314
        55.0004         47.0004
  21860735.2754   14653452.72443  11411018.76242  21860736.9974   21860734.5664
        56.0004         48.0004
  21319233.0874   -2288719.31344  -1763890.72942  21319234.2474   21319232.0014
        58.0004         50.0004
  23952049.9634    1617164.26643   1257111.02242  23952051.1634   23952048.6074
        48.0004         41.0004
  20447596.9824   -2135346.81644  -1659607.34942  20447598.1014   20447593.7284
        59.0004         53.0004
  23659246.8764   -5526622.44743  -4288365.19642  23659248.1624   23659246.6184
        49.0004         41.0004
 05 10 14  1 51 30.0010000  0  6G 9G 4G 5G 7G 2G30
  22287809.6874    1710702.68243   1329537.48942  22287810.7394   22287808.9734
        55.0004         47.0004
  21874972.2524   14728269.21343  11469317.33942  21874973.7114   21874972.1604
        56.0004         48.0004
  21307778.1154   -2348916.12244  -1810797.31542  21307778.8384   21307776.9284
        58.0004         50.0004
  23963989.2344    1679907.93943   1306002.19642  23963989.2434   23963989.2944
        49.0004         41.0004
  20445099.6564   -2148469.54344  -1669832.83142  20445101.0744   20445096.7314
        59.0004         53.0004
  23640595.7334   -5624635.01643  -4364738.58542  23640597.7914   23640596.0964
        49.0004         41.0004
 05 10 14  1 52  0.0010000  0  6G 9G 4G 5G 7G 2G30
  22301685.4154    1783621.75943   1386357.54642  22301686.8584   22301685.3124
        54.0004         47.0004
  21889277.7444   14803444.11443  11527895.19642  21889279.2824   21889276.8544
        55.0004         48.0004
  21296387.3604   -2408774.23344  -1857439.98142  21296388.5834   21296385.9574
        58.0004         50.0004
  23975935.6524    1742684.84443   1354919.26942  23975937.3984   23975934.2924
        49.0004         41.0004
  20442706.7164   -2161045.23744  -1679632.05242  20442707.9344   20442703.3454
        59.0004         53.0004
  23621961.8004   -5722554.98543  -4441039.80842  23621964.1914   23621959.9664
        49.0004         41.0004
 05 10 14  1 52 30.0010000  0  6G 9G 4G 5G 7G 2G30
  22315636.4654    1856935.04943   1443484.78442  22315637.8234   22315636.0594
        54.0004         47.0004
  21903651.9434   14878979.21243  11586753.72742  21903653.5014   21903651.3284
        56.0004         48.0004
  21285062.2344   -2468287.11744  -1903813.64142  21285063.1684   21285061.3704
        58.0004         50.0004
  23987888.6724    1805499.59443   1403865.83042  23987889.2144   23987889.2944
        49.0004         41.0004
  20440418.4394   -2173069.64844  -1689001.70542  20440419.5534   20440415.1574
        59.0004         53.0004
  23603347.0364   -5820375.77743  -4517263.74842  23603347.6924   23603344.7174
        48.0004         41.0004
 05 10 14  1 53  0.0010000  0  6G 9G 4G 5G 7G 2G30
  22329661.7104    1930637.23043   1500915.05242  22329662.9284   22329661.9224
        54.0004         47.0004
  21918092.8744   14954869.66443  11645889.15742  21918094.9054   21918092.4304
        56.0004         48.0004
  21273803.1054   -2527454.82144  -1949918.32742  21273804.1994   21273802.1494
        58.0004         50.0004
  23999849.0644    1868350.08343   1452840.24642  23999848.8854   23999847.1844
        49.0004         41.0004
  20438234.7304   -2184545.24544  -1697943.70742  20438236.0884   20438231.4784
        59.0004         53.0004
  23584751.0804   -5918097.52543  -4593410.52942  23584754.3484   23584750.7224
        48.0004         41.0004
 05 10 14  1 53 30.0010000  0  6G 9G 4G 5G 7G 2G30
  22343760.4894    2004725.89943   1558646.47842  22343761.5554   22343760.0154
        55.0004         47.0004
  21932602.0554   15031113.24043  11705299.74242  21932603.3384   21932601.2264
        56.0004         48.0004
  21262609.8574   -2586274.61444  -1995751.91642  21262611.1234   21262609.1464
        58.0004         50.0004
  24011815.5304    1931237.02943   1501843.05742  24011815.1814   24011813.9514
        48.0004         41.0004
  20436155.3274   -2195471.96644  -1706458.01642  20436156.6224   20436152.2494
        59.0004         53.0004
  23566174.4114   -6015717.67843  -4669478.13042  23566176.6544   23566173.8854
        48.0004         41.0004
 05 10 14  1 54  0.0010000  0  6G 9G 4G 5G 7G 2G30
  22357931.8144    2079197.15643   1616676.02342  22357932.9784   22357931.2544
        55.0004         47.0004
  21947177.0084   15107706.33243  11764982.67942  21947178.8054   21947176.3584
        55.0004         48.0004
  21251483.1654   -2644745.39744  -2041313.54342  21251484.1564   21251482.5654
        58.0004         50.0004
  24023789.5634    1994159.39943   1550873.47442  24023790.5984   24023788.0674
        48.0004         40.0004
  20434180.0864   -2205851.15444  -1714545.67142  20434181.6124   20434177.0094
        59.0004         53.0004
  23547617.0944   -6113235.07843  -4745465.66642  23547620.0924   23547617.3834
        48.0004         41.0004
 05 10 14  1 54 30.0010000  0  7G 9G 4G 5G 7G10G 2G30
  22372175.5174    2154049.38143   1675002.43342  22372177.0264   22372175.4154
        55.0004         47.0004
  21961818.4644   15184647.54743  11824936.87742  21961820.2414   21961818.2824
        56.0004         48.0004
  21240423.7484   -2702863.67144  -2086600.49442  21240424.7004   21240422.7384
        58.0004         50.0004
  24035770.7104    2057118.69943   1599932.67042  24035771.9314   24035769.4194
        49.0004         41.0004
  24341715.6384   -3648208.44953  -2829499.38952  24341716.0704   24341715.1214
        47.0004         40.0004
  20432309.4754   -2215681.84744  -1722205.93042  20432310.7824   20432306.3074
        59.0004         53.0004
  23529081.0674   -6210646.30843  -4821370.46542  23529081.1564   23529079.5964
        48.0004         41.0004
 05 10 14  1 55  0.0010000  0  7G 9G 4G 5G 7G10G 2G30
  22386491.7914    2229281.85043   1733625.13442  22386493.1714   22386491.6104
        54.0004         47.0004
  21976526.0824   15261936.70043  11885162.20342  21976527.8634   21976526.1994
        55.0004         48.0004
  21229432.3794   -2760624.69744  -2131609.06442  21229433.3954   21229431.2354
        58.0004         50.0004
  24047758.7444    2120117.71143   1649022.80542  24047759.9394   24047756.5934
        48.0004         41.0004
  24322501.6624   -3749178.07743  -2908176.95142  24322502.9004   24322502.4084
        47.0004         40.0004
  20430543.4694   -2224961.83844  -1729437.07042  20430544.9194   20430540.3834
        59.0004         53.0004
  23510565.1064   -6307946.83143  -4897189.00142  23510566.8714   23510564.3654
        48.0004         41.0004
 05 10 14  1 55 30.0010000  0  7G 9G 4G 5G 7G10G 2G30
  22400877.9174    2304883.40243   1792535.43342  22400879.3794   22400877.8994
        54.0004         47.0004
  21991297.7984   15339562.97343  11945650.20442  21991299.5424   21991297.4244
        55.0004         48.0004
  21218507.3214   -2818034.69544  -2176344.10742  21218508.2004   21218506.5274
        58.0004         50.0004
  24059752.8704    2183148.11843   1698137.41442  24059753.9834   24059754.1834
        48.0004         41.0004
  24303286.6324   -3850158.32443  -2986862.78142  24303286.8484   24303286.2654
        48.0004         40.0004
  20428880.8534   -2233699.79444  -1736245.84842  20428882.1144   20428877.6454
        59.0004         53.0004
  23492069.0804   -6405142.80943  -4972926.06142  23492071.0174   23492070.7984
        48.0004         41.0004
 05 10 14  1 56  0.0010000  0  7G 9G 4G 5G 7G10G 2G30
  22415336.3334    2380859.96543   1851737.94042  22415337.6604   22415335.9294
        54.0004         47.0004
  22006134.8544   15417532.41043  12006405.62842  22006136.8794   22006134.1934
        56.0004         48.0004
  21207651.4804   -2875082.53644  -2220796.95342  21207652.6194   21207650.1374
        58.0004         50.0004
  24071755.4544    2246219.14943   1747283.65842  24071755.4774   24071755.0964
        48.0004         41.0004
  24284069.7524   -3951136.98443  -3065547.37642  24284072.4074   24284070.1774
        47.0004         40.0004
  20427322.7024   -2241887.09744  -1742625.54642  20427324.0724   20427319.5814
        59.0004         53.0004
  23473595.6214   -6502223.14443  -5048573.02342  23473597.8104   23473597.3834
        47.0004         41.0004
 05 10 14  1 56 30.0010000  0  7G 9G 4G 5G 7G10G 2G30
  22429864.0524    2457204.49743   1911227.17842  22429865.5434   22429863.8284
        54.0004         47.0004
  22021036.0214   15495838.40943  12067423.28742  22021038.1374   22021035.1504
        55.0004         48.0004
  21196864.3594   -2931770.06544  -2264969.03542  21196865.2304   21196863.2254
        58.0004         50.0004
  24083764.2054    2309326.94343   1796458.56442  24083765.7854   24083764.6024
        48.0004         41.0004
  24264854.1514   -4052114.73443  -3144231.26042  24264854.8284   24264854.2754
        47.0004         40.0004
  20425868.8114   -2249528.39944  -1748579.78742  20425870.1744   20425865.3824
        60.0004         53.0004
  23455143.1674   -6599189.76443  -5124131.37342  23455145.1484   23455144.7564
        48.0004         41.0004
 05 10 14  1 57  0.0010000  0  7G 9G 4G 5G 7G10G 2G30
  22444460.9774    2533914.08943   1971000.88042  22444462.5004   22444461.6044
        54.0004         47.0004
  22036001.2394   15574478.57743  12128701.35842  22036003.0174   22036000.3194
        56.0004         48.0004
  21186145.8264   -2988095.06344  -2308858.62642  21186147.1244   21186144.9844
        58.0004         50.0004
  24095780.0604    2372471.75543   1845662.31342  24095779.5714   24095779.8944
        47.0004         41.0004
  24245639.1344   -4153088.44743  -3222911.99842  24245640.2684   24245641.4914
        48.0004         40.0004
  20424518.4884   -2256623.84044  -1754108.68242  20424519.7274   20424515.1764
        59.0004         53.0004
  23436712.9794   -6696040.40643  -5199599.34642  23436715.9594   23436711.2324
        48.0004         41.0004
 05 10 14  1 57 30.0010000  0  7G 9G 4G 5G 7G10G 2G30
  22459127.8734    2610986.19543   2031057.06742  22459129.1644   22459127.8314
        54.0004         47.0004
  22051028.4154   15653450.73643  12190238.10742  22051030.3784   22051027.5564
        55.0004         48.0004
  21175497.0734   -3044054.69044  -2352463.51442  21175498.2564   21175496.2914
        58.0004         50.0004
  24107803.3454    2435654.43743   1894895.56342  24107803.4004   24107802.8394
        47.0004         41.0004
  24226426.5614   -4254054.63743  -3301586.88342  24226426.6194   24226426.4054
        47.0004         40.0004
  20423271.9544   -2263173.61744  -1759212.38542  20423273.4294   20423268.8134
        59.0004         53.0004
  23418305.6264   -6792772.25843  -5274974.74242  23418307.4674   23418305.9104
        48.0004         41.0004
 05 10 14  1 58  0.0010000  0  7G 9G 4G 5G 7G10G 2G30
  22473862.5004    2688415.99743   2091391.97442  22473863.4934   22473861.8254
        54.0004         47.0004
  22066118.4674   15732750.33843  12252030.01642  22066120.4344   22066117.9364
        55.0004         47.0004
  21164917.9864   -3099648.62144  -2395783.44042  21164919.0664   21164917.2604
        58.0004         50.0004
  24119833.9964    2498873.27443   1944156.99342  24119835.2834   24119833.2324
        47.0004         41.0004
  24207215.0324   -4355011.86643  -3380254.78542  24207216.1834   24207216.5134
        47.0004         40.0004
  20422129.3604   -2269179.69444  -1763892.42642  20422130.4384   20422125.9484
        59.0004         53.0004
  23399920.8274   -6889385.07343  -5350257.39342  23399921.9484   23399920.4274
        49.0004         41.0004
 05 10 14  1 58 30.0010000  0  7G 9G 4G 5G 7G10G 2G30
  22488664.4044    2766202.35643   2152004.71942  22488666.1514   22488664.3624
        54.0004         47.0004
  22081271.5054   15812376.91043  12314076.70342  22081273.3024   22081270.6254
        55.0004         47.0004
  21154409.3874   -3154872.71444  -2438815.18242  21154410.3584   21154408.5104
        58.0004         50.0004
  24131871.9334    2562130.55243   1993448.37142  24131871.3394   24131870.5384
        47.0004         41.0004
  24188005.5624   -4455954.95543  -3458911.67442  24188006.1474   24188007.9894
        47.0004         40.0004
  20421089.9884   -2274640.55444  -1768147.62542  20421091.2864   20421086.6524
        59.0004         53.0004
  23381559.3414   -6985874.60843  -5425443.99842  23381561.4194   23381559.9414
        49.0004         41.0004
 05 10 14  1 59  0.0010000  0  7G 9G 4G 5G 7G10G 2G30
  22503533.8054    2844342.44343   2212893.09442  22503535.6474   22503533.6164
        54.0004         47.0004
  22096485.4064   15892328.03343  12376376.28342  22096486.9734   22096484.5414
        55.0004         47.0004
  21143971.2154   -3209724.56444  -2481556.86542  21143972.1024   21143970.3014
        58.0004         50.0004
  24143915.5674    2625426.70243   2042770.02942  24143916.8124   24143915.9604
        46.0004         41.0004
  24168800.6644   -4556880.39843  -3537554.83042  24168801.0344   24168801.9504
        47.0004         40.0004
  20420154.5504   -2279556.64744  -1771978.33042  20420155.8984   20420151.1834
        60.0004         53.0004
  23363222.1484   -7082238.34943  -5500532.57842  23363223.2954   23363220.5384
        48.0004         42.0004
 05 10 14  1 59 30.0010000  0  7G 9G 4G 5G 7G10G 2G30
  22518469.8724    2922831.83343   2274053.65342  22518471.6544   22518469.8064
        54.0004         47.0004
  22111760.7184   15972599.41343  12438925.42042  22111762.8404   22111760.4084
        55.0004         47.0004
  21133604.1744   -3264203.42144  -2524007.90642  21133605.2164   21133603.1594
        58.0004         50.0004
  24155968.1664    2688760.37443   2092120.93042  24155969.4184   24155968.4744
        46.0004         41.0004
  24149598.1164   -4657786.75743  -3616183.11042  24149599.5914   24149597.9064
        46.0004         40.0004
  20419322.5014   -2283929.95444  -1775386.08942  20419323.5294   20419318.9584
        60.0004         53.0004
  23344908.8834   -7178475.66543  -5575522.63742  23344910.9114   23344907.7374
        49.0004         42.0004
 05 10 14  2  0  0.0010000  0  7G 9G 4G 5G 7G10G 2G30
  22533471.8494    3001668.23243   2335484.61342  22533473.6634   22533472.0394
        54.0004         47.0004
  22127096.0714   16053189.18743  12501722.64842  22127097.7234   22127096.0324
        55.0004         47.0004
  21123308.7594   -3318306.51644  -2566166.14742  21123309.6524   21123307.4264
        58.0004         50.0004
  24168027.3134    2752132.42843   2141501.73642  24168027.1054   24168027.0524
        46.0004         40.0004
  24130400.5214   -4758670.00543  -3694793.38842  24130401.0054   24130402.2004
        46.0004         40.0004
  20418593.2504   -2287760.33744  -1778370.78442  20418594.7944   20418590.0494
        59.0004         53.0004
  23326620.0784   -7274583.64743  -5650411.92842  23326622.5034   23326621.8414
        49.0004         42.0004
 05 10 14  2  0 30.0010000  0  7G 9G 4G 5G 7G10G 2G30
  22548538.9484    3080847.02943   2397182.37342  22548541.1924   22548539.2484
        54.0004         47.0004
  22142492.1294   16134093.15143  12564764.70542  22142493.9574   22142491.5694
        55.0004         47.0004
  21113084.7674   -3372033.12544  -2608031.02242  21113085.9374   21113084.1354
        58.0004         51.0004
  24180092.8044    2815541.76643   2190911.60542  24180093.2954   24180094.0434
        44.0004         40.0004
  24111208.4514   -4859528.49843  -3773384.37342  24111207.4514   24111207.6094
        46.0004         40.0004
  20417967.3504   -2291049.51444  -1780933.76742  20417968.8604   20417964.1414
        59.0004         53.0004
  23308355.8944   -7370561.46943  -5725199.80342  23308357.2294   23308356.2104
        50.0004         42.0004
 05 10 14  2  1  0.0010000  0  8G 9G 4G 5G17G 7G10G 2G30
  22563671.7654    3160369.94443   2459148.27742  22563673.2134   22563671.5684
        54.0004         47.0004
  22157947.1604   16215313.39043  12628053.21042  22157948.9494   22157947.3574
        55.0004         47.0004
  21102933.9064   -3425376.50644  -2649597.27942  21102934.9054   21102933.0214
        58.0004         51.0004
  23837911.5274    -581817.46453   -466214.68552  23837912.8554   23837910.5204
        49.0004         44.0004
  24192167.8514    2878993.16643   2240354.24542  24192168.4394   24192167.2114
        44.0004         39.0004
  24092021.1614   -4960354.28843  -3851949.86542  24092021.8214   24092022.4004
        46.0004         40.0004
  20417445.1724   -2293793.90644  -1783072.23842  20417446.4454   20417441.8064
        59.0004         53.0004
  23290117.5504   -7466402.40643  -5799881.00842  23290121.0344   23290116.8804
        50.0004         42.0004
 05 10 14  2  1 30.0010000  0  8G 9G 4G 5G17G 7G10G 2G30
  22578868.4494    3240226.94343   2521374.50742  22578869.7384   22578868.6294
        54.0004         47.0004
  22173461.6234   16296840.42743  12691580.77942  22173463.4144   22173460.9554
        55.0004         47.0004
  21092855.2124   -3478341.36544  -2690868.58642  21092856.1144   21092854.2054
        59.0004         51.0004
  23851286.1454    -511533.71043   -411448.11642  23851287.9614   23851285.7324
        50.0004         44.0004
  24204249.6704    2942480.00943   2289824.48442  24204250.3084   24204247.6734
        45.0004         40.0004
  24072839.8994   -5061151.15443  -3930492.82842  24072840.5054   24072842.2124
        46.0004         40.0004
  20417024.9724   -2296000.81044  -1784791.88942  20417026.3814   20417021.8124
        59.0004         53.0004
  23271905.3634   -7562110.91643  -5874459.03342  23271907.9004   23271905.1984
        50.0004         43.0004
 05 10 14  2  2  0.0010000  0  8G 9G 4G 5G17G 7G10G 2G30
  22594128.2384    3320418.48543   2583861.42042  22594130.0684   22594128.2074
        54.0004         46.0004
  22189034.2574   16378675.27043  12755348.20042  22189035.8274   22189033.4814
        54.0004         47.0004
  21082849.3164   -3530922.00944  -2731840.50542  21082850.4844   21082848.3684
        59.0004         51.0004
  23864669.9084    -441203.73343   -356645.54042  23864670.6684   23864668.5784
        49.0004         44.0004
  24216338.2214    3006006.06343   2339325.27942  24216339.2944   24216337.7274
        45.0004         40.0004
  24053665.7344   -5161912.29443  -4009007.95142  24053666.3204   24053666.9394
        45.0004         40.0004
  20416708.0904   -2297667.19944  -1786090.35842  20416709.3664   20416704.7454
        59.0004         53.0004
  23253718.8754   -7657681.26143  -5948929.39342  23253720.0914   23253718.3854
        50.0004         43.0004
 05 10 14  2  2 30.0010000  0  8G 9G 4G 5G17G 7G10G 2G30
  22609451.3434    3400942.58943   2646607.47442  22609452.7984   22609451.8154
        54.0004         47.0004
  22204665.3564   16460815.89243  12819353.88142  22204667.4674   22204664.4034
        55.0004         47.0004
  21072917.3124   -3583115.28144  -2772510.57142  21072918.2694   21072916.1024
        59.0004         51.0004
  23878061.7314    -370826.49443   -301806.14442  23878062.7854   23878059.1334
        49.0004         43.0004
  24228434.1194    3069572.49943   2388857.55942  24228434.2294   24228433.6074
        46.0004         39.0004
  24034499.5024   -5262633.47743  -4087491.93842  24034499.7374   24034501.3324
        47.0004         40.0004
  20416493.6924   -2298792.80544  -1786967.43742  20416495.1174   20416490.4064
        59.0004         53.0004
  23235559.3324   -7753110.22143  -6023289.58042  23235561.1764   23235558.2304
        50.0004         43.0004
 05 10 14  2  3  0.0010000  0  8G 9G 4G 5G17G 7G10G 2G30
  22624837.4204    3481795.72643   2709609.91342  22624838.9464   22624837.3034
        54.0004         47.0004
  22220353.1194   16543259.59843  12883595.72842  22220354.3854   22220353.4274
        54.0004         47.0004
  21063059.1234   -3634919.56144  -2812877.52942  21063060.2954   21063058.1884
        59.0004         51.0004
  23891463.1984    -300402.08743   -246929.98942  23891464.5884   23891461.6954
        48.0004         43.0004
  24240537.3394    3133179.11943   2438421.15642  24240538.9074   24240537.0434
        45.0004         39.0004
  24015341.5314   -5363311.90043  -4165942.61142  24015341.0594   24015342.4414
        47.0004         40.0004
  20416382.2414   -2299378.80344  -1787424.04542  20416383.5614   20416378.7924
        59.0004         53.0004
  23217427.2414   -7848395.84243  -6097538.08342  23217429.3544   23217425.6914
        50.0004         43.0004
 05 10 14  2  3 30.0010000  0  8G 9G 4G 5G17G 7G10G 2G30
  22640284.3634    3562972.20243   2772864.30242  22640286.5584   22640285.1894
        54.0004         47.0004
  22236098.5064   16626001.32143  12948069.81042  22236100.0134   22236097.6024
        54.0004         47.0004
  21053275.2564   -3686335.02444  -2852941.51442  21053276.1844   21053273.9684
        59.0004         51.0004
  23904873.3854    -229933.55443   -192019.43342  23904873.5504   23904872.2904
        48.0004         43.0004
  24252648.8584    3196823.85943   2488014.45342  24252650.9894   24252648.9734
        46.0004         39.0004
  23996190.5874   -5463947.13643  -4244359.61342  23996192.8214   23996191.8074
        47.0004         40.0004
  20416372.7744   -2299428.34544  -1787462.63542  20416374.1624   20416369.4614
        59.0004         53.0004
  23199322.0164   -7943538.41743  -6171675.12642  23199323.0004   23199321.8134
        50.0004         43.0004
 05 10 14  2  4  0.0010000  0  8G 9G 4G 5G17G 7G10G 2G30
  22655793.3644    3644470.14843   2836369.18942  22655794.4064   22655793.1784
        54.0004         47.0004
  22251900.5504   16709039.44743  13012774.86042  22251901.8194   22251899.3944
        54.0004         47.0004
  21043565.9144   -3737358.51144  -2892700.06642  21043566.9804   21043564.5414
        59.0004         51.0004
  23918291.7684    -159419.97443   -137073.78742  23918292.8634   23918290.5564
        48.0004         43.0004
  24264767.3324    3260508.00843   2537638.45942  24264769.3094   24264767.4684
        47.0004         39.0004
  23977049.8754   -5564534.60943  -4322739.42142  23977051.3704   23977049.4474
        46.0004         40.0004
  20416465.6394   -2298940.87244  -1787082.77042  20416466.9964   20416462.4084
        59.0004         53.0004
  23181244.9864   -8038534.52043  -6245698.02742  23181246.0084   23181243.0164
        50.0004         43.0004
 05 10 14  2  4 30.0010000  0  8G 9G 4G 5G17G 7G10G 2G30
  22671362.8584    3726289.68043   2900124.66342  22671364.1924   22671363.3184
        53.0004         47.0004
  22267758.6804   16792374.55243  13077711.29742  22267761.0264   22267757.6244
        54.0004         47.0004
  21033931.9074   -3787984.71644  -2932149.05042  21033933.0044   21033930.7414
        59.0004         51.0004
  23931720.3744     -88857.68843    -82090.18842  23931720.6114   23931717.2354
        49.0004         43.0004
  24276894.9294    3324235.06843   2587295.90042  24276896.5824   24276892.8304
        47.0004         39.0004
  23957919.1644   -5665067.86243  -4401076.97142  23957919.1164   23957919.7174
        47.0004         40.0004
  20416661.2884   -2297913.76544  -1786282.40942  20416662.4014   20416657.6184
        59.0004         53.0004
  23163196.4784   -8133378.69243  -6319602.55042  23163197.8704   23163194.7374
        50.0004         43.0004
 05 10 14  2  5  0.0010000  0  8G 9G 4G 5G17G 7G10G 2G30
  22686992.3774    3808423.87043   2964125.33042  22686993.8254   22686992.8194
        53.0004         46.0004
  22283671.4014   16875999.93843  13142873.94742  22283673.7184   22283670.8744
        54.0004         47.0004
  21024373.3224   -3838215.49444  -2971289.90542  21024374.2034   21024372.2464
        59.0004         51.0004
  23945155.5364     -18250.64143    -27071.72742  23945156.9324   23945155.3414
        47.0004         43.0004
  24289028.1114    3388001.32543   2636983.88842  24289031.6444   24289025.2924
        47.0004         39.0004
  23938798.4714   -5765547.41143  -4479372.67242  23938799.3974   23938798.7384
        46.0004         41.0004
  20416958.1864   -2296351.86044  -1785065.32542  20416959.5444   20416954.8634
        59.0004         53.0004
  23145177.0334   -8228072.51043  -6393389.91542  23145179.2214   23145177.2514
        50.0004         43.0004
 05 10 14  2  5 30.0010000  0  8G 9G 4G 5G17G 7G10G 2G30
  22702680.9624    3890868.52543   3028367.91342  22702682.8254   22702681.2904
        53.0004         46.0004
  22299639.8064   16959912.01743  13208259.98042  22299641.0844   22299638.4494
        54.0004         46.0004
  21014889.9394   -3888049.71344  -3010121.75942  21014891.0004   21014889.2744
        59.0004         51.0004
  23958600.1604      52399.91743     27980.63942  23958601.1664   23958597.9114
        48.0004         43.0004
  24301170.2724    3451805.84243   2686701.69142  24301173.2664   24301169.3854
        48.0004         39.0004
  23919688.6614   -5865971.15043  -4557624.88142  23919688.7974   23919687.5284
        47.0004         41.0004
  20417356.8444   -2294257.34344  -1783433.22242  20417358.0684   20417353.4684
        59.0004         53.0004
  23127186.0194   -8322614.79843  -6467059.18542  23127187.6794   23127186.4864
        51.0004         43.0004
 05 10 14  2  6  0.0010000  0  8G 9G 4G 5G17G 7G10G 2G30
  22718429.4254    3973624.98743   3092853.46342  22718430.6994   22718429.4854
        53.0004         46.0004
  22315662.6284   17044112.57643  13273870.81442  22315664.2534   22315661.9064
        54.0004         46.0004
  21005483.6974   -3937480.78244  -3048639.46442  21005484.6374   21005482.6024
        59.0004         51.0004
  23972052.0054     123098.61943     83070.52042  23972053.9864   23972050.6284
        48.0004         43.0004
  24313320.2064    3515653.63743   2736453.22042  24313323.8024   24313319.6084
        49.0004         39.0004
  23900589.9224   -5966331.09843  -4635827.37142  23900591.2754   23900591.4984
        47.0004         41.0004
  20417857.4714   -2291625.77044  -1781382.63142  20417858.9454   20417854.3224
        59.0004         53.0004
  23109225.2234   -8416998.69043  -6540605.04242  23109226.8094   23109225.4374
        50.0004         43.0004
 05 10 14  2  6 30.0010000  0  8G 9G 4G 5G17G 7G10G 2G30
  22734235.2064    4056686.07343   3157576.37942  22734236.9904   22734235.3754
        53.0004         46.0004
  22331738.8614   17128595.19243  13339701.43142  22331739.9554   22331738.6944
        54.0004         46.0004
  20996153.3374   -3986510.78244  -3086844.65042  20996154.4314   20996152.5954
        58.0004         51.0004
  23985514.4284     193841.29943    138194.68542  23985515.5164   23985514.3174
        47.0004         43.0004
  24325476.1504    3579540.57343   2786235.25542  24325478.0214   24325478.9454
        47.0004         39.0004
  23881504.3224   -6066628.37443  -4713981.04842  23881504.1234   23881505.6714
        47.0004         41.0004
  20418459.5654   -2288462.50644  -1778917.73342  20418460.8704   20418456.1714
        59.0004         53.0004
  23091294.3704   -8511225.89343  -6614028.80642  23091295.5504   23091294.8384
        51.0004         43.0004
 05 10 14  2  7  0.0010000  0  8G 9G 4G 5G17G 7G10G 2G30
  22750099.2674    4140050.99343   3222536.04742  22750100.7284   22750099.0464
        53.0004         46.0004
  22347869.1864   17213359.09343  13405751.22842  22347870.9444   22347869.0514
        54.0004         46.0004
  20986900.5394   -4035135.35144  -3124733.91542  20986901.5564   20986899.7424
        59.0004         51.0004
  23998986.5384     264630.45243    193355.06442  23998987.6144   23998984.2834
        47.0004         43.0004
  24337641.5344    3643469.35943   2836049.89942  24337641.6834   24337642.8454
        48.0004         39.0004
  23862431.0764   -6166857.51843  -4792081.62042  23862432.1704   23862430.9574
        47.0004         41.0004
  20419162.9034   -2284766.11944  -1776037.41942  20419164.3514   20419159.4794
        59.0004         53.0004
  23073394.0944   -8605291.94143  -6687326.99642  23073395.3514   23073394.8784
        50.0004         43.0004
 05 10 14  2  7 30.0010000  0  8G 9G 4G 5G17G 7G10G 2G30
  22766020.2774    4223717.01943   3287730.35042  22766022.0514   22766020.2434
        54.0004         46.0004
  22364052.4854   17298402.56743  13472018.87142  22364054.2424   22364051.7744
        54.0004         46.0004
  20977725.2724   -4083351.86844  -3162305.21342  20977726.2864   20977724.0804
        59.0004         51.0004
  24012464.5154     335466.26843    248551.79242  24012466.3364   24012464.1184
        46.0004         42.0004
  24349816.4684    3707440.66543   2885897.64042  24349817.5414   24349816.5764
        48.0004         39.0004
  23843371.9854   -6267014.88043  -4870126.26942  23843374.1924   23843372.1914
        48.0004         41.0004
  20419967.8174   -2280536.73844  -1772741.78242  20419969.1934   20419964.3594
        59.0004         53.0004
  23055525.3494   -8699193.92943  -6760497.34842  23055527.3434   23055525.5254
        51.0004         43.0004
 05 10 14  2  8  0.0010000  0  8G 9G 4G 5G17G 7G10G 2G30
  22781997.8484    4307677.74143   3353154.27542  22781998.4844   22781997.2824
        53.0004         46.0004
  22380288.0944   17383719.39643  13538499.52742  22380289.5534   22380287.3154
        54.0004         46.0004
  20968627.3394   -4131161.51144  -3199559.46742  20968628.4364   20968626.5264
        59.0004         51.0004
  24025954.2484     406345.56143    303782.39142  24025954.4134   24025952.1034
        47.0004         43.0004
  24361996.2884    3771451.63543   2935776.32842  24361996.0144   24361998.0314
        47.0004         40.0004
  23824326.2754   -6367100.06443  -4948114.67142  23824326.6204   23824327.6144
        48.0004         41.0004
  20420873.0494   -2275778.74744  -1769034.24342  20420874.4554   20420869.8364
        59.0004         53.0004
  23037687.2754   -8792932.80643  -6833540.60542  23037688.6614   23037685.3684
        50.0004         43.0004
 05 10 14  2  8 30.0010000  0  8G 9G 4G 5G17G 7G10G 2G30
  22798030.3764    4391932.46843   3418807.30542  22798032.4614   22798030.6874
        53.0004         46.0004
  22396574.9094   17469309.47343  13605193.09442  22396576.4674   22396574.7184
        54.0004         46.0004
  20959607.8774   -4178559.90244  -3236493.26742  20959608.9694   20959606.7784
        59.0004         51.0004
  24039449.0234     477270.91943    359048.87942  24039450.5374   24039448.3434
        45.0004         42.0004
  24374185.8084    3835504.70843   2985687.83942  24374186.9294   24374185.1824
        48.0004         39.0004
  23805295.4374   -6467107.47243  -5026042.46842  23805295.8424   23805294.6024
        48.0004         41.0004
  20421879.4284   -2270490.20844  -1764913.29342  20421880.7804   20421876.1244
        59.0004         53.0004
  23019881.1854   -8886503.86943  -6906453.08742  23019882.9704   23019881.2464
        50.0004         43.0004
 05 10 14  2  9  0.0010000  0  8G 9G 4G 5G17G 7G10G 2G30
  22814118.7544    4476477.30943   3484686.39642  22814120.1194   22814118.8604
        53.0004         46.0004
  22412913.7794   17555169.44843  13672096.98042  22412916.0444   22412913.2464
        54.0004         46.0004
  20950666.6784   -4225545.75044  -3273105.60542  20950667.7594   20950665.8754
        59.0004         51.0004
  24052955.8464     548241.49043    414350.61142  24052956.5014   24052954.0304
        46.0004         42.0004
  24386382.2274    3899599.63243   3035631.91742  24386384.9174   24386380.5814
        48.0004         40.0004
  23786279.8604   -6567034.65043  -5103907.74642  23786281.1134   23786278.9364
        49.0004         42.0004
  20422986.4154   -2264673.17344  -1760380.52342  20422987.5774   20422983.0474
        59.0004         53.0004
  23002107.3654   -8979905.43943  -6979233.49942  23002110.4484   23002107.9864
        50.0004         43.0004
 05 10 14  2  9 30.0010000  0  8G 9G 4G 5G17G 7G10G 2G30
  22830262.1194    4561308.94343   3550788.95642  22830263.1794   22830262.1564
        53.0004         46.0004
  22429302.8294   17641296.39243  13739208.87642  22429304.5914   22429302.5804
        54.0004         46.0004
  20941804.4404   -4272117.12944  -3309394.98142  20941805.2724   20941803.2844
        59.0004         51.0004
  24066469.0184     619257.24243    469687.54142  24066469.4154   24066468.7794
        45.0004         42.0004
  24398586.7744    3963736.26243   3085608.50742  24398588.2964   24398589.8104
        47.0004         40.0004
  23767280.2264   -6666878.55243  -5181708.14442  23767280.5604   23767278.9404
        49.0004         42.0004
  20424193.9194   -2258328.67444  -1755436.74542  20424195.0584   20424190.4124
        59.0004         53.0004
  22984366.2504   -9073135.53643  -7051880.29642  22984368.2074   22984365.5254
        50.0004         43.0004
 05 10 14  2 10  0.0010000  0  8G 9G 4G 5G17G 7G10G 2G30
  22846459.3544    4646426.33443   3617114.18942  22846460.2554   22846458.3324
        53.0004         46.0004
  22445743.3474   17727690.20943  13806528.74042  22445744.7074   22445742.4654
        54.0004         46.0004
  20933021.8094   -4318269.76444  -3345358.06242  20933022.7954   20933020.6884
        59.0004         51.0004
  24079992.0474     690320.38143    525061.39942  24079992.9494   24079990.6344
        46.0004         42.0004
  24410800.9004    4027917.28743   3135619.68842  24410801.1434   24410799.1964
        47.0004         40.0004
  23748297.5584   -6766633.56643  -5259439.25942  23748296.6114   23748296.8354
        49.0004         42.0004
  20425501.8074   -2251455.39144  -1750080.92542  20425503.0944   20425498.3464
        59.0004         53.0004
  22966658.7564   -9166189.29343  -7124389.68842  22966661.2484   22966658.7304
        50.0004         43.0004
 05 10 14  2 10 30.0010000  0  8G 9G 4G 5G17G 7G10G 2G30
  22862709.7864    4731823.61443   3683657.51442  22862711.1004   22862710.0994
        53.0004         46.0004
  22462233.0914   17814345.10843  13874052.03842  22462234.9884   22462232.6224
        54.0004         46.0004
  20924318.7524   -4364004.53844  -3380995.54142  20924319.7564   20924317.7954
        59.0004         51.0004
  24093522.8904     761427.99443    580469.91742  24093524.0584   24093522.2564
        47.0004         42.0004
  24423020.7244    4092139.95543   3185663.29442  24423022.7114   24423021.8024
        46.0004         40.0004
  23729331.3174   -6866299.44143  -5337100.93442  23729333.1864   23729331.0954
        48.0004         42.0004
  20426909.6074   -2244057.22344  -1744316.10842  20426910.8314   20426906.1314
        59.0004         53.0004
  22948984.7934   -9259067.29743  -7196762.14642  22948986.7474   22948984.1234
        50.0004         43.0004
 05 10 14  2 11  0.0010000  0  8G 9G 4G 5G17G 7G10G 2G30
  22879013.1934    4817499.01243   3750417.56142  22879014.4444   22879012.7084
        53.0004         46.0004
  22478772.5474   17901260.07943  13941778.00142  22478774.1664   22478771.2934
        54.0004         46.0004
  20915695.9864   -4409318.00944  -3416304.72842  20915697.2254   20915694.9074
        59.0004         51.0004
  24107063.4204     832581.59543    635914.27042  24107065.1474   24107062.0194
        48.0004         42.0004
  24435251.7444    4156406.03243   3235740.76242  24435253.6934   24435252.5254
        47.0004         40.0004
  23710383.1634   -6965871.18843  -5414689.25142  23710385.1184   23710382.9174
        48.0004         42.0004
  20428417.1664   -2236133.85044  -1738142.03942  20428418.6434   20428413.8274
        59.0004         53.0004
  22931344.5994   -9351765.95243  -7268994.83442  22931346.5134   22931344.8544
        50.0004         43.0004
 05 10 14  2 11 30.0010000  0  8G 9G 4G 5G17G 7G10G 2G30
  22895368.2254    4903446.59243   3817389.69142  22895369.3094   22895368.9354
        52.0004         46.0004
  22495360.1574   17988429.81543  14009702.47342  22495361.9164   22495359.6714
        53.0004         46.0004
  20907152.7564   -4454210.79144  -3451286.10642  20907153.8204   20907151.8974
        59.0004         51.0004
  24120611.6264     903778.74943    691392.55042  24120613.4564   24120610.4154
        48.0004         42.0004
  24447488.4884    4220713.15943   3285850.20942  24447489.9184   24447488.2804
        48.0004         40.0004
  23691453.3224   -7065348.07943  -5492203.67342  23691453.3834   23691453.6864
        48.0004         42.0004
  20430024.1364   -2227688.65744  -1731561.35842  20430025.5834   20430021.0944
        59.0004         53.0004
  22913739.1524   -9444285.23143  -7341087.76042  22913740.8674   22913738.9964
        51.0004         43.0004
 05 10 14  2 12  0.0010000  0  8G 9G 4G 5G17G 7G10G 2G30
  22911775.5724    4989668.36343   3884575.48242  22911777.5654   22911776.7144
        53.0004         46.0004
  22511997.1194   18075856.91043  14077827.48042  22511998.6974   22511996.2844
        53.0004         46.0004
  20898691.5794   -4498675.80944  -3485934.16242  20898692.5864   20898690.4284
        59.0004         51.0004
  24134169.0144     975024.06843    746908.35442  24134169.8664   24134166.7844
        48.0004         42.0004
  24459734.8994    4285066.65243   3335995.77942  24459737.8664   24459735.1774
        48.0004         40.0004
  23672543.6464   -7164721.96543  -5569637.79942  23672544.5034   23672543.2324
        48.0004         42.0004
  20431731.5514   -2218717.46144  -1724570.80342  20431732.7454   20431728.1994
        59.0004         53.0004
  22896168.6254   -9536617.99843  -7413035.33842  22896170.2324   22896167.2184
        51.0004         43.0004
 05 10 14  2 12 30.0010000  0  8G 9G 4G 5G17G 7G10G 2G30
  22928234.5154    5076157.08043   3951969.27942  22928235.7004   22928234.2094
        53.0004         46.0004
  22528681.4784   18163534.42043  14146147.62342  22528683.2164   22528680.8304
        53.0004         46.0004
  20890311.4944   -4542715.18844  -3520250.55642  20890312.3474   20890310.3204
        59.0004         51.0004
  24147734.5234    1046313.98543    802458.96342  24147736.1974   24147733.9904
        48.0004         42.0004
  24471988.3564    4349462.70543   3386174.50042  24471988.3374   24471988.8024
        47.0004         40.0004
  23653652.6194   -7263993.46943  -5646992.17342  23653652.8744   23653652.0254
        48.0004         42.0004
  20433537.6314   -2209225.48744  -1717174.44842  20433538.7374   20433534.3374
        59.0004         53.0004
  22878633.1624   -9628765.66743  -7484838.68742  22878635.8614   22878633.4384
        50.0004         43.0004
 05 10 14  2 13  0.0010000  0  8G 9G 4G 5G17G 7G10G 2G30
  22944742.7164    5162910.46943   4019569.31542  22944744.0454   22944743.1244
        52.0004         45.0004
  22545413.1134   18251460.96943  14214661.81942  22545414.8644   22545412.3484
        53.0004         46.0004
  20882012.2854   -4586325.93844  -3554232.94942  20882013.0334   20882011.4404
        59.0004         51.0004
  24161309.2984    1117649.65543    858045.21642  24161310.8304   24161309.2434
        48.0004         42.0004
  24484251.4764    4413902.67043   3436387.44642  24484253.1464   24484251.8874
        47.0004         39.0004
  23634782.1014   -7363158.50243  -5724263.57742  23634782.6414   23634782.6794
        48.0004         41.0004
  20435442.9624   -2199213.01544  -1709372.51142  20435444.3954   20435439.4304
        59.0004         53.0004
  22861134.2634   -9720725.05443  -7556495.32942  22861136.0494   22861132.8254
        51.0004         44.0004
 05 10 14  2 13 30.0010000  0  7G 9G 4G 5G17G10G 2G30
  22961301.1214    5249924.73943   4087372.63342  22961301.5844   22961300.9834
        52.0004         45.0004
  22562191.9254   18339633.30943  14283367.53742  22562193.8254   22562191.1414
        53.0004         46.0004
  20873795.3434   -4629506.78144  -3587880.34542  20873796.2784   20873794.5354
        59.0004         51.0004
  24174893.0104    1189030.28043    913666.46542  24174894.9974   24174892.1454
        50.0004         42.0004
  23615932.0784   -7462214.14943  -5801449.74742  23615934.1514   23615930.8954
        48.0004         42.0004
  20437446.8804   -2188681.65444  -1701166.24442  20437448.0854   20437443.9454
        59.0004         53.0004
  22843671.3424   -9812494.30443  -7628003.80842  22843672.4044   22843670.5554
        51.0004         44.0004
 05 10 14  2 14  0.0010000  0  7G 9G 4G 5G17G10G 2G30
  22977908.5514    5337197.06643   4155377.03442  22977909.6774   22977908.2144
        52.0004         45.0004
  22579016.8064   18428048.91443  14352262.82642  22579019.0654   22579016.0774
        53.0004         46.0004
  20865660.5504   -4672255.46744  -3621191.00242  20865661.6104   20865659.4974
        59.0004         51.0004
  24188485.1654    1260456.00443    969322.88042  24188487.8834   24188483.5034
        50.0004         42.0004
  23597104.4924   -7561156.99443  -5878548.00642  23597105.0384   23597104.2514
        49.0004         42.0004
  20439549.8404   -2177632.34944  -1692556.38142  20439551.1874   20439546.2844
        59.0004         53.0004
  22826244.7794   -9904070.79343  -7699362.08342  22826246.4144   22826244.0714
        51.0004         44.0004
 05 10 14  2 14 30.0010000  0  7G 9G 4G 5G17G10G 2G30
  22994564.5884    5424725.32443   4223580.86442  22994566.4344   22994564.8994
        52.0004         45.0004
  22595887.9544   18516706.15943  14421346.39542  22595889.0354   22595886.4684
        53.0004         46.0004
  20857608.5564   -4714569.09044  -3654162.65442  20857609.4814   20857607.4054
        59.0004         51.0004
  24202085.4104    1331928.09043   1025015.41442  24202088.5144   24202083.9294
        50.0004         41.0004
  23578298.2524   -7659982.89643  -5955555.15042  23578298.9034   23578296.6974
        48.0004         42.0004
  20441750.7484   -2166064.98444  -1683542.84042  20441752.0434   20441747.4424
        59.0004         53.0004
  22808855.4944   -9995451.13943  -7770567.51642  22808857.2904   22808855.7134
        52.0004         44.0004
 05 10 14  2 15  0.0010000  0  7G 9G 4G 5G17G10G 2G30
  23011268.6544    5512506.42243   4291981.71742  23011270.0734   23011268.2144
        52.0004         45.0004
  22612803.9574   18605602.74643  14490616.46842  22612806.0744   22612803.6234
        52.0004         45.0004
  20849639.5964   -4756445.52444  -3686793.63442  20849640.6194   20849638.6964
        59.0004         51.0004
  24215694.6334    1403446.36343   1080743.95042  24215695.5644   24215694.9584
        49.0004         42.0004
  23559515.3544   -7758688.20443  -6032468.33242  23559517.0294   23559515.1914
        49.0004         42.0004
  20444050.2954   -2153980.65844  -1674126.46842  20444051.7894   20444047.0704
        59.0004         53.0004
  22791504.1464  -10086632.79343  -7841618.12942  22791506.8664   22791504.2504
        51.0004         44.0004
 05 10 14  2 15 30.0010000  0  7G 9G 4G 5G17G10G 2G30
  23028019.7014    5600535.90343   4360576.10942  23028021.9784   23028020.1744
        52.0004         45.0004
  22629765.7434   18694734.92243  14560070.10742  22629767.5554   22629764.9614
        53.0004         46.0004
  20841754.2724   -4797884.19044  -3719083.49642  20841755.0984   20841753.2674
        59.0004         51.0004
  24229312.3394    1475009.87343   1136507.72942  24229313.3584   24229312.3094
        49.0004         42.0004
  23540755.7394   -7857270.67543  -6109285.79442  23540757.0634   23540755.8764
        49.0004         42.0004
  20446447.8914   -2141381.65744  -1664309.05442  20446449.3214   20446444.4314
        59.0004         53.0004
  22774191.1484  -10177614.57643  -7912512.99742  22774194.1474   22774190.1094
        51.0004         44.0004
 05 10 14  2 16  0.0010000  0  7G 9G 4G 5G17G10G 2G30
  23044818.0034    5688810.75043   4429361.69942  23044819.3504   23044819.6444
        52.0004         45.0004
  22646771.2604   18784100.10643  14629705.30742  22646772.9244   22646770.3394
        53.0004         45.0004
  20833952.2804   -4838882.88044  -3751030.51842  20833953.6434   20833951.2384
        59.0004         51.0004
  24242939.9014    1546619.02243   1192307.07942  24242939.2394   24242936.1264
        49.0004         41.0004
  23522019.8864   -7955726.77243  -6186004.77542  23522022.2124   23522020.4834
        48.0004         42.0004
  20448943.2834   -2128269.04244  -1654091.42042  20448944.4104   20448939.7784
        59.0004         53.0004
  22756915.9494  -10268393.78243  -7983250.00042  22756917.1734   22756914.9454
        52.0004         44.0004
 05 10 14  2 16 30.0010000  0  7G 9G 4G 5G17G10G 2G30
  23061662.9744    5777329.11143   4498337.03942  23061664.2384   23061663.2324
        52.0004         45.0004
  22663821.1244   18873697.26243  14699521.28942  22663822.7594   22663820.1894
        53.0004         45.0004
  20826234.9304   -4879438.27744  -3782632.11942  20826235.9634   20826233.7544
        59.0004         51.0004
  24256576.1694    1618275.10243   1248142.97942  24256577.3714   24256573.5034
        49.0004         42.0004
  23503309.5454   -8054051.80443  -6262621.63242  23503309.3184   23503309.7454
        49.0004         42.0004
  20451535.9164   -2114642.87344  -1643473.61442  20451537.2104   20451532.8494
        59.0004         53.0004
  22739680.5904  -10358966.74643  -8053826.30842  22739682.5144   22739679.2344
        51.0004         44.0004
 05 10 14  2 17  0.0010000  0  7G 9G 4G 5G17G10G 2G30
  23078552.3294    5866085.39643   4567497.77942  23078553.9594   23078553.0384
        52.0004         45.0004
  22680914.3534   18963521.14843  14769513.92342  22680915.7094   22680912.8604
        53.0004         46.0004
  20818601.8684   -4919551.06744  -3813888.83242  20818602.7164   20818600.9214
        59.0004         51.0004
  24270220.2294    1689975.64643   1304013.54642  24270221.6164   24270218.5094
        49.0004         42.0004
  23484623.0784   -8152245.15943  -6339135.87842  23484624.8444   23484623.0434
        49.0004         42.0004
  20454225.9994   -2100506.77344  -1632458.46142  20454227.1664   20454222.8514
        59.0004         53.0004
  22722484.4614  -10449333.59243  -8124242.00242  22722486.3064   22722483.4414
        52.0004         44.0004
 05 10 14  2 17 30.0010000  0  7G 9G 4G 5G17G10G 2G30
  23095487.2194    5955076.86343   4636841.76642  23095487.8654   23095486.5454
        52.0004         45.0004
  22698049.5444   19053569.58543  14839681.53942  22698051.1664   22698049.7234
        53.0004         45.0004
  20811053.2204   -4959218.90144  -3844798.82842  20811053.9404   20811052.2314
        59.0004         51.0004
  24283872.7164    1761721.22843   1359919.16342  24283874.5504   24283870.9224
        48.0004         42.0004
  23465964.6234   -8250302.87443  -6415544.43442  23465964.0124   23465963.6644
        48.0004         42.0004
  20457012.8074   -2085861.17344  -1621046.29642  20457014.1614   20457009.7644
        59.0004         53.0004
  22705328.0534  -10539491.32443  -8194494.74142  22705329.8844   22705327.2514
        52.0004         44.0004
 05 10 14  2 18  0.0010000  0  7G 9G 4G 5G17G10G 2G30
  23112465.8944    6044301.24443   4706367.25442  23112466.8974   23112466.3434
        52.0004         45.0004
  22715228.0854   19143841.21543  14910023.07342  22715229.9384   22715227.4634
        53.0004         45.0004
  20803589.8104   -4998439.02244  -3875359.95542  20803590.6114   20803588.8624
        59.0004         51.0004
  24297534.4384    1833513.01043   1415860.78442  24297534.8884   24297531.0634
        48.0004         42.0004
  23447330.8384   -8348220.81843  -6491844.08042  23447332.6374   23447330.9994
        49.0004         42.0004
  20459896.6124   -2070706.58644  -1609237.52042  20459897.9834   20459893.5444
        59.0004         53.0004
  22688211.8824  -10629436.54143  -8264581.90042  22688213.3964   22688212.0214
        52.0004         44.0004
 05 10 14  2 18 30.0010000  0  7G 9G 4G 5G17G10G 2G30
  23129488.5734    6133757.46643   4776073.39042  23129490.9184   23129489.5174
        52.0004         45.0004
  22732447.9964   19234335.53343  14980538.12442  22732450.0654   22732447.7024
        53.0004         45.0004
  20796212.3794   -5037207.33944  -3905569.02642  20796213.3534   20796211.4614
        59.0004         51.0004
  24311205.1304    1905353.04043   1471840.00042  24311206.4674   24311203.2974
        48.0004         42.0004
  23428725.3304   -8445993.50143  -6568030.53842  23428726.8824   23428725.0644
        49.0004         42.0004
  20462877.4974   -2055042.15344  -1597031.45842  20462879.0364   20462874.5144
        59.0004         53.0004
  22671137.0334  -10719164.71043  -8334499.92842  22671138.9864   22671135.8134
        52.0004         44.0004
 05 10 14  2 19  0.0010000  0  7G 9G 4G 5G17G10G 2G30
  23146554.8014    6223438.39343   4845954.62742  23146555.7034   23146555.0474
        52.0004         45.0004
  22749710.1954   19325046.12443  15051221.72142  22749712.4264   22749709.1994
        54.0004         45.0004
  20788920.7284   -5075525.85944  -3935427.60542  20788921.6364   20788919.7454
        59.0004         51.0004
  24324884.1844    1977237.64643   1527853.95742  24324885.2354   24324881.7424
        47.0004         42.0004
  23410146.6454   -8543621.24743  -6644104.05642  23410147.4954   23410146.9164
        49.0004         42.0004
  20465954.7024   -2038873.04644  -1584432.14542  20465955.9004   20465951.1784
        59.0004         53.0004
  22654103.2244  -10808677.18043  -8404249.87542  22654104.7564   22654102.9434
        52.0004         44.0004
 05 10 14  2 19 30.0010000  0  7G 9G 4G 5G17G10G 2G30
  23163662.2614    6313341.68143   4916009.13042  23163664.5764   23163663.3604
        52.0004         45.0004
  22767012.5414   19415971.25543  15122072.47142  22767014.7634   22767011.9514
        53.0004         45.0004
  20781715.0854   -5113391.86344  -3964933.57642  20781716.0554   20781713.9614
        59.0004         52.0004
  24338571.7584    2049167.69043   1583903.33342  24338573.3994   24338571.1724
        47.0004         42.0004
  23391597.4834   -8641099.75043  -6720061.28242  23391597.2504   23391597.3904
        49.0004         42.0004
  20469127.2284   -2022199.46444  -1571439.73642  20469128.7044   20469124.1704
        59.0004         53.0004
  22637111.0504  -10897970.73643  -8473829.24142  22637113.5054   22637110.3074
        52.0004         44.0004
 05 10 14  2 20  0.0010000  0  6G 9G 4G 5G10G 2G30
  23180812.6244    6403467.10143   4986236.72242  23180814.1514   23180812.6164
        52.0004         45.0004
  22784355.6024   19507111.08843  15193090.52942  22784358.1124   22784354.9664
        53.0004         45.0004
  20774596.3224   -5150800.83344  -3994083.41642  20774597.3024   20774595.3634
        59.0004         52.0004
  23373077.8034   -8738422.93543  -6795897.49742  23373078.0114   23373076.8104
        50.0004         42.0004
  20472396.3734   -2005020.22244  -1558053.30642  20472397.6994   20472393.2064
        59.0004         53.0004
  22620162.0964  -10987040.15443  -8543233.94742  22620164.1624   22620161.4164
        52.0004         44.0004
 05 10 14  2 20 30.0010000  0  6G 9G 4G 5G10G 2G30
  23198004.1334    6493807.65843   5056631.95642  23198005.5514   23198004.3224
        51.0004         45.0004
  22801738.4404   19598459.56843  15264271.16642  22801740.5804   22801738.4314
        52.0004         45.0004
  20767564.2784   -5187754.53644  -4022878.50442  20767565.3114   20767563.2714
        59.0004         52.0004
  23354587.0034   -8835590.97243  -6871612.79042  23354588.1924   23354586.8274
        49.0004         43.0004
  20475760.9284   -1987339.99144  -1544276.49142  20475762.1874   20475757.4964
        59.0004         53.0004
  22603254.9534  -11075886.58443  -8612464.91142  22603256.6904   22603253.7494
        52.0004         44.0004
 05 10 14  2 21  0.0010000  0  6G 9G 4G 5G10G 2G30
  23215234.9224    6584355.35243   5127188.58642  23215236.9854   23215235.3524
        51.0004         45.0004
  22819159.7394   19690009.19243  15335608.53142  22819161.7834   22819159.7924
        52.0004         45.0004
  20760618.1764   -5224256.07244  -4051321.25742  20760619.2504   20760617.1024
        59.0004         52.0004
  23336126.2824   -8932605.67343  -6947208.61842  23336127.4304   23336127.6094
        50.0004         43.0004
  20479219.3844   -1969165.19344  -1530114.29942  20479220.6974   20479215.9474
        59.0004         53.0004
  22586390.2364  -11164512.43543  -8681523.99142  22586392.2944   22586389.4974
        52.0004         44.0004
 05 10 14  2 21 30.0010000  0  6G 9G 4G 5G10G 2G30
  23232507.1634    6675120.87643   5197914.96342  23232508.2274   23232507.1334
        51.0004         45.0004
  22836621.8754   19781771.55043  15407111.66642  22836623.8054   22836621.2364
        52.0004         45.0004
  20753761.3994   -5260289.63344  -4079399.35242  20753762.3724   20753760.2324
        59.0004         52.0004
  23317696.9994   -9029449.54943  -7022671.34142  23317698.2474   23317696.3604
        50.0004         43.0004
  20482774.3724   -1950483.27044  -1515556.94742  20482775.6504   20482770.9844
        58.0004         53.0004
  22569570.1664  -11252901.26243  -8750398.37842  22569572.4654   22569570.1924
        52.0004         45.0004
 05 10 14  2 22  0.0010000  0  6G 9G 4G 5G10G 2G30
  23249817.8224    6766091.09443   5268800.83242  23249820.1744   23249817.9534
        52.0004         45.0004
  22854121.5524   19873733.59343  15478770.40542  22854123.6544   22854120.8884
        52.0004         45.0004
  20746991.8334   -5295863.65344  -4107119.36642  20746992.7594   20746990.6214
        59.0004         52.0004
  23299298.6604   -9126129.38043  -7098006.23542  23299301.6914   23299300.1634
        50.0004         43.0004
  20486423.8594   -1931305.50644  -1500613.22442  20486425.1304   20486420.6194
        59.0004         53.0004
  22552794.1624  -11341060.74643  -8819094.06142  22552795.7414   22552793.4854
        52.0004         45.0004
 05 10 14  2 22 30.0010000  0  6G 9G 4G 5G10G 2G30
  23267168.2684    6857267.28043   5339847.20442  23267170.1594   23267167.5714
        51.0004         45.0004
  22871659.8184   19965897.91043  15550586.75442  22871662.3964   22871659.4944
        51.0004         45.0004
  20740311.1164   -5330971.64044  -4134476.23842  20740311.9524   20740309.7194
        60.0004         52.0004
  23280934.8044   -9222637.20043  -7173207.08342  23280935.2234   23280935.4684
        50.0004         43.0004
  20490167.9964   -1911628.81244  -1485280.72642  20490169.4214   20490164.9414
        59.0004         52.0004
  22536062.7724  -11428983.77243  -8887605.48242  22536064.9594   22536062.9714
        52.0004         45.0004
 05 10 14  2 23  0.0010000  0  6G 9G 4G 5G10G 2G30
  23284556.2894    6948641.92943   5411048.22242  23284557.5254   23284557.2594
        52.0004         44.0004
  22889235.1954   20058257.42343  15622555.20042  22889236.4774   22889233.6494
        52.0004         45.0004
  20733718.4584   -5365616.13444  -4161471.94342  20733719.4034   20733717.4194
        59.0004         52.0004
  23262602.1874   -9318973.98443  -7248274.67042  23262603.3604   23262601.4234
        50.0004         43.0004
  20494006.3384   -1891458.68744  -1469563.73842  20494007.7814   20494003.0754
        59.0004         53.0004
  22519376.5864  -11516672.09743  -8955934.03142  22519378.0444   22519375.7184
        52.0004         45.0004
 05 10 14  2 23 30.0010000  0  6G 9G 4G 5G10G 2G30
  23301983.0244    7040217.15743   5482405.52642  23301983.8874   23301981.8924
        51.0004         44.0004
  22906848.7394   20150814.90143  15694677.90542  22906849.6034   22906847.3404
        52.0004         44.0004
  20727215.1034   -5399790.26944  -4188101.13442  20727216.2084   20727214.1894
        59.0004         52.0004
  23244303.3214   -9415131.22243  -7323202.35542  23244304.9674   23244304.3494
        50.0004         43.0004
  20497939.1334   -1870791.48744  -1453459.41942  20497940.5604   20497936.1194
        59.0004         53.0004
  22502735.6644  -11604118.14143  -9024073.78742  22502738.6514   22502735.2604
        53.0004         45.0004
 05 10 14  2 24  0.0010000  0  6G 9G 4G 5G10G 2G30
  23319445.0464    7131985.12743   5553913.02942  23319446.8004   23319446.5174
        51.0004         44.0004
  22924497.4764   20243563.16343  15766949.28442  22924499.0264   22924497.2414
        51.0004         44.0004
  20720801.1054   -5433496.80044  -4214365.96342  20720802.0804   20720800.0734
        59.0004         52.0004
  23226040.6004   -9511110.11543  -7397991.06842  23226040.1304   23226040.5074
        50.0004         43.0004
  20501965.4754   -1849633.21844  -1436972.45042  20501966.7894   20501962.3014
        58.0004         53.0004
  22486140.9154  -11691324.01943  -9092026.40642  22486142.9724   22486140.0004
        53.0004         45.0004
 05 10 14  2 24 30.0010000  0  6G 9G 4G 5G10G 2G30
  23336946.2784    7223952.43543   5625575.85242  23336948.1044   23336946.1654
        51.0004         44.0004
  22942184.6284   20336509.71943  15839375.16542  22942185.6474   22942184.5184
        51.0004         45.0004
  20714478.0544   -5466724.18344  -4240257.42942  20714479.0074   20714476.9914
        59.0004         52.0004
  23207811.6454   -9606897.39343  -7472630.47642  23207812.7604   23207812.1974
        50.0004         43.0004
  20506086.7264   -1827975.38744  -1420096.20642  20506088.2064   20506083.6934
        58.0004         52.0004
  22469594.2264  -11778277.28943  -9159782.18042  22469595.7264   22469593.9264
        53.0004         45.0004
 05 10 14  2 25  0.0010000  0  6G 9G 4G 5G10G 2G30
  23354480.8274    7316097.40043   5697377.11842  23354482.2014   23354480.9534
        51.0004         44.0004
  22959905.5614   20429633.52543  15911939.16642  22959908.1994   22959905.8704
        51.0004         44.0004
  20708243.0574   -5499489.25844  -4265788.65242  20708244.0144   20708242.0864
        59.0004         52.0004
  23189617.9954   -9702508.10043  -7547132.28542  23189618.6294   23189617.0914
        50.0004         43.0004
  20510299.3764   -1805838.23544  -1402846.46842  20510300.7094   20510296.1554
        59.0004         52.0004
  22453093.0294  -11864993.96443  -9227353.59442  22453094.0854   22453091.9694
        53.0004         45.0004
 05 10 14  2 25 30.0010000  0  6G 9G 4G 5G10G 2G30
  23372050.7404    7408428.98243   5769323.79642  23372052.6554   23372050.7924
        51.0004         44.0004
  22977662.3624   20522943.92543  15984648.56042  22977663.7294   22977662.3374
        52.0004         45.0004
  20702098.5194   -5531778.34044  -4290948.97542  20702099.7604   20702097.6714
        59.0004         52.0004
  23171460.5814   -9797926.80043  -7621484.47742  23171461.3754   23171460.2814
        51.0004         43.0004
  20514605.1714   -1783210.97844  -1385214.82642  20514606.4134   20514601.9804
        59.0004         52.0004
  22436639.0304  -11951459.47143  -9294729.29742  22436641.4144   22436638.0044
        53.0004         45.0004
 05 10 14  2 26  0.0010000  0  6G 9G 4G 5G10G 2G30
  23389655.1344    7500940.63543   5841410.79242  23389656.0574   23389655.8314
        51.0004         44.0004
  22995452.6504   20616435.36143  16057499.03542  22995454.3694   22995451.1084
        51.0004         44.0004
  20696044.6084   -5563592.95044  -4315739.57742  20696045.4424   20696043.4134
        59.0004         52.0004
  23153339.2794   -9893153.45943  -7695687.04342  23153340.7884   23153339.9664
        51.0004         43.0004
  20519003.4514   -1760098.29044  -1367204.93142  20519004.5874   20519000.0354
        59.0004         52.0004
  22420232.7854  -12037674.71543  -9361909.99142  22420235.0234   22420231.2754
        53.0004         45.0004
 05 10 14  2 26 30.0010000  0  6G 9G 4G 5G10G 2G30
  23407293.6124    7593630.93943   5913636.98942  23407295.3894   23407293.1164
        51.0004         44.0004
  23013278.3434   20710107.15343  16130490.05442  23013279.8474   23013276.7084
        52.0004         44.0004
  20690081.1944   -5594929.58844  -4340157.73242  20690082.4054   20690080.3304
        59.0004         52.0004
  23135255.7214   -9988182.92943  -7769735.94542  23135256.6944   23135256.4274
        50.0004         43.0004
  20523494.0674   -1736499.97944  -1348816.63042  20523495.4074   20523490.8094
        58.0004         52.0004
  22403875.0414  -12123635.36343  -9428892.29442  22403876.6954   22403874.2524
        53.0004         45.0004
 05 10 14  2 27  0.0010000  0  6G 9G 4G 5G10G 2G30
  23424965.7134    7686496.98743   5986000.13442  23424967.3914   23424965.0204
        51.0004         44.0004
  23031136.7204   20803957.13143  16203619.89942  23031138.3304   23031137.1944
        51.0004         44.0004
  20684209.5634   -5625786.33444  -4364201.94442  20684210.4674   20684208.5834
        59.0004         52.0004
  23117210.1724  -10083011.58843  -7843628.38042  23117211.8804   23117209.8104
        50.0004         43.0004
  20528076.8764   -1712417.22644  -1330050.84042  20528078.1824   20528073.5724
        59.0004         52.0004
  22387566.2804  -12209338.58843  -9495674.01242  22387568.2984   22387565.6754
        53.0004         45.0004
 05 10 14  2 27 30.0010000  0  6G 9G 4G 5G10G 2G30
  23442670.2504    7779535.35543   6058497.56242  23442672.0434   23442670.4704
        51.0004         44.0004
  23049029.5684   20897982.63143  16276886.51742  23049030.7624   23049028.1524
        52.0004         44.0004
  20678429.3154   -5656161.83644  -4387871.16442  20678430.4194   20678428.2514
        59.0004         52.0004
  23099203.8764  -10177636.06543  -7917361.71042  23099204.0084   23099203.2684
        50.0004         43.0004
  20532751.2904   -1687852.05744  -1310909.14442  20532752.7594   20532748.3344
        59.0004         52.0004
  22371306.8464  -12294782.11543  -9562253.36842  22371308.8414   22371306.1614
        53.0004         45.0004
 05 10 14  2 28  0.0010000  0  6G 9G 4G 5G10G 2G30
  23460405.9994    7872740.22443   6131124.71642  23460408.0864   23460406.6544
        51.0004         44.0004
  23066954.5424   20992178.42943  16350285.86142  23066955.6944   23066953.3024
        52.0004         44.0004
  20672740.5694   -5686057.13144  -4411166.19942  20672741.3684   20672739.6514
        59.0004         52.0004
  23081236.3194  -10272055.79943  -7990935.49242  23081236.8064   23081236.5684
        50.0004         44.0004
  20537517.2094   -1662808.55044  -1291394.71742  20537518.4434   20537513.8364
        59.0004         52.0004
  22355096.6424  -12379966.15443  -9628630.53142  22355098.1644   22355095.6734
        53.0004         45.0004
 05 10 14  2 28 30.0010000  0  6G 9G 4G 5G10G 2G30
  23478174.5944    7966113.51043   6203883.10642  23478176.3964   23478175.1324
        51.0004         44.0004
  23084912.2054   21086547.28843  16423820.02042  23084914.2624   23084912.1514
        52.0004         44.0004
  20667144.1514   -5715465.38344  -4434081.72142  20667145.0924   20667142.9894
        59.0004         52.0004
  23063309.6294  -10366262.40043  -8064343.20742  23063309.4914   23063309.5984
        51.0004         44.0004
  20542374.3794   -1637282.93744  -1271504.62542  20542375.8134   20542371.2094
        58.0004         52.0004
  22338937.9124  -12464882.98843  -9694799.48242  22338940.3764   22338936.3234
        53.0004         45.0004
 05 10 14  2 29  0.0010000  0  6G 9G 4G 5G10G 2G30
  23495973.1834    8059644.56543   6276764.44542  23495974.4254   23495973.3904
        50.0004         44.0004
  23102901.1224   21181079.12343  16497481.21442  23102902.3244   23102898.3204
        52.0004         44.0004
  20661639.6304   -5744392.61744  -4456622.42142  20661640.4664   20661638.2334
        59.0004         52.0004
  23045422.4064  -10460259.79743  -8137587.90442  23045423.2144   23045421.8624
        51.0004         44.0004
  20547321.4184   -1611284.38344  -1251246.00342  20547322.9204   20547318.4254
        58.0004         52.0004
  22322828.3544  -12549537.71743  -9760764.18942  22322830.4244   22322826.5144
        53.0004         46.0004
 05 10 14  2 29 30.0010000  0  6G 9G 4G 5G10G 2G30
  23513802.9904    8153339.87843   6349773.76642  23513804.2064   23513802.7854
        51.0004         44.0004
  23120921.6994   21275781.32643  16571275.13742  23120924.0864   23120921.9124
        51.0004         44.0004
  20656228.3324   -5772827.53044  -4478779.49242  20656229.2644   20656227.3484
        59.0004         52.0004
  23027578.1204  -10554035.09243  -8210659.53442  23027577.6284   23027577.2054
        51.0004         44.0004
  20552360.5424   -1584804.83144  -1230612.57742  20552361.9334   20552357.0894
        59.0004         52.0004
  22306771.1134  -12633918.13143  -9826515.14842  22306773.2714   22306770.6374
        53.0004         46.0004
 05 10 14  2 30  0.0010000  0  6G 9G 4G 5G10G 2G30
  23531661.2854    8247186.03143   6422900.63842  23531662.4824   23531661.2354
        51.0004         44.0004
  23138973.7034   21370641.39943  16645192.06242  23138976.2144   23138972.6404
        51.0004         44.0004
  20650909.7314   -5800778.73444  -4500559.65042  20650910.4714   20650908.5404
        59.0004         52.0004
  23009773.9524  -10647594.98543  -8283563.31242  23009773.8904   23009773.0904
        51.0004         44.0004
  20557489.0484   -1557855.95344  -1209613.44542  20557490.1964   20557485.4864
        59.0004         52.0004
  22290765.2234  -12718031.65143  -9892058.13742  22290766.7684   22290764.1534
        53.0004         46.0004
 05 10 14  2 30 30.0010000  0  6G 9G 4G 5G10G 2G30
  23549549.5134    8341187.84743   6496148.78142  23549549.8224   23549548.4144
        51.0004         44.0004
  23157055.5774   21465664.66243  16719236.16442  23157058.0334   23157055.8044
        50.0004         44.0004
  20645684.4404   -5828236.69744  -4521955.46542  20645685.5954   20645683.5144
        59.0004         52.0004
  22992013.3564  -10740928.17643  -8356290.44142  22992013.6514   22992013.7924
        51.0004         44.0004
  20562707.6374   -1530431.50344  -1188243.73942  20562708.9604   20562704.2394
        59.0004         52.0004
  22274811.6374  -12801868.04443  -9957385.18842  22274813.5784   22274811.0214
        54.0004         46.0004
 05 10 14  2 31  0.0010000  0  6G 9G 4G 5G10G 2G30
  23567465.4394    8435337.70543   6569512.29642  23567466.6374   23567465.0894
        51.0004         44.0004
  23175167.8394   21560844.33843  16793402.14242  23175169.3654   23175167.8944
        50.0004         44.0004
  20640552.7274   -5855204.36544  -4542969.23442  20640553.6324   20640551.6714
        59.0004         52.0004
  22974294.9824  -10834035.74143  -8428841.76342  22974296.3884   22974294.0684
        51.0004         44.0004
  20568015.3464   -1502537.72244  -1166508.32242  20568016.7714   20568012.0944
        58.0004         52.0004
  22258910.2754  -12885429.27643 -10022497.82542  22258911.9024   22258909.6314
        53.0004         46.0004
 05 10 14  2 31 30.0010000  0  6G 9G 4G 5G10G 2G30
  23585409.3354    8529633.81543   6642989.77442  23585410.7324   23585409.4294
        51.0004         44.0004
  23193309.8964   21656179.18943  16867689.02542  23193311.4904   23193310.5304
        51.0004         44.0004
  20635514.8274   -5881678.85944  -4563598.71042  20635515.7014   20635513.7784
        59.0004         52.0004
  22956620.9054  -10926912.89043  -8501213.53642  22956622.4674   22956620.6054
        51.0004         44.0004
  20573412.7004   -1474174.68044  -1144407.24642  20573414.1824   20573409.5534
        58.0004         52.0004
  22243062.4024  -12968711.37643 -10087392.95142  22243064.4724   22243061.8334
        54.0004         46.0004
 05 10 14  2 32  0.0010000  0  6G 9G 4G 5G10G 2G30
  23603380.0024    8624072.80243   6716578.58642  23603380.3324   23603381.0914
        51.0004         44.0004
  23211480.2584   21751666.68343  16942094.87642  23211482.3844   23211480.0144
        51.0004         43.0004
  20630570.8354   -5907659.01744  -4583842.98942  20630571.8064   20630569.7764
        59.0004         52.0004
  22938992.0924  -11019556.45943  -8573403.30342  22938992.3574   22938991.4984
        51.0004         44.0004
  20578899.0444   -1445344.41744  -1121942.10042  20578900.2874   20578895.9604
        58.0004         52.0004
  22227267.8024  -13051712.11043 -10152068.83942  22227269.9414   22227267.0894
        54.0004         46.0004
 05 10 14  2 32 30.0010000  0  6G 9G 4G 5G10G 2G30
  23621378.0584    8718652.19743   6790276.81542  23621379.7254   23621377.8334
        50.0004         44.0004
  23229679.9034   21847305.26743  17016618.45642  23229682.6964   23229679.3244
        51.0004         44.0004
  20625721.6124   -5933142.47444  -4603700.22342  20625722.6044   20625720.7314
        59.0004         52.0004
  22921407.5024  -11111962.40343  -8645407.90042  22921408.2784   22921407.2884
        51.0004         44.0004
  20584473.9904   -1416047.86644  -1099113.61342  20584475.2654   20584470.6604
        58.0004         52.0004
  22211527.4674  -13134428.18943 -10216522.91742  22211529.0884   22211526.8284
        54.0004         46.0004
 05 10 14  2 33  0.0010000  0  6G 9G 4G 5G10G 2G30
  23639402.4394    8813369.98843   6864082.88142  23639403.8194   23639403.6944
        51.0004         44.0004
  23247907.3714   21943093.80043  17091258.86542  23247908.7704   23247906.5374
        50.0004         43.0004
  20620967.2394   -5958126.50844  -4623168.29442  20620968.2734   20620966.4324
        59.0004         52.0004
  22903869.2954  -11204126.28943  -8717223.88342  22903869.8944   22903868.6544
        51.0004         44.0004
  20590137.7344   -1386285.21344  -1075921.92742  20590139.1124   20590134.2544
        58.0004         52.0004
  22195841.8874  -13216855.72943 -10280752.15442  22195843.6444   22195840.8404
        54.0004         46.0004
 05 10 14  2 33 30.0010000  0  6G 9G 4G 5G10G 2G30
  23657451.4054    8908217.72543   6937990.21042  23657453.7884   23657451.5114
        51.0004         44.0004
  23266162.7434   22039024.79043  17166010.28742  23266164.5244   23266162.4604
        51.0004         43.0004
  20616307.1294   -5982614.93644  -4642250.18442  20616308.1674   20616306.1434
        59.0004         52.0004
  22886376.4984  -11296049.67143  -8788852.46942  22886377.5094   22886375.9064
        51.0004         44.0004
  20595888.5754   -1356063.64044  -1052372.64442  20595889.9574   20595885.2114
        58.0004         52.0004
  22180210.9714  -13298997.58643 -10344758.78942  22180212.7494   22180210.0674
        54.0004         46.0004
 05 10 14  2 34  0.0010000  0  6G 9G 4G 5G10G 2G30
  23675525.7964    9003198.32243   7012001.05442  23675527.8384   23675526.0424
        51.0004         43.0004
  23284445.4504   22135101.63143  17240875.34842  23284448.1814   23284445.3484
        51.0004         43.0004
  20611743.0644   -6006600.25144  -4660940.03642  20611744.1154   20611741.9524
        59.0004         52.0004
  22868931.8694  -11387723.26543  -8860286.41142  22868933.5134   22868931.0994
        51.0004         44.0004
  20601727.6244   -1325378.78544  -1028462.35842  20601729.0764   20601724.2434
        58.0004         52.0004
  22164635.8514  -13380845.04543 -10408536.01242  22164637.6584   22164635.9594
        54.0004         46.0004
 05 10 14  2 34 30.0010000  0  6G 9G 4G 5G10G 2G30
  23693623.6184    9098304.17743   7086109.50642  23693625.2794   23693623.9384
        51.0004         43.0004
  23302754.9814   22231317.67743  17315848.90142  23302757.1364   23302753.6594
        51.0004         43.0004
  20607273.7884   -6030085.47444  -4679240.21142  20607274.9434   20607272.5604
        59.0004         52.0004
  22851534.6714  -11479148.17443  -8931526.56842  22851535.4284   22851533.9394
        52.0004         44.0004
  20607653.9334   -1294236.64444  -1004195.74842  20607655.2424   20607650.4244
        58.0004         52.0004
  22149116.5534  -13462400.07943 -10472085.37642  22149118.2264   22149115.7114
        54.0004         46.0004
 05 10 14  2 35  0.0010000  0  6G 9G 4G 5G10G 2G30
  23711745.5224    9193533.53843   7160314.20642  23711747.1184   23711745.4494
        51.0004         43.0004
  23321089.9884   22327671.81943  17390930.05442  23321091.6284   23321089.7894
        50.0004         43.0004
  20602900.4854   -6053067.85844  -4697148.56142  20602901.4204   20602899.2054
        59.0004         52.0004
  22834185.3944  -11570319.72643  -9002569.31042  22834185.8094   22834184.4574
        51.0004         44.0004
  20613666.8784   -1262637.60844   -979573.11942  20613668.2354   20613663.6314
        58.0004         52.0004
  22133653.4234  -13543658.90343 -10535403.93342  22133655.3314   22133652.3984
        54.0004         46.0004
 05 10 14  2 35 30.0010000  0  6G 9G 4G 5G10G 2G30
  23729890.3044    9288888.16243   7234616.51142  23729892.4644   23729889.9374
        51.0004         43.0004
  23339452.1694   22424166.31843  17466120.56542  23339455.0774   23339451.7704
        49.0004         42.0004
  20598623.7644   -6075541.38944  -4714660.39942  20598624.9574   20598622.8814
        59.0004         52.0004
  22816885.3884  -11661229.84743  -9073408.34342  22816885.6124   22816884.5164
        52.0004         44.0004
  20619767.3254   -1230578.83944   -954592.25642  20619768.7764   20619764.2834
        58.0004         52.0004
  22118248.0064  -13624614.42343 -10598486.14542  22118249.6844   22118246.9534
        54.0004         47.0004
 05 10 14  2 36  0.0010000  0  6G 9G 4G 5G10G 2G30
  23748057.9324    9384357.21443   7309007.97642  23748059.7044   23748057.8734
        51.0004         43.0004
  23357839.5774   22520791.42843  17541412.85342  23357841.5974   23357838.6844
        49.0004         42.0004
  20594443.2554   -6097512.13344  -4731780.46042  20594444.1564   20594441.9534
        59.0004         52.0004
  22799634.9214  -11751882.54943  -9144046.78442  22799635.2424   22799633.6264
        52.0004         45.0004
  20625953.8184   -1198069.45744   -929260.26642  20625955.2554   20625950.5394
        58.0004         52.0004
  22102899.6974  -13705271.33543 -10661335.68442  22102901.7524   22102898.4694
        55.0004         47.0004
 05 10 14  2 36 30.0010000  0  6G 9G 4G 5G10G 2G30
  23766246.9124    9479942.04443   7383489.66142  23766248.1814   23766246.8484
        50.0004         43.0004
  23376251.7444   22617549.19643  17616808.52642  23376253.5014   23376251.1064
        49.0004         42.0004
  20590358.9674   -6118974.32944  -4748504.24842  20590360.1194   20590357.7114
        59.0004         52.0004
  22782434.7604  -11842270.21643  -9214478.70842  22782436.1734   22782435.4164
        52.0004         44.0004
  20632226.3804   -1165107.12344   -903575.32742  20632227.4814   20632222.9874
        58.0004         52.0004
  22087609.1894  -13785622.83343 -10723947.23042  22087611.0364   22087608.3284
        55.0004         47.0004
 05 10 14  2 37  0.0010000  0  6G 9G 4G 5G10G 2G30
  23784456.8064    9575637.62943   7458057.64042  23784458.3514   23784457.0924
        50.0004         43.0004
  23394688.9584   22714435.60443  17692304.42342  23394690.6294   23394687.7624
        50.0004         42.0004
  20586371.2064   -6139928.40244  -4764832.09742  20586372.3344   20586370.5334
        59.0004         52.0004
  22765285.0654  -11932391.12443  -9284702.76842  22765285.9014   22765284.2354
        52.0004         44.0004
  20638584.7044   -1131695.06344   -877539.95042  20638585.6924   20638581.0364
        58.0004         52.0004
  22072377.2104  -13865668.08643 -10786320.14442  22072379.2414   22072376.1954
        54.0004         47.0004
 05 10 14  2 37 30.0010000  0  6G 9G 4G 5G10G 2G30
  23802688.0184    9671442.58743   7532710.84742  23802690.1624   23802688.6874
        49.0004         43.0004
  23413150.2214   22811450.18343  17767900.20642  23413152.3774   23413148.3824
        50.0004         42.0004
  20582481.2524   -6160371.11444  -4780761.47742  20582482.1194   20582480.3654
        59.0004         52.0004
  22748187.1414  -12022240.20343  -9354715.00742  22748187.4454   22748186.5464
        52.0004         45.0004
  20645027.8384   -1097833.42644   -851154.25542  20645029.5164   20645024.8694
        58.0004         52.0004
  22057204.1334  -13945402.86243 -10848451.12842  22057205.9324   22057203.1754
        54.0004         47.0004
 05 10 14  2 38  0.0010000  0  6G 9G 4G 5G10G 2G30
  23820939.4654    9767352.54343   7607445.86642  23820940.5944   23820939.3184
        49.0004         43.0004
  23431635.0964   22908589.42243  17843593.10342  23431636.9184   23431634.6704
        50.0004         43.0004
  20578688.8074   -6180302.55044  -4796292.46442  20578689.7894   20578687.6964
        59.0004         52.0004
  22731141.4804  -12111815.47343  -9424513.89342  22731141.9274   22731139.9684
        52.0004         44.0004
  20651556.4514   -1063525.17644   -824420.55442  20651557.8194   20651553.2624
        58.0004         52.0004
  22042089.7504  -14024825.78143 -10910339.10342  22042091.7284   22042089.1144
        54.0004         46.0004
 05 10 14  2 38 30.0010000  0  6G 9G 4G 5G10G 2G30
  23839209.0534    9863363.23443   7682259.38342  23839211.1664   23839208.2334
        49.0004         43.0004
  23450143.1274   23005849.55343  17919380.22342  23450145.0524   23450143.2224
        50.0004         43.0004
  20574993.0134   -6199722.63744  -4811425.00342  20574994.1944   20574992.0164
        59.0004         52.0004
  22714148.2484  -12201114.72243  -9494097.69442  22714148.8774   22714147.6564
        52.0004         44.0004
  20658169.7334   -1028773.42244   -797341.26242  20658170.9334   20658166.1834
        58.0004         52.0004
  22027036.1364  -14103935.62843 -10971983.12942  22027037.8584   22027035.0574
        54.0004         46.0004
 05 10 14  2 39  0.0010000  0  6G 9G 4G 5G10G 2G30
  23857498.3864    9959472.42943   7757149.65642  23857500.6324   23857498.1094
        49.0004         43.0004
  23468673.7274   23103229.34643  17995260.58342  23468675.5224   23468672.4274
        50.0004         43.0004
  20571395.4584   -6218629.11344  -4826157.32242  20571396.3184   20571394.2084
        59.0004         52.0004
  22697208.7104  -12290133.80243  -9563463.18842  22697208.9244   22697208.1114
        52.0004         45.0004
  20664867.0264    -993579.00444   -769917.04042  20664868.4024   20664863.8144
        58.0004         52.0004
  22012042.0884  -14182728.87443 -11033380.45442  22012043.7254   22012041.6874
        54.0004         47.0004
 05 10 14  2 39 30.0010000  0  7G 6G 9G 4G 5G10G 2G30
  24355089.3064   -5545793.19153  -4288724.96952  24355090.8484   24355088.9204
        46.0004         40.0004
  23875805.9224   10055679.48243   7832116.17942  23875806.8064   23875806.8014
        49.0004         43.0004
  23487227.3614   23200728.91643  18071234.26642  23487229.9354   23487226.5354
        50.0004         43.0004
  20567895.9644   -6237018.23344  -4840486.50142  20567896.8054   20567895.0124
        59.0004         52.0004
  22680323.0334  -12378866.81343  -9632605.77342  22680323.1424   22680322.6974
        52.0004         45.0004
  20671648.7454    -957941.04344   -742147.19942  20671649.9114   20671645.1744
        58.0004         52.0004
  21997109.5384  -14261200.54243 -11094527.19642  21997111.6324   21997108.5474
        55.0004         47.0004
 05 10 14  2 40  0.0010000  0  7G 6G 9G 4G 5G10G 2G30
  24341612.3654   -5616616.05543  -4343911.57242  24341612.9524   24341612.2484
        47.0004         40.0004
  23894130.8384   10151976.55143   7907152.83942  23894131.3354   23894131.4314
        49.0004         43.0004
  23505802.3634   23298341.33843  18147295.87642  23505804.1874   23505802.8184
        50.0004         43.0004
  20564494.1854   -6254893.55744  -4854415.32242  20564495.3424   20564493.4304
        59.0004         52.0004
  22663491.7534  -12467315.04243  -9701526.44642  22663493.1034   22663491.3114
        52.0004         45.0004
  20678513.4714    -921866.28844   -714036.99942  20678514.6064   20678510.0344
        58.0004         52.0004
  21982237.7604  -14339352.85543 -11155425.09142  21982239.2434   21982236.5374
        55.0004         47.0004
 05 10 14  2 40 30.0010000  0  7G 6G 9G 4G 5G10G 2G30
  24328138.1484   -5687423.22843  -4399085.94742  24328138.6854   24328138.7864
        47.0004         40.0004
  23912472.9864   10248365.91943   7982261.42542  23912473.7064   23912474.1494
        49.0004         43.0004
  23524399.4774   23396069.84843  18223447.95942  23524401.3314   23524399.3414
        50.0004         43.0004
  20561191.6454   -6272248.32344  -4867938.51742  20561192.7824   20561190.9434
        59.0004         52.0004
  22646716.5804  -12555469.70343  -9770218.36942  22646718.4464   22646716.2924
        52.0004         45.0004
  20685461.9354    -885351.17644   -685583.66642  20685463.2354   20685458.8214
        58.0004         52.0004
  21967428.3464  -14417177.77543 -11216067.87642  21967429.8614   21967426.7724
        55.0004         47.0004
 05 10 14  2 41  0.0010000  0  7G 6G 9G 4G 5G10G 2G30
  24314665.2554   -5758220.56443  -4454252.66042  24314667.8644   24314665.5594
        46.0004         40.0004
  23930831.3534   10344838.64243   8057434.97342  23930833.3424   23930832.9544
        49.0004         43.0004
  23543017.0614   23493906.16943  18299684.04442  23543019.5534   23543016.8014
        50.0004         43.0004
  20557987.3624   -6289087.27144  -4881059.77442  20557988.4314   20557986.5114
        59.0004         52.0004
  22629997.1494  -12643333.52943  -9838683.66842  22629997.8384   22629995.7774
        52.0004         45.0004
  20692492.7914    -848403.49044   -656793.26142  20692494.2084   20692489.7494
        58.0004         52.0004
  21952680.0394  -14494678.79943 -11276458.27842  21952682.1344   21952678.7534
        55.0004         47.0004
 05 10 14  2 41 30.0010000  0  7G 6G 9G 4G 5G10G 2G30
  24301197.0164   -5829002.61343  -4509407.46242  24301198.2014   24301196.1944
        47.0004         40.0004
  23949205.5794   10441397.18243   8132675.38442  23949207.3764   23949205.8064
        50.0004         43.0004
  23561656.2064   23591853.56943  18376006.68842  23561657.7974   23561656.5894
        50.0004         43.0004
  20554882.6324   -6305403.74044  -4893773.90442  20554883.7444   20554881.5854
        59.0004         52.0004
  22613334.0874  -12730897.53243  -9906915.33642  22613334.7244   22613333.0754
        53.0004         45.0004
  20699606.8174    -811019.39544   -627662.79642  20699608.1264   20699603.8704
        58.0004         52.0004
  21937995.6504  -14571847.75143 -11336589.92442  21937997.5154   21937994.5144
        55.0004         47.0004
 05 10 14  2 42  0.0010000  0  7G 6G 9G 4G 5G10G 2G30
  24287728.6404   -5899771.39443  -4564551.90342  24287730.1284   24287729.1004
        46.0004         40.0004
  23967595.2814   10538036.48543   8207978.71942  23967597.4064   23967594.6314
        50.0004         43.0004
  23580315.1784   23689907.89743  18452412.64242  23580315.9394   23580315.1984
        50.0004         43.0004
  20551876.8504   -6321198.42544  -4906081.45242  20551877.8774   20551876.0144
        59.0004         52.0004
  22596728.1124  -12818160.40343  -9974912.35542  22596728.8604   22596727.8074
        52.0004         45.0004
  20706803.2574    -773202.85944   -598195.36242  20706804.3944   20706800.0064
        58.0004         52.0004
  21923373.9654  -14648684.15743 -11396462.44142  21923375.7254   21923373.2474
        55.0004         47.0004
 05 10 14  2 42 30.0010000  0  7G 6G 9G 4G 5G10G 2G30
  24274264.6474   -5970529.71843  -4619688.21642  24274266.6324   24274265.1674
        46.0004         40.0004
  23985999.5164   10634750.60143   8283340.36242  23986001.0104   23986001.0404
        50.0004         43.0004
  23598994.1964   23788064.13543  18528898.02642  23598996.5354   23598993.2384
        51.0004         43.0004
  20548970.2504   -6336473.03444  -4917983.75042  20548971.3394   20548969.3504
        59.0004         52.0004
  22580180.0534  -12905121.59143 -10042674.30442  22580181.6174   22580178.9734
        52.0004         45.0004
  20714081.1834    -734958.60644   -568394.64342  20714082.4124   20714077.5504
        58.0004         52.0004
  21908815.9494  -14725188.25943 -11456076.02042  21908817.6894   21908815.0164
        55.0004         47.0004
 05 10 14  2 43  0.0010000  0  7G 6G 9G 4G 5G10G 2G30
  24260802.2754   -6041274.61943  -4674814.06842  24260803.5394   24260803.4344
        46.0004         40.0004
  24004417.9164   10731539.31243   8358760.12142  24004420.9064   24004419.5414
        49.0004         43.0004
  23617692.1694   23886322.83143  18605463.25342  23617693.1944   23617691.3544
        50.0004         43.0004
  20546163.4684   -6351223.54544  -4929477.65542  20546164.3214   20546162.6874
        59.0004         52.0004
  22563690.4624  -12991774.79543 -10110196.25042  22563690.9234   22563689.9334
        52.0004         45.0004
  20721440.1324    -696285.54944   -538259.78842  20721441.5274   20721436.5324
        58.0004         52.0004
  21894321.8824  -14801354.64143 -11515426.44142  21894323.5044   21894321.1194
        55.0004         47.0004
 05 10 14  2 43 30.0010000  0  7G 6G 9G 4G 5G10G 2G30
  24247341.7084   -6112005.60043  -4729929.05942  24247345.3844   24247341.2184
        46.0004         40.0004
  24022850.4434   10828400.19143   8434236.12442  24022852.3344   24022851.2904
        50.0004         43.0004
  23636409.2144   23984682.45543  18682107.11042  23636411.3014   23636408.8754
        50.0004         43.0004
  20543456.4524   -6365448.27044  -4940561.85742  20543457.5114   20543455.5634
        59.0004         52.0004
  22547259.8674  -13078116.47343 -10177475.46042  22547261.0504   22547259.5984
        52.0004         45.0004
  20728880.6464    -657184.93144   -507791.76442  20728882.1134   20728877.4064
        58.0004         52.0004
  21879892.5124  -14877180.27743 -11574511.34242  21879894.4984   21879892.0014
        55.0004         47.0004
 05 10 14  2 44  0.0010000  0  7G 6G 9G 4G 5G10G 2G30
  24233884.7284   -6182726.43843  -4785036.15142  24233884.9664   24233884.2384
        46.0004         40.0004
  24041294.5254   10925326.15343   8509762.83542  24041296.6864   24041295.7894
        50.0004         43.0004
  23655144.4564   24083136.96943  18758824.89942  23655145.9624   23655142.5224
        50.0004         42.0004
  20540849.0904   -6379149.95144  -4951238.49442  20540850.0814   20540848.3004
        59.0004         52.0004
  22530889.5444  -13164146.99443 -10244512.20742  22530890.1494   22530889.3924
        53.0004         45.0004
  20736401.6644    -617662.81644   -476995.30742  20736402.9424   20736398.0944
        58.0004         51.0004
  21865528.0284  -14952666.31843 -11633331.61942  21865529.8994   21865527.2724
        55.0004         47.0004
 05 10 14  2 44 30.0010000  0  7G 6G 9G 4G 5G10G 2G30
  24220430.1534   -6253432.68343  -4840131.88142  24220430.0044   24220430.7734
        46.0004         40.0004
  24059752.3194   11022318.78843   8585341.49642  24059753.4064   24059750.7394
        50.0004         43.0004
  23673898.1734   24181688.75943  18835618.50242  23673901.0834   23673896.7494
        49.0004         42.0004
  20538342.7784   -6392322.80544  -4961503.05942  20538343.6214   20538341.4254
        59.0004         52.0004
  22514578.7444  -13249858.68843 -10311300.52142  22514579.6664   22514578.7934
        52.0004         45.0004
  20744002.9234    -577716.34144   -445868.18042  20744004.0954   20743999.7874
        58.0004         51.0004
  21851229.5614  -15027805.77443 -11691881.84042  21851231.7234   21851228.6444
        55.0004         47.0004
 05 10 14  2 45  0.0010000  0  7G 6G 9G 4G 5G10G 2G30
  24206977.1834   -6324125.00443  -4895216.76142  24206976.8704   24206977.9544
        47.0004         40.0004
  24078220.5954   11119374.18843   8660969.07842  24078222.2454   24078220.5314
        50.0004         42.0004
  23692670.1874   24280334.82443  18912485.55642  23692670.2854   23692668.6264
        48.0004         42.0004
  20535936.2564   -6404966.58044  -4971355.35742  20535937.3424   20535935.4434
        59.0004         52.0004
  22498329.8464  -13335248.78243 -10377838.24142  22498330.7704   22498329.5694
        52.0004         45.0004
  20751684.7284    -537347.98144   -414412.31042  20751686.2294   20751681.7284
        58.0004         51.0004
  21836997.1494  -15102596.84543 -11750160.59742  21836999.0684   21836996.2154
        55.0004         47.0004
 05 10 14  2 45 30.0010000  0  7G 6G 9G 4G 5G10G 2G30
  24193527.3574   -6394805.12543  -4950292.14242  24193528.7054   24193526.6334
        47.0004         40.0004
  24096700.3764   11216487.80543   8736642.02342  24096700.8754   24096701.9334
        49.0004         42.0004
  23711458.4774   24379071.44243  18989423.17042  23711459.5154   23711458.0654
        48.0004         41.0004
  20533630.7334   -6417082.05544  -4980795.99242  20533631.7004   20533629.7204
        59.0004         52.0004
  22482141.6924  -13420315.56743 -10444124.02842  22482142.5974   22482140.7444
        53.0004         45.0004
  20759446.3574    -496561.46044   -382630.60342  20759447.6364   20759442.7324
        58.0004         51.0004
  21822830.9984  -15177038.80143 -11808167.31142  21822832.7234   21822830.3114
        55.0004         47.0004
 05 10 14  2 46  0.0010000  0  7G 6G 9G 4G 5G10G 2G30
  24180079.4414   -6465472.98543  -5005357.95742  24180080.2374   24180079.7194
        47.0004         40.0004
  24115190.4374   11313656.49843   8812357.87442  24115191.6904   24115191.6514
        49.0004         42.0004
  23730264.6844   24477896.31043  19066429.54642  23730264.3334   23730263.9694
        48.0004         41.0004
  20531425.9754   -6428668.09544  -4989824.08142  20531427.0024   20531425.0894
        59.0004         52.0004
  22466016.4174  -13505055.93543 -10510155.46442  22466017.2804   22466015.6454
        53.0004         46.0004
  20767287.0464    -455358.72244   -350524.57242  20767288.3744   20767283.4974
        58.0004         51.0004
  21808732.4954  -15251129.03043 -11865899.95542  21808734.3084   21808731.2954
        55.0004         47.0004
 05 10 14  2 46 30.0010000  0  7G 6G 9G 4G 5G10G 2G30
  24166634.4664   -6536127.34743  -5060413.27642  24166636.0584   24166634.1274
        47.0004         40.0004
  24133691.8454   11410878.51543   8888115.27842  24133693.4214   24133691.7764
        48.0004         42.0004
  23749086.6134   24576808.63243  19143504.09242  23749087.7784   23749086.9644
        47.0004         41.0004
  20529322.5254   -6439722.42444  -4998437.84642  20529323.7064   20529321.5564
        59.0004         52.0004
  22449953.4314  -13589465.28843 -10575928.97042  22449955.2384   22449953.8774
        53.0004         46.0004
  20775206.7094    -413740.54344   -318094.81942  20775208.1064   20775203.2284
        58.0004         51.0004
  21794701.2174  -15324863.76943 -11923355.58742  21794703.1684   21794700.2144
        55.0004         48.0004
 05 10 14  2 47  0.0010000  0  7G 6G 9G 4G 5G10G 2G30
  24153191.9644   -6606768.31343  -5115458.14742  24153193.1984   24153192.1624
        46.0004         40.0004
  24152202.3374   11508150.55043   8963911.66342  24152203.4984   24152203.3504
        49.0004         42.0004
  23767925.3864   24675805.92443  19220644.80742  23767925.0184   23767925.4564
        48.0004         40.0004
  20527320.3064   -6450244.14244  -5006636.59042  20527321.2384   20527319.3514
        59.0004         52.0004
  22433954.6274  -13673540.38943 -10641442.02042  22433955.2774   22433953.6934
        53.0004         46.0004
  20783204.9374    -371708.85644   -285342.84942  20783206.2374   20783201.5484
        58.0004         51.0004
  21780738.0484  -15398240.59243 -11980532.32842  21780739.9194   21780736.9194
        56.0004         48.0004
 05 10 14  2 47 30.0010000  0  7G 6G 9G 4G 5G10G 2G30
  24139751.8364   -6677396.70443  -5170493.21742  24139754.3344   24139751.4154
        47.0004         40.0004
  24170721.3844   11605468.90943   9039744.14142  24170722.2614   24170720.8684
        48.0004         42.0004
  23786780.1754   24774885.50843  19297849.68242  23786781.4784   23786778.9964
        49.0004         41.0004
  20525419.6934   -6460233.15444  -5014420.23742  20525420.5984   20525418.4934
        59.0004         52.0004
  22418019.2504  -13757278.88443 -10706692.77842  22418020.4034   22418019.6354
        53.0004         46.0004
  20791281.4474    -329266.72944   -252271.05642  20791282.9164   20791278.3214
        58.0004         51.0004
  21766843.2084  -15471257.87543 -12037428.90642  21766845.3124   21766842.6794
        56.0004         48.0004
 05 10 14  2 48  0.0010000  0  7G 6G 9G 4G 5G10G 2G30
  24126313.5994   -6748013.62643  -5225519.36342  24126315.0044   24126313.9554
        46.0004         40.0004
  24189248.6334   11702829.17843   9115609.27542  24189251.0914   24189248.9634
        49.0004         41.0004
  23805649.1844   24874043.77343  19375115.83942  23805650.2504   23805645.6824
        48.0004         41.0004
  20523620.1744   -6469689.73144  -5021789.00342  20523621.1854   20523619.0214
        59.0004         52.0004
  22402148.7484  -13840678.84743 -10771679.74942  22402150.7964   22402148.5774
        52.0004         46.0004
  20799435.4324    -286417.22144   -218881.82842  20799436.7614   20799432.1404
        58.0004         51.0004
  21753017.0904  -15543914.35643 -12094044.34642  21753019.2964   21753016.4724
        55.0004         48.0004
 05 10 14  2 48 30.0010000  0  7G 6G 9G 4G 5G10G 2G30
  24112878.1394   -6818617.10843  -5280535.02942  24112880.2104   24112878.4394
        47.0004         41.0004
  24207783.5444   11800230.42943   9191506.34442  24207786.3194   24207780.7744
        49.0004         42.0004
  23824533.0854   24973280.74643  19452443.35142  23824534.8484   23824530.9874
        49.0004         41.0004
  20521922.2744   -6478610.90644  -5028740.56942  20521923.2504   20521921.3444
        59.0004         52.0004
  22386344.5454  -13923734.76843 -10836398.62842  22386345.5944   22386343.9804
        53.0004         46.0004
  20807666.8994    -243159.95744   -185174.86742  20807668.3904   20807663.7684
        58.0004         51.0004
  21739260.6064  -15616205.49043 -12150375.09542  21739262.6064   21739259.5644
        56.0004         48.0004
 05 10 14  2 49  0.0010000  0  7G 6G 9G 4G 5G10G 2G30
  24099445.8714   -6889207.62243  -5335540.58342  24099446.7004   24099445.5164
        47.0004         41.0004
  24226325.0914   11897669.12443   9267432.58942  24226326.9324   24226324.9534
        48.0004         42.0004
  23843431.8454   25072593.87043  19529830.18442  23843433.8954   23843431.9104
        49.0004         41.0004
  20520326.8154   -6486996.27344  -5035274.62342  20520327.6524   20520325.7364
        59.0004         52.0004
  22370605.1554  -14006443.71543 -10900847.14142  22370605.7684   22370604.6844
        53.0004         46.0004
  20815975.7854    -199497.67244   -151152.30742  20815977.0944   20815972.5694
        58.0004         51.0004
  21725574.1794  -15688129.23943 -12206419.57142  21725575.8614   21725572.9074
        56.0004         48.0004
 05 10 14  2 49 30.0010000  0  7G 6G 9G 4G 5G10G 2G30
  24086014.8074   -6959786.35843  -5390536.97842  24086016.6374   24086015.2674
        47.0004         41.0004
  24244873.6934   11995141.08743   9343384.75342  24244874.8694   24244873.7584
        48.0004         41.0004
  23862344.0314   25171979.70943  19607273.71742  23862344.9974   23862343.3174
        49.0004         40.0004
  20518832.8804   -6494846.24644  -5041391.49042  20518833.8454   20518831.8544
        59.0004         52.0004
  22354932.5524  -14088803.90743 -10965023.89942  22354933.3324   22354932.1704
        53.0004         46.0004
  20824360.7424    -155433.50144   -116816.59042  20824362.2744   20824357.2624
        58.0004         51.0004
  21711957.5804  -15759684.47243 -12262176.88842  21711959.1444   21711956.5324
        56.0004         48.0004
 05 10 14  2 50  0.0010000  0  7G 6G 9G 4G 5G10G 2G30
  24072586.6344   -7030351.91643  -5445523.08842  24072588.1284   24072585.7154
        47.0004         41.0004
  24263427.3874   12092644.70743   9419361.59142  24263429.5264   24263428.4534
        48.0004         41.0004
  23881270.2524   25271437.79743  19684773.53642  23881271.9694   23881271.1854
        49.0004         40.0004
  20517441.6084   -6502158.51144  -5047089.36642  20517442.5384   20517440.4644
        59.0004         52.0004
  22339326.7484  -14170810.98643 -11028925.50342  22339328.3574   22339327.0664
        53.0004         46.0004
  20832822.4824    -110968.26144    -82168.34842  20832823.6754   20832818.8374
        58.0004         51.0004
  21698411.8394  -15830867.28443 -12317644.00642  21698413.5984   21698411.0964
        56.0004         48.0004
 05 10 14  2 50 30.0010000  0  7G 6G 9G 4G 5G10G 2G30
  24059161.0674   -7100902.40743  -5500497.45942  24059162.1994   24059159.5084
        47.0004         40.0004
  24281988.0384   12190178.91943   9495362.26342  24281987.5624   24281987.3654
        48.0004         41.0004
  23900210.6034   25370967.65943  19762329.26542  23900210.9074   23900210.4474
        49.0004         41.0004
  20516152.9954   -6508930.27444  -5052366.06742  20516153.8504   20516152.0024
        59.0004         52.0004
  22323790.1554  -14252459.64743 -11092547.81542  22323790.4114   22323789.3244
        53.0004         46.0004
  20841360.2034     -66101.79344    -47207.46442  20841361.6334   20841356.6534
        58.0004         51.0004
  21684938.1144  -15901673.17843 -12372817.43142  21684939.9764   21684937.4554
        56.0004         48.0004
 05 10 14  2 51  0.0010000  0  7G 6G 9G 4G 5G10G 2G30
  24045736.8234   -7171442.78443  -5555463.94942  24045739.4394   24045737.3494
        47.0004         41.0004
  24300552.1864   12287735.26443   9571380.18542  24300553.0044   24300551.4374
        48.0004         41.0004
  23919162.5714   25470561.85943  19839935.12642  23919162.7414   23919161.6684
        49.0004         41.0004
  20514966.1474   -6515166.16844  -5057225.20642  20514967.1864   20514965.1984
        59.0004         52.0004
  22308320.3384  -14333752.00443 -11155892.49942  22308321.5374   22308319.7404
        53.0004         46.0004
  20849972.8184     -20841.71244    -11939.86842  20849974.3564   20849969.3794
        58.0004         51.0004
  21671534.7504  -15972105.18243 -12427699.50442  21671536.8794   21671534.5034
        55.0004         48.0004
 05 10 14  2 51 30.0010000  0  7G 6G 9G 4G 5G10G 2G30
  24032317.7654   -7241966.39343  -5610417.36742  24032317.5544   24032317.1784
        47.0004         41.0004
  24319121.5514   12385317.72143   9647418.45342  24319123.2874   24319120.6754
        48.0004         41.0004
  23938127.8904   25570225.50043  19917595.10042  23938128.4064   23938127.9014
        48.0004         41.0004
  20513883.1954   -6520858.29644  -5061660.63342  20513884.1934   20513882.1274
        59.0004         52.0004
  22292920.6354  -14414677.84043 -11218951.57742  22292921.9084   22292920.2834
        53.0004         46.0004
  20858661.2624      24817.14144     23638.45942  20858662.6244   20858657.8604
        58.0004         51.0004
  21658205.5464  -16042153.70643 -12482282.76642  21658206.9894   21658204.4554
        56.0004         48.0004
 05 10 14  2 52  0.0010000  0  7G 6G 9G 4G 5G10G 2G30
  24018899.1544   -7312480.48843  -5665363.36742  24018901.1234   24018897.1244
        48.0004         41.0004
  24337693.6954   12482915.97043   9723469.01742  24337696.7984   24337693.4524
        48.0004         41.0004
  23957105.0014   25669948.79343  19995301.56542  23957107.2044   23957104.3214
        50.0004         41.0004
  20512901.9914   -6526013.29144  -5065677.51842  20512903.1554   20512900.8834
        59.0004         52.0004
  22277589.2574  -14495241.55843 -11281728.47942  22277591.1134   22277590.2874
        53.0004         46.0004
  20867424.2014      70865.36344     59520.19542  20867425.6054   20867420.5954
        58.0004         51.0004
  21644947.3924  -16111823.86243 -12536571.19442  21644949.2724   21644946.8274
        56.0004         48.0004
 05 10 14  2 52 30.0010000  0  7G 6G 9G 4G 5G10G 2G30
  24005483.8974   -7382979.51443  -5720297.65042  24005484.7984   24005483.7914
        48.0004         41.0004
  24356270.0494   12580532.32243   9799533.68142  24356269.1824   24356268.3764
        48.0004         41.0004
  23976093.3944   25769735.42543  20073057.38642  23976094.2944   23976092.6414
        49.0004         41.0004
  20512024.5194   -6530625.01944  -5069271.07642  20512025.6054   20512023.6754
        59.0004         52.0004
  22262329.4224  -14575434.61843 -11344216.56042  22262331.5684   22262329.6784
        53.0004         46.0004
  20876261.5374     117306.29544     95707.93442  20876262.8254   20876258.0404
        58.0004         51.0004
  21631763.2474  -16181107.65643 -12590558.55642  21631765.0224   21631762.2104
        56.0004         48.0004
 05 10 14  2 53  0.0010000  0  7G 6G 9G 4G 5G10G 2G30
  23992070.2604   -7453465.10143  -5775221.45142  23992071.6484   23992069.2484
        48.0004         40.0004
  24374848.0104   12678162.31343   9875608.99942  24374850.3974   24374847.2984
        48.0004         41.0004
  23995093.4584   25869581.69243  20150859.66342  23995095.5444   23995092.4174
        49.0004         42.0004
  20511250.1984   -6534694.29544  -5072441.94542  20511251.1734   20511249.2674
        59.0004         52.0004
  22247140.4954  -14655255.47843 -11406414.61942  22247141.4894   22247139.5574
        53.0004         46.0004
  20885173.0114     164136.27044    132198.82742  20885174.1624   20885169.5584
        58.0004         51.0004
  21618652.8814  -16250004.16543 -12644244.14342  21618654.6724   21618652.1294
        56.0004         48.0004
 05 10 14  2 53 30.0010000  0  7G 6G 9G 4G 5G10G 2G30
  23978659.8564   -7523937.57143  -5830135.03042  23978660.4204   23978660.2184
        48.0004         41.0004
  24393428.4114   12775802.56143   9951692.29342  24393428.8214   24393428.8854
        48.0004         41.0004
  24014104.6154   25969484.92343  20228706.31442  24014107.0744   24014103.7364
        49.0004         42.0004
  20510578.9874   -6538220.95244  -5075189.99442  20510580.0464   20510577.9734
        59.0004         52.0004
  22232022.1744  -14734701.20743 -11468320.36842  22232023.6624   22232021.3694
        53.0004         46.0004
  20894158.1784     211352.63444    168990.79942  20894159.5694   20894154.5764
        58.0004         51.0004
  21605616.2794  -16318511.53643 -12697626.50642  21605618.3504   21605615.6164
        56.0004         48.0004
 05 10 14  2 54  0.0010000  0  7G 6G 9G 4G 5G10G 2G30
  23965252.7424   -7594395.42043  -5885037.22942  23965255.3164   23965251.5104
        47.0004         40.0004
  24412010.1684   12873451.40343  10027782.28242  24412011.5934   24412011.2704
        48.0004         41.0004
  24033126.0434   26069444.80943  20306597.13042  24033127.7894   24033123.4604
        49.0004         41.0004
  20510011.6754   -6541202.86844  -5077513.57642  20510012.6694   20510010.5474
        59.0004         52.0004
  22216976.1224  -14813767.30743 -11529930.29842  22216977.3144   22216976.2494
        53.0004         46.0004
  20903216.1454     258954.92844    206083.49542  20903217.4784   20903212.9474
        58.0004         51.0004
  21592654.6884  -16386625.89643 -12750702.62042  21592656.4174   21592653.7474
        56.0004         48.0004
 05 10 14  2 54 30.0010000  0  7G 6G 9G 4G 5G10G 2G30
  23951846.9874   -7664841.36243  -5939930.12342  23951848.7364   23951846.7714
        48.0004         40.0004
  24430592.9314   12971103.12843  10103874.52742  24430594.5844   24430593.6204
        48.0004         41.0004
  24052157.6694   26169456.41643  20384528.24842  24052161.2794   24052157.7414
        48.0004         41.0004
  20509547.3184   -6543642.01144  -5079414.21242  20509548.4514   20509546.2984
        59.0004         52.0004
  22202002.9994  -14892453.27343 -11591244.02242  22202003.9614   22202002.5964
        53.0004         46.0004
  20912347.2574     306938.30444    243473.13842  20912348.4474   20912343.8534
        58.0004         51.0004
  21579767.8404  -16454347.53343 -12803472.72442  21579769.3454   21579766.5164
        56.0004         48.0004
 05 10 14  2 55  0.0010000  0  7G 6G 9G 4G 5G10G 2G30
  23938444.7504   -7735273.89143  -5994812.57942  23938446.0574   23938445.2334
        48.0004         41.0004
  24449175.7184   13068756.25243  10179967.86442  24449176.0814   24449176.4664
        48.0004         41.0004
  24071199.8674   26269519.14443  20462499.19442  24071202.4894   24071198.5424
        49.0004         42.0004
  20509187.3194   -6545536.27944  -5080890.26642  20509187.9474   20509186.0734
        59.0004         52.0004
  22187102.7144  -14970754.61143 -11652258.03742  22187103.1574   22187102.3904
        53.0004         46.0004
  20921550.3924     355302.26544    281159.34342  20921551.7224   20921547.4194
        58.0004         51.0004
  21566955.9084  -16521672.58443 -12855933.79242  21566957.8234   21566955.3064
        56.0004         48.0004
 05 10 14  2 55 30.0010000  0  7G 6G 9G 4G 5G10G 2G30
  23925043.7774   -7805691.76743  -6049683.61542  23925046.6604   23925043.7234
        48.0004         41.0004
  24467758.2814   13166408.79143  10256060.73942  24467760.9014   24467759.0694
        48.0004         41.0004
  24090250.0654   26369632.23943  20540509.38642  24090253.6784   24090250.3324
        48.0004         41.0004
  20508930.5964   -6546884.04744  -5081940.48042  20508931.4674   20508929.4604
        59.0004         52.0004
  22172276.8454  -15048667.07043 -11712969.02842  22172277.7374   22172276.4344
        54.0004         46.0004
  20930826.0934     404045.94944    319141.43442  20930827.2614   20930822.5074
        58.0004         51.0004
  21554220.6234  -16588597.57343 -12908083.12842  21554222.7064   21554219.4524
        56.0004         48.0004
 05 10 14  2 56  0.0010000  0  7G 6G 9G 4G 5G10G 2G30
  23911645.7874   -7876099.27243  -6104546.56642  23911645.0884   23911646.0024
        47.0004         41.0004
  24486339.9194   13264053.56243  10332147.56242  24486340.7234   24486340.0314
        48.0004         41.0004
  24109309.1884   26469789.24343  20618553.77142  24109310.8504   24109308.6334
        47.0004         41.0004
  20508777.4954   -6547688.89044  -5082567.63442  20508778.4104   20508776.4244
        59.0004         52.0004
  22157524.2614  -15126191.59143 -11773377.72642  22157524.3694   22157523.4674
        54.0004         46.0004
  20940172.6654     453162.65344    357414.18942  20940174.0374   20940169.6514
        57.0004         51.0004
  21541560.7354  -16655124.24643 -12959922.09242  21541562.8444   21541559.7874
        56.0004         48.0004
 05 10 14  2 56 30.0010000  0  7G 6G 9G 4G 5G10G 2G30
  23898250.9564   -7946488.47043  -6159395.25242  23898252.8204   23898250.3084
        47.0004         41.0004
  24504920.7334   13361695.54643  10408232.21542  24504922.3044   24504919.5174
        48.0004         41.0004
  24128377.6374   26569996.04443  20696636.98042  24128379.8824   24128377.2904
        47.0004         41.0004
  20508729.1774   -6547942.53044  -5082765.28442  20508730.1234   20508728.2214
        59.0004         52.0004
  22142847.6654  -15203317.47643 -11833475.80442  22142848.1564   22142846.6534
        54.0004         47.0004
  20949591.6064     502658.18144    395982.12742  20949592.9634   20949588.1034
        58.0004         51.0004
  21528979.4114  -16721242.57644 -13011442.87142  21528981.2304   21528978.2024
        57.0004         48.0004
 05 10 14  2 57  0.0010000  0  7G 6G 9G 4G 5G10G 2G30
  23884858.8884   -8016866.15543  -6214234.97942  23884859.9654   23884857.9234
        47.0004         41.0004
  24523498.9444   13459324.98243  10484307.08142  24523500.0934   24523498.0854
        48.0004         41.0004
  24147454.5744   26670243.77643  20774752.09342  24147456.1944   24147453.5114
        48.0004         41.0004
  20508784.5264   -6547651.30144  -5082538.35842  20508785.3284   20508783.5334
        59.0004         52.0004
  22128246.4674  -15280048.71743 -11893266.36442  22128247.1354   22128245.4624
        54.0004         47.0004
  20959080.4734     552523.67544    434838.36342  20959081.9634   20959077.1684
        58.0004         51.0004
  21516473.9724  -16786956.96243 -13062648.88142  21516476.2074   21516472.5644
        56.0004         48.0004
 05 10 14  2 57 30.0010000  0  7G 6G 9G 4G 5G10G 2G30
  23871468.9364   -8087226.29643  -6269061.03642  23871470.2344   23871469.1414
        46.0004         41.0004
  24542074.7004   13556944.76043  10560374.42642  24542075.7194   24542074.6094
        48.0004         41.0004
  24166539.7684   26770536.31043  20852902.10142  24166540.8364   24166537.9944
        47.0004         41.0004
  20508945.1364   -6546808.65144  -5081881.75342  20508945.9954   20508943.9374
        59.0004         52.0004
  22113721.2764  -15356376.04243 -11952742.18642  22113721.9664   22113720.5794
        54.0004         47.0004
  20968640.9154     602763.02544    473985.91142  20968641.9994   20968637.4704
        58.0004         51.0004
  21504047.4924  -16852259.11743 -13113533.67742  21504049.4934   21504046.7374
        56.0004         48.0004
 05 10 14  2 58  0.0010000  0  7G 6G 9G 4G 5G10G 2G30
  23858082.7014   -8157574.28443  -6323877.61842  23858084.2844   23858082.0534
        47.0004         41.0004
  24560647.9864   13654546.52343  10636427.73742  24560650.1414   24560646.7204
        48.0004         41.0004
  24185631.7614   26870866.25343  20931081.26442  24185632.1414   24185630.4884
        47.0004         40.0004
  20509209.3294   -6545419.50744  -5080799.31142  20509210.3074   20509208.1154
        59.0004         52.0004
  22099273.4324  -15432301.92543 -12011905.19742  22099273.7274   22099272.6064
        54.0004         47.0004
  20978270.5724     653368.57344    513418.80742  20978271.7574   20978267.4844
        57.0004         51.0004
  21491698.5604  -16917152.08943 -13164099.62742  21491700.5204   21491697.8684
        56.0004         48.0004
 05 10 14  2 58 30.0010000  0  7G 6G 9G 4G 5G10G 2G30
  23844698.5974   -8227907.63043  -6378682.80342  23844699.7534   23844698.1134
        47.0004         41.0004
  24579217.6304   13752129.54543  10712466.43142  24579217.9574   24579216.6154
        48.0004         41.0004
  24204730.7224   26971234.24343  21009290.07042  24204732.8274   24204729.6334
        46.0004         40.0004
  20509577.9954   -6543481.02644  -5079288.81742  20509579.0484   20509577.0514
        59.0004         52.0004
  22084902.4494  -15507821.09843 -12070751.29042  22084903.1244   22084902.5584
        54.0004         47.0004
  20987970.1494     704340.68844    553137.33542  20987971.7584   20987966.7064
        57.0004         51.0004
  21479428.5104  -16981631.11743 -13214343.01942  21479430.4794   21479427.7164
        56.0004         49.0004
 05 10 14  2 59  0.0010000  0  7G 6G 9G 4G 5G10G 2G30
  23831317.9804   -8298226.31543  -6433476.56042  23831318.7604   23831316.5894
        47.0004         41.0004
  24597782.3944   13849691.23443  10788488.51242  24597784.0984   24597782.6264
        47.0004         41.0004
  24223837.7184   27071638.21543  21087526.92442  24223839.7854   24223837.1164
        47.0004         40.0004
  20510051.6934   -6540992.68444  -5077349.85842  20510052.4774   20510050.6474
        59.0004         52.0004
  22070609.4204  -15582930.57443 -12129278.14042  22070610.7504   22070609.3004
        54.0004         47.0004
  20997739.1004     755677.07744    593139.72342  20997740.3124   20997736.2704
        57.0004         51.0004
  21467238.1124  -17045693.74143 -13264261.93942  21467240.0934   21467237.2364
        56.0004         49.0004
 05 10 14  2 59 30.0010000  0  7G 6G 9G 4G 5G10G 2G30
  23817938.6584   -8368531.42243  -6488259.73342  23817940.8314   23817937.3464
        47.0004         41.0004
  24616343.3744   13947227.17343  10864490.53342  24616344.4664   24616343.3164
        47.0004         41.0004
  24242949.9464   27172074.69443  21165789.09242  24242951.3384   24242950.1344
        46.0004         40.0004
  20510629.7844   -6537955.54744  -5074983.26142  20510630.8824   20510628.6414
        59.0004         52.0004
  22056395.2744  -15657628.61043 -12187484.39042  22056395.9564   22056394.4214
        54.0004         47.0004
  21007576.9844     807374.44944    633423.38942  21007578.2144   21007573.9484
        57.0004         51.0004
  21455126.8294  -17109339.18043 -13313855.78742  21455128.6864   21455125.8424
        56.0004         49.0004
 05 10 14  3  0  0.0010000  0  7G 6G 9G 4G 5G10G 2G30
  23804564.1354   -8438819.57043  -6543029.68742  23804565.6464   23804563.2494
        47.0004         41.0004
  24634898.9184   14044737.85843  10940472.87442  24634901.6354   24634898.6874
        47.0004         40.0004
  24262068.9394   27272545.44743  21244077.96542  24262071.3894   24262069.2944
        47.0004         40.0004
  20511312.6354   -6534365.57544  -5072185.88842  20511313.8514   20511311.8014
        59.0004         52.0004
  22042260.0974  -15731908.33343 -12245364.67542  22042261.1394   22042259.2414
        54.0004         47.0004
  21017483.4094     859434.06244    673989.32342  21017484.8984   21017480.4324
        57.0004         51.0004
  21443095.7524  -17172561.58243 -13363119.99542  21443097.9174   21443095.1004
        56.0004         49.0004
 05 10 14  3  0 30.0010000  0  7G 6G 9G 4G 5G10G 2G30
  23791190.6084   -8509094.19443  -6597789.11942  23791192.1854   23791190.5114
        47.0004         41.0004
  24653448.4394   14142216.74843  11016430.43842  24653450.0324   24653447.9774
        47.0004         40.0004
  24281192.9754   27373044.72543  21322389.06642  24281195.5484   24281191.7764
        47.0004         40.0004
  20512100.3874   -6530226.11344  -5068960.34242  20512101.3994   20512099.4324
        59.0004         52.0004
  22028204.6954  -15805770.82743 -12302919.84942  22028205.5644   22028203.9204
        54.0004         47.0004
  21027458.1424     911850.05344    714832.95342  21027459.4264   21027454.7094
        57.0004         51.0004
  21431145.0334  -17235362.23043 -13412055.56542  21431147.0054   21431144.3174
        56.0004         49.0004
 05 10 14  3  1  0.0010000  0  7G 6G 9G 4G 5G10G 2G30
  23777821.2084   -8579353.91343  -6652536.92942  23777821.7094   23777820.2784
        48.0004         41.0004
  24671991.9434   14239662.30843  11092362.02042  24671992.3774   24671991.8524
        47.0004         40.0004
  24300322.8804   27473572.01243  21400722.01542  24300324.6764   24300321.7274
        46.0004         40.0004
  20512993.1484   -6525535.47544  -5065305.30642  20512994.1564   20512992.2084
        59.0004         52.0004
  22014229.1104  -15879211.67443 -12360146.47042  22014229.9934   22014228.9454
        54.0004         47.0004
  21037499.8794     964621.53544    755953.59042  21037501.2644   21037496.8824
        57.0004         51.0004
  21419275.5234  -17297737.49943 -13460659.66542  21419277.5144   21419274.6394
        56.0004         49.0004
 05 10 14  3  1 30.0010000  0  7G 6G 9G 4G 5G10G 2G30
  23764453.8964   -8649595.89643  -6707270.91642  23764453.7154   23764454.5794
        48.0004         41.0004
  24690528.9544   14337074.31443  11168267.46842  24690529.3044   24690528.3574
        47.0004         40.0004
  24319457.5114   27574128.11643  21479077.40342  24319460.0114   24319457.2434
        46.0004         40.0004
  20513991.3274   -6520290.60144  -5061218.39542  20513992.2334   20513990.1484
        59.0004         52.0004
  22000335.1514  -15952225.28343 -12417040.17642  22000336.0164   22000334.8764
        54.0004         47.0004
  21047610.0324    1017749.36044    797351.89542  21047611.4884   21047606.8914
        57.0004         51.0004
  21407488.0944  -17359682.37644 -13508928.40342  21407489.9204   21407486.5334
        57.0004         49.0004
 05 10 14  3  2  0.0010000  0  7G 6G 9G 4G 5G10G 2G30
  23751090.5254   -8719823.34443  -6761993.58442  23751090.2864   23751089.5094
        48.0004         41.0004
  24709058.3124   14434446.21943  11244141.66942  24709059.8234   24709057.6264
        47.0004         40.0004
  24338597.2694   27674707.53943  21557450.96742  24338598.9794   24338596.4464
        47.0004         40.0004
  20515094.2474   -6514494.66444  -5056702.08742  20515095.1204   20515092.8594
        59.0004         52.0004
  21986521.8914  -16024812.28843 -12473601.46642  21986522.7924   21986521.8404
        54.0004         47.0004
  21057786.3664    1071227.74044    839023.36142  21057787.6074   21057783.3264
        57.0004         50.0004
  21395781.9014  -17421198.14744 -13556862.76842  21395783.5064   21395780.9614
        57.0004         49.0004
 05 10 14  3  2 30.0010000  0  7G 6G 9G 4G 5G10G 2G30
  23737729.4174   -8790036.63343  -6816705.22442  23737731.8454   23737729.3244
        48.0004         41.0004
  24727579.4154   14531775.15443  11319982.39742  24727581.2524   24727580.3914
        47.0004         40.0004
  24357741.3884   27775308.23443  21635841.11042  24357743.1514   24357742.0304
        47.0004         39.0004
  20516301.9614   -6508147.58844  -5051756.32042  20516302.8454   20516300.9314
        59.0004         52.0004
  21972791.2744  -16096970.08443 -12529828.30542  21972791.3654   21972790.0894
        54.0004         47.0004
  21068029.4754    1125054.14844    880966.02042  21068030.6914   21068026.0124
        57.0004         50.0004
  21384158.0854  -17482282.65344 -13604461.08242  21384159.8294   21384157.0484
        57.0004         49.0004
 05 10 14  3  3  0.0010000  0  7G 6G 9G 4G 5G10G 2G30
  23724371.7104   -8860231.93943  -6871402.84642  23724373.5554   23724371.2794
        48.0004         42.0004
  24746091.3624   14629061.65843  11395790.04442  24746094.0724   24746091.2994
        46.0004         40.0004
  24376889.6914   27875931.95843  21714249.17742  24376891.5854   24376889.0634
        48.0004         39.0004
  20517615.1564   -6501245.57644  -5046378.13742  20517616.2754   20517614.4444
        59.0004         52.0004
  21959142.8634  -16168691.87643 -12585715.39942  21959143.5164   21959142.3304
        54.0004         47.0004
  21078338.6074    1179230.26444    923181.17642  21078339.9054   21078335.2184
        57.0004         50.0004
  21372617.0594  -17542930.10844 -13651718.83942  21372619.2574   21372616.2784
        57.0004         49.0004
 05 10 14  3  3 30.0010000  0  7G 6G 9G 4G 5G10G 2G30
  23711016.5574   -8930413.66743  -6926089.89442  23711016.7824   23711016.0684
        48.0004         42.0004
  24764595.7324   14726298.37443  11471558.90342  24764597.4924   24764596.9694
        47.0004         40.0004
  24396041.2574   27976571.90243  21792669.92842  24396041.8734   24396040.0694
        48.0004         39.0004
  20519033.5764   -6493792.82544  -5040570.80442  20519034.5614   20519032.5024
        59.0004         52.0004
  21945577.4304  -16239979.16043 -12641263.91742  21945578.4654   21945576.5384
        55.0004         47.0004
  21088713.4894    1233749.40444    965663.62442  21088714.8114   21088709.9074
        57.0004         50.0004
  21361158.8984  -17603142.76744 -13698637.78642  21361160.7484   21361158.2744
        57.0004         49.0004
 05 10 14  3  4  0.0010000  0  7G 6G 9G 4G 5G10G 2G30
  23697663.8944   -9000579.80343  -6980764.77842  23697666.0594   23697664.2374
        48.0004         42.0004
  24783089.4554   14823484.36943  11547288.23742  24783090.8024   24783090.9664
        46.0004         40.0004
  24415194.8884   28077228.70843  21871103.82842  24415197.0404   24415196.8084
        48.0004         39.0004
  20520556.9984   -6485787.24244  -5034332.69642  20520558.1884   20520556.1344
        59.0004         52.0004
  21932095.6874  -16310827.37243 -12696470.29642  21932096.0464   21932094.8944
        55.0004         47.0004
  21099153.1734    1288611.22244   1008413.09042  21099154.7254   21099150.2734
        57.0004         50.0004
  21349784.5974  -17662916.35944 -13745214.61142  21349786.4574   21349783.6594
        57.0004         49.0004
 05 10 14  3  4 30.0010000  0  7G 6G 9G 4G 5G10G 2G30
  23684314.9974   -9070726.95243  -7035424.87942  23684315.4084   23684313.5894
        48.0004         42.0004
  24801574.2504   14920620.08743  11622978.39142  24801576.3854   24801573.8184
        47.0004         40.0004
  24434353.1074   28177903.40143  21949551.63142  24434353.7444   24434351.4554
        48.0004         39.0004
  20522186.1714   -6477225.35844  -5027661.10642  20522187.0514   20522185.3654
        59.0004         52.0004
  21918698.1224  -16381230.47443 -12751329.84442  21918699.0234   21918697.6554
        55.0004         47.0004
  21109658.7174    1343816.73644   1051430.37942  21109660.1024   21109655.0194
        57.0004         50.0004
  21338494.2154  -17722245.48344 -13791445.09542  21338496.6474   21338493.6154
        57.0004         49.0004
 05 10 14  3  5  0.0010000  0  7G 6G 9G 4G 5G10G 2G30
  23670970.1064   -9140858.44243  -7090072.76942  23670971.6154   23670969.2634
        48.0004         42.0004
  24820047.9234   15017699.17043  11698624.40942  24820048.4404   24820046.9694
        47.0004         40.0004
  24453513.2204   28278590.74343  22028009.28542  24453514.0114   24453510.1594
        49.0004         39.0004
  20523920.8944   -6468110.49144  -5020558.62042  20523921.7984   20523919.8514
        59.0004         52.0004
  21905385.5724  -16451189.01843 -12805842.97942  21905385.9254   21905384.5524
        55.0004         47.0004
  21120228.1524    1399360.43944   1094711.18642  21120229.4804   21120224.5174
        57.0004         50.0004
  21327288.9974  -17781131.49644 -13837330.29642  21327290.8864   21327287.8634
        57.0004         49.0004
 05 10 14  3  5 30.0010000  0  7G 6G 9G 4G 5G10G 2G30
  23657626.9754   -9210975.31243  -7144709.27642  23657627.0004   23657627.3834
        48.0004         42.0004
  24838509.0874   15114717.62643  11774223.18942  24838510.2154   24838509.4714
        47.0004         40.0004
  24472674.9854   28379287.59943  22106474.37042  24472676.8174   24472677.3224
        49.0004         40.0004
  20525760.3204   -6458443.78244  -5013026.12342  20525761.1814   20525759.3024
        59.0004         52.0004
  21892157.6174  -16520701.36543 -12860008.43042  21892158.2904   21892156.9964
        54.0004         47.0004
  21130861.2694    1455238.57144   1138252.58642  21130862.4534   21130858.1224
        57.0004         50.0004
  21316167.7904  -17839573.34244 -13882869.39642  21316169.7374   21316166.8724
        57.0004         49.0004
 05 10 14  3  6  0.0010000  0  6G 6G 4G 5G10G 2G30
  23644287.6664   -9281072.05843  -7199330.10442  23644288.5734   23644286.8504
        49.0004         42.0004
  24491839.1224   28479997.72743  22184949.79342  24491843.2724   24491838.8714
        48.0004         40.0004
  20527705.8044   -6448219.50144  -5005059.15642  20527706.8854   20527704.7444
        59.0004         52.0004
  21879016.3164  -16589759.08143 -12913819.62442  21879017.0884   21879015.5324
        54.0004         47.0004
  21141558.6734    1511455.00344   1182057.59842  21141560.0694   21141555.5574
        57.0004         50.0004
  21305132.6794  -17897563.15244 -13928056.25842  21305134.5644   21305131.4684
        57.0004         49.0004
 05 10 14  3  6 30.0010000  0  6G 6G 4G 5G10G 2G30
  23630952.1084   -9351152.61143  -7253938.30942  23630953.8594   23630952.5144
        48.0004         42.0004
  24511005.1364   28580714.93043  22263430.72642  24511005.0804   24511004.9324
        48.0004         40.0004
  20529756.6594   -6437441.65444  -4996660.83742  20529757.6414   20529755.6574
        59.0004         52.0004
  21865961.1484  -16658363.67843 -12967277.73542  21865961.4934   21865961.1814
        55.0004         47.0004
  21152319.8354    1568003.12444   1226121.07242  21152321.2604   21152316.2864
        57.0004         50.0004
  21294183.2144  -17955103.03244 -13972892.52842  21294185.0194   21294182.0944
        57.0004         49.0004
 05 10 14  3  7  0.0010000  0  6G 6G 4G 5G10G 2G30
  23617619.8894   -9421215.43643  -7308532.71442  23617620.3354   23617618.9164
        49.0004         42.0004
  24530172.2124   28681438.69943  22341916.78242  24530175.1634   24530172.1074
        47.0004         39.0004
  20531913.3954   -6426109.03944  -4987830.23442  20531914.0414   20531912.3144
        59.0004         52.0004
  21852993.3774  -16726511.25643 -13020379.72942  21852994.1494   21852993.0294
        55.0004         47.0004
  21163143.2364    1624881.89844   1270442.19242  21163144.5204   21163140.1074
        57.0004         50.0004
  21283319.9624  -18012189.60644 -14017375.56942  21283321.9064   21283318.7504
        57.0004         49.0004
 05 10 14  3  7 30.0010000  0  5G 6G 5G10G 2G30
  23604289.8924   -9491261.31543  -7363113.89642  23604291.8914   23604289.1834
        48.0004         42.0004
  20534175.4694   -6414222.33044  -4978567.87142  20534176.2784   20534174.1764
        59.0004         52.0004
  21840112.6724  -16794199.58343 -13073123.86342  21840113.3894   21840112.2914
        55.0004         47.0004
  21174029.5494    1682088.45144   1315018.72742  21174030.9004   21174025.9804
        57.0004         50.0004
  21272543.3684  -18068821.44344 -14061504.27542  21272545.0644   21272542.4774
        57.0004         49.0004
 05 10 14  3  8  0.0010000  0  5G 6G 5G10G 2G30
  23590964.7744   -9561287.81743  -7417679.98842  23590967.0144   23590963.2104
        48.0004         42.0004
  20536543.0334   -6401779.23044  -4968871.95742  20536544.2124   20536542.2754
        59.0004         52.0004
  21827320.1364  -16861423.52643 -13125506.14342  21827320.5994   21827320.0614
        55.0004         48.0004
  21184978.0854    1739622.91144   1359850.77342  21184979.4724   21184974.9694
        57.0004         50.0004
  21261854.0154  -18124993.97244 -14105275.07742  21261856.0324   21261852.9974
        57.0004         49.0004
 05 10 14  3  8 30.0010000  0  5G 6G 5G10G 2G30
  23577642.3404   -9631297.92943  -7472233.29742  23577644.5984   23577642.2994
        49.0004         42.0004
  20539016.1064   -6388782.99044  -4958745.02742  20539017.2664   20539015.5684
        59.0004         52.0004
  21814615.9934  -16928183.69043 -13177527.03842  21814617.0474   21814615.8274
        55.0004         48.0004
  21195987.8964    1797479.78044   1404934.04742  21195989.2474   21195984.0694
        57.0004         50.0004
  21251251.7374  -18180708.48544 -14148688.98242  21251253.5184   21251251.0624
        57.0004         49.0004
 05 10 14  3  9  0.0010000  0  5G 6G 5G10G 2G30
  23564323.4134   -9701289.81343  -7526772.41642  23564324.1564   23564322.7464
        49.0004         42.0004
  20541594.7754   -6375232.02744  -4948185.84342  20541595.8404   20541594.1864
        59.0004         52.0004
  21802001.0434  -16994475.76643 -13229183.18342  21802001.9224   21802000.6514
        55.0004         48.0004
  21207058.8834    1855658.41044   1450268.04442  21207060.0754   21207055.5794
        57.0004         50.0004
  21240737.6704  -18235961.08944 -14191742.95842  21240739.4644   21240736.6354
        57.0004         49.0004
 05 10 14  3  9 30.0010000  0  5G 6G 5G10G 2G30
  23551008.5144   -9771260.69943  -7581295.16842  23551010.4374   23551007.5434
        49.0004         42.0004
  20544279.5864   -6361123.58144  -4937192.25942  20544280.7274   20544278.7214
        59.0004         52.0004
  21789476.3994  -17060294.31043 -13280470.35042  21789477.0354   21789475.7594
        55.0004         48.0004
  21218191.4654    1914159.51544   1495853.32042  21218192.8734   21218188.0624
        57.0004         50.0004
  21230312.1474  -18290746.98944 -14234433.27042  21230314.2584   21230311.4964
        57.0004         49.0004
 05 10 14  3 10  0.0010000  0  5G 6G 5G10G 2G30
  23537696.3404   -9841212.72743  -7635803.23242  23537697.8504   23537695.6384
        48.0004         42.0004
  20547070.1634   -6346460.05544  -4925766.14842  20547071.1304   20547068.9444
        59.0004         52.0004
  21777041.6304  -17125638.85743 -13331388.16042  21777042.4174   21777041.0124
        55.0004         48.0004
  21229384.1834    1972978.38144   1541686.20442  21229385.4774   21229380.6194
        57.0004         50.0004
  21219975.6794  -18345066.45944 -14276760.13442  21219977.7194   21219974.5634
        57.0004         49.0004
 05 10 14  3 10 30.0010000  0  5G 6G 5G10G 2G30
  23524388.8274   -9911146.87643  -7690297.36242  23524391.6034   23524388.3604
        49.0004         42.0004
  20549965.7524   -6331242.80744  -4913908.56642  20549966.5664   20549964.7914
        59.0004         52.0004
  21764697.0894  -17190508.27543 -13381935.74442  21764698.0484   21764696.7674
        55.0004         48.0004
  21240636.7294    2032111.66444   1587764.08342  21240638.1084   21240633.4674
        57.0004         50.0004
  21209728.0074  -18398918.56044 -14318722.81242  21209729.8114   21209726.5854
        57.0004         49.0004
 05 10 14  3 11  0.0010000  0  5G 6G 5G10G 2G30
  23511084.5134   -9981061.38843  -7744776.18142  23511085.5274   23511084.8784
        49.0004         42.0004
  20552967.3084   -6315470.36844  -4901618.36142  20552968.1304   20552966.1994
        59.0004         52.0004
  21752444.0434  -17254898.16043 -13432109.66542  21752444.9454   21752443.9304
        55.0004         48.0004
  21251949.2084    2091558.77244   1634086.50242  21251950.5484   21251946.2434
        57.0004         50.0004
  21199569.5944  -18452299.67344 -14360318.48542  21199571.3214   21199568.4224
        57.0004         49.0004
 05 10 14  3 11 30.0010000  0  5G 6G 5G10G 2G30
  23497783.8084  -10050956.30643  -7799239.75142  23497784.4894   23497783.6824
        49.0004         42.0004
  20556074.0854   -6299143.07044  -4888895.79942  20556075.1124   20556073.4174
        59.0004         52.0004
  21740282.7174  -17318806.03343 -13481907.99242  21740283.5404   21740282.6394
        55.0004         48.0004
  21263320.9074    2151317.55144   1680651.78342  21263322.3264   21263317.5384
        57.0004         50.0004
  21189501.8104  -18505207.96944 -14401545.73042  21189503.3544   21189500.9884
        57.0004         49.0004
 05 10 14  3 12  0.0010000  0  5G 6G 5G10G 2G30
  23484486.8184  -10120832.33943  -7853688.58742  23484487.2604   23484486.2984
        48.0004         42.0004
  20559286.3904   -6282262.05344  -4875741.77142  20559287.5574   20559285.5964
        59.0004         52.0004
  21728213.5744  -17382230.21743 -13531329.42042  21728214.7364   21728213.0304
        55.0004         48.0004
  21274751.3044    2211384.29244   1727457.03742  21274752.6014   21274747.7454
        57.0004         50.0004
  21179523.6774  -18557642.30744 -14442403.65442  21179525.8104   21179522.8824
        57.0004         49.0004
 05 10 14  3 12 30.0010000  0  5G 6G 5G10G 2G30
  23471193.8314  -10190686.22143  -7908120.16542  23471195.1244   23471193.7094
        48.0004         42.0004
  20562604.8014   -6264824.32544  -4862153.94342  20562605.8994   20562603.7004
        59.0004         52.0004
  21716237.1664  -17445164.92843 -13580369.43842  21716238.6444   21716237.4574
        55.0004         48.0004
  21286240.3644    2271760.27944   1774503.25642  21286241.7534   21286237.3964
        57.0004         50.0004
  21169636.9314  -18609597.35744 -14482888.11442  21169638.8684   21169635.9974
        57.0004         50.0004
 05 10 14  3 13  0.0010000  0  5G 6G 5G10G 2G30
  23457905.1304  -10260520.45943  -7962536.43442  23457907.9664   23457904.2684
        49.0004         42.0004
  20566028.5244   -6246832.86644  -4848134.63742  20566029.4604   20566027.5364
        59.0004         52.0004
  21704354.3454  -17507610.56443 -13629028.36342  21704355.5884   21704354.3494
        55.0004         48.0004
  21297787.4794    2332440.55944   1821786.59142  21297788.6914   21297784.4344
        57.0004         50.0004
  21159841.3824  -18661074.05344 -14522999.82342  21159843.1734   21159840.5664
        57.0004         50.0004
 05 10 14  3 13 30.0010000  0  5G 6G 5G10G 2G30
  23444619.4984  -10330334.87643  -8016937.27442  23444620.6394   23444619.7564
        49.0004         42.0004
  20569557.5694   -6228287.96244  -4833684.06742  20569558.5134   20569556.6024
        59.0004         52.0004
  21692565.3244  -17569564.41143 -13677304.07742  21692566.2944   21692564.6164
        55.0004         48.0004
  21309392.1984    2393422.81644   1869305.23642  21309393.6794   21309388.6064
        57.0004         50.0004
  21150137.0084  -18712070.40144 -14562737.24242  21150139.0064   21150136.1894
        57.0004         50.0004
 05 10 14  3 14  0.0010000  0  5G 6G 5G10G 2G30
  23431339.4324  -10400126.31143  -8071320.18042  23431339.7754   23431338.7634
        49.0004         42.0004
  20573192.4054   -6209186.84944  -4818800.09342  20573193.3854   20573191.6564
        59.0004         52.0004
  21680870.7454  -17631020.82643 -13725192.17942  21680871.4014   21680869.8874
        55.0004         48.0004
  21321054.3364    2454707.84844   1917059.80642  21321055.6814   21321051.2474
        57.0004         50.0004
  21140525.4594  -18762581.35244 -14602096.43042  21140527.2254   21140524.2264
        57.0004         50.0004
 05 10 14  3 14 30.0010000  0  5G 6G 5G10G 2G30
  23418061.9824  -10469895.73043  -8125685.95142  23418064.0634   23418062.0554
        49.0004         43.0004
  20576932.7384   -6189531.19744  -4803484.00742  20576933.7194   20576931.6184
        59.0004         52.0004
  21669270.7694  -17691978.93143 -13772691.98742  21669271.3324   21669270.7914
        55.0004         48.0004
  21332773.3764    2516291.94044   1965047.41042  21332774.4724   21332769.8554
        57.0004         50.0004
  21131005.7174  -18812606.34944 -14641076.94642  21131007.7054   21131004.7494
        57.0004         50.0004
 05 10 14  3 15  0.0010000  0  5G 6G 5G10G 2G30
  23404789.2524  -10539645.81243  -8180036.66042  23404791.3554   23404788.6514
        49.0004         43.0004
  20580777.9894   -6169323.98844  -4787738.14042  20580778.9794   20580776.9134
        59.0004         52.0004
  21657765.9064  -17752438.68443 -13819803.46642  21657766.4704   21657765.2894
        56.0004         48.0004
  21344548.6904    2578170.24144   2013264.27242  21344549.9954   21344545.1764
        57.0004         50.0004
  21121578.6044  -18862146.03444 -14679679.30242  21121580.5234   21121578.0214
        57.0004         50.0004
 05 10 14  3 15 30.0010000  0  5G 6G 5G10G 2G30
  23391520.7594  -10609371.14243  -8234368.08542  23391523.2754   23391519.3274
        49.0004         42.0004
  20584729.0864   -6148560.58044  -4771558.87242  20584730.0464   20584728.3574
        59.0004         52.0004
  21646356.8964  -17812392.70343 -13866520.87042  21646357.4054   21646356.1444
        55.0004         48.0004
  21356379.9484    2640345.73844   2061712.70142  21356380.8784   21356376.5454
        57.0004         50.0004
  21112245.4664  -18911193.41444 -14717898.04042  21112247.2164   21112244.6674
        58.0004         50.0004
 05 10 14  3 16  0.0010000  0  5G 6G 5G10G 2G30
  23378256.2234  -10679076.06443  -8288683.59342  23378259.9634   23378255.6554
        49.0004         43.0004
  20588785.2694   -6127245.70544  -4754949.88942  20588786.2904   20588784.3134
        59.0004         52.0004
  21635043.8084  -17871842.60943 -13912845.45942  21635044.8654   21635043.1134
        56.0004         48.0004
  21368266.9664    2702811.81544   2110387.56842  21368268.3994   21368263.3394
        57.0004         50.0004
  21103005.0954  -18959751.03544 -14755735.14542  21103006.8934   21103004.0434
        57.0004         50.0004
 05 10 14  3 16 30.0010000  0  5G 6G 5G10G 2G30
  23364996.8564  -10748755.28643  -8342979.07542  23364996.8404   23364997.5264
        49.0004         43.0004
  20592947.3104   -6105374.74944  -4737907.59342  20592948.2834   20592946.3804
        59.0004         52.0004
  21623828.3424  -17930781.29843 -13958771.69642  21623829.2064   21623827.6984
        56.0004         48.0004
  21380209.6584    2765571.09844   2159290.90242  21380211.0694   21380206.0154
        57.0004         50.0004
  21093859.3734  -19007812.08744 -14793185.31942  21093861.3254   21093858.6794
        58.0004         50.0004
 05 10 14  3 17  0.0010000  0  5G 6G 5G10G 2G30
  23351740.9884  -10818414.38043  -8397258.87742  23351742.3694   23351740.6124
        49.0004         43.0004
  20597213.8824   -6082953.98044  -4720436.87342  20597214.8374   20597212.8424
        59.0004         52.0004
  21612709.0194  -17989212.27243 -14004302.31142  21612709.7134   21612708.4974
        56.0004         48.0004
  21392206.3734    2828615.46444   2208416.37842  21392207.8044   21392203.2094
        57.0004         50.0004
  21084807.3284  -19055380.38444 -14830251.52142  21084809.3234   21084806.6134
        57.0004         50.0004
 05 10 14  3 17 30.0010000  0  5G 6G 5G10G 2G30
  23338490.6434  -10888046.62043  -8451517.73342  23338492.4784   23338490.3144
        49.0004         42.0004
  20601586.0254   -6059977.35544  -4702533.02242  20601587.0904   20601585.0494
        59.0004         52.0004
  21601688.0934  -18047126.48043 -14049430.25542  21601688.9464   21601687.8364
        55.0004         48.0004
  21404258.5334    2891949.09544   2257767.26042  21404260.1374   21404254.9424
        57.0004         50.0004
  21075850.7504  -19102447.46744 -14866927.16842  21075852.6454   21075849.9494
        58.0004         50.0004
 05 10 14  3 18  0.0010000  0  5G 6G 5G10G 2G30
  23325244.0564  -10957660.29643  -8505762.14842  23325244.5924   23325242.4564
        49.0004         43.0004
  20606062.5484   -6036453.97344  -4684203.12542  20606063.3214   20606061.4924
        59.0004         52.0004
  21590764.8534  -18104530.12343 -14094160.35642  21590765.6984   21590764.2174
        56.0004         48.0004
  21416363.4944    2955561.43944   2307335.31742  21416364.9314   21416359.9344
        57.0004         50.0004
  21066988.4154  -19149020.21044 -14903217.61642  21066990.3214   21066987.8684
        58.0004         50.0004
 05 10 14  3 18 30.0010000  0  5G 6G 5G10G 2G30
  23312002.0624  -11027245.88443  -8559984.66842  23312002.8894   23312001.4764
        49.0004         43.0004
  20610644.5054   -6012374.90344  -4665440.22642  20610645.4904   20610643.4364
        59.0004         52.0004
  21579940.6664  -18161411.64043 -14138483.60042  21579941.1454   21579939.8334
        56.0004         48.0004
  21428522.7904    3019459.51244   2357126.02042  21428524.1824   21428519.2944
        57.0004         49.0004
  21058221.9554  -19195087.52444 -14939114.22442  21058223.8684   21058220.8884
        58.0004         50.0004
 05 10 14  3 19  0.0010000  0  5G 6G 5G10G 2G30
  23298765.2864  -11096807.71243  -8614188.67742  23298766.5584   23298764.3504
        49.0004         43.0004
  20615331.5304   -5987745.29044  -4646248.32742  20615332.4544   20615330.5824
        59.0004         52.0004
  21569215.3734  -18217773.13743 -14182401.63642  21569216.2334   21569214.9934
        56.0004         49.0004
  21440735.2864    3083636.42244   2407133.99942  21440736.6784   21440731.8514
        57.0004         50.0004
  21049551.1224  -19240651.95944 -14974618.97742  21049553.2964   21049550.4214
        57.0004         50.0004
 05 10 14  3 19 30.0010000  0  5G 6G 5G10G 2G30
  23285532.2604  -11166343.84643  -8668372.67142  23285535.0734   23285531.9834
        49.0004         43.0004
  20620123.1344   -5962564.05844  -4626626.59742  20620124.1964   20620122.0624
        59.0004         52.0004
  21558589.5474  -18273610.83843 -14225911.52242  21558590.8094   21558588.6254
        55.0004         49.0004
  21453000.6924    3148091.58343   2457358.79842  21453002.0124   21452997.7904
        56.0004         50.0004
  21040977.2434  -19285710.20144 -15009729.29742  21040978.9304   21040976.1394
        58.0004         50.0004
 05 10 14  3 20  0.0010000  0  5G 6G 5G10G 2G30
  23272305.5664  -11235853.60643  -8722536.10742  23272305.7844   23272304.8404
        50.0004         43.0004
  20625019.8514   -5936831.32544  -4606575.12742  20625021.0164   20625019.1614
        59.0004         52.0004
  21548063.9694  -18328921.99043 -14269011.11242  21548065.1404   21548063.7324
        55.0004         49.0004
  21465318.8994    3212823.18344   2507799.00742  21465320.3684   21465315.0794
        57.0004         49.0004
  21032499.5404  -19330260.00144 -15044443.42642  21032501.6264   21032498.6524
        58.0004         50.0004
 05 10 14  3 20 30.0010000  0  5G 6G 5G10G 2G30
  23259083.2104  -11305337.13443  -8776679.10642  23259083.7594   23259082.4404
        50.0004         43.0004
  20630021.3354   -5910547.93244  -4586094.57342  20630022.5424   20630020.5364
        59.0004         52.0004
  21537639.4604  -18383704.56243 -14311698.82142  21537640.3624   21537638.8214
        56.0004         49.0004
  21477688.7404    3277828.86243   2558452.77642  21477690.3994   21477685.6864
        56.0004         49.0004
  21024119.0494  -19374299.86544 -15078760.20442  21024120.7784   21024118.0944
        58.0004         50.0004
 05 10 14  3 21  0.0010000  0  5G 6G 5G10G 2G30
  23245865.9444  -11374795.20143  -8830802.24742  23245867.1754   23245865.1044
        50.0004         43.0004
  20635127.6194   -5883715.52744  -4565186.21742  20635128.7134   20635126.7224
        59.0004         52.0004
  21527315.5624  -18437957.26543 -14353973.63842  21527316.3944   21527315.0524
        56.0004         49.0004
  21490110.4784    3343105.30243   2609317.53542  21490111.8004   21490107.1964
        56.0004         49.0004
  21015835.7604  -19417829.05044 -15112679.04842  21015837.6244   21015834.9064
        58.0004         50.0004
 05 10 14  3 21 30.0010000  0  5G 6G 5G10G 2G30
  23232655.3564  -11444215.87643  -8884896.26542  23232656.0054   23232655.4334
        49.0004         43.0004
  20640340.0444   -5856323.50244  -4543841.79142  20640341.1094   20640339.4734
        59.0004         52.0004
  21517095.1084  -18491666.68743 -14395825.12242  21517095.8794   21517094.6654
        56.0004         49.0004
  21502585.4224    3408661.74443   2660400.47542  21502587.1794   21502582.1724
        56.0004         49.0004
  21007651.9044  -19460834.54444 -15146189.82242  21007653.7744   21007651.2064
        58.0004         50.0004
 05 10 14  3 22  0.0010000  0  5G 6G 5G10G 2G30
  23219447.9024  -11513619.38243  -8938976.90742  23219449.8574   23219448.3104
        49.0004         43.0004
  20645655.0364   -5828392.56844  -4522077.43542  20645656.0054   20645654.4684
        59.0004         52.0004
  21506974.2684  -18544850.59343 -14437267.11542  21506975.4954   21506973.9544
        56.0004         49.0004
  21515109.6524    3474475.66843   2711684.04842  21515110.6104   21515106.3194
        56.0004         49.0004
  20999564.6114  -19503334.63744 -15179306.77842  20999566.4704   20999563.2514
        58.0004         50.0004
 05 10 14  3 22 30.0010000  0  5G 6G 5G10G 2G30
  23206246.4174  -11582995.72143  -8993036.39242  23206248.5084   23206244.6694
        49.0004         43.0004
  20651074.5204   -5799913.99644  -4499886.34242  20651075.3274   20651073.4804
        59.0004         52.0004
  21496955.9554  -18597497.54643 -14478290.70442  21496956.7624   21496955.5804
        56.0004         49.0004
  21527683.7364    3540554.23743   2763173.84242  21527685.2654   21527680.1834
        56.0004         49.0004
  20991575.3464  -19545318.23244 -15212021.26942  20991577.2364   20991574.3744
        58.0004         50.0004
 05 10 14  3 23  0.0010000  0  5G 6G 5G10G 2G30
  23193049.6654  -11652343.51543  -9047073.61542  23193051.1994   23193049.1664
        50.0004         43.0004
  20656598.1364   -5770887.26744  -4477268.12042  20656599.1324   20656596.9424
        59.0004         52.0004
  21487040.4434  -18649604.25143 -14518893.31942  21487041.3774   21487039.8924
        56.0004         49.0004
  21540308.1094    3606896.46543   2814869.08242  21540309.3424   21540305.0804
        56.0004         49.0004
  20983685.0764  -19586782.39344 -15244331.01142  20983686.9574   20983684.0464
        58.0004         50.0004
 05 10 14  3 23 30.0010000  0  5G 6G 5G10G 2G30
  23179858.6084  -11721662.27243  -9101088.22642  23179860.6404   23179858.6904
        50.0004         43.0004
  20662226.0834   -5741312.98644  -4454223.23642  20662226.9084   20662225.0064
        59.0004         52.0004
  21477228.3414  -18701168.25543 -14559073.05342  21477229.2904   21477227.4714
        56.0004         49.0004
  21552982.4594    3673500.10543   2866768.01942  21552983.6314   21552979.3234
        56.0004         49.0004
  20975894.1554  -19627725.40444 -15276234.66042  20975895.9384   20975892.7284
        58.0004         50.0004
 05 10 14  3 24  0.0010000  0  5G 6G 5G10G 2G30
  23166673.3204  -11790951.90743  -9155080.14342  23166675.9514   23166673.5384
        50.0004         44.0004
  20667957.9164   -5711192.02444  -4430752.36642  20667958.7314   20667956.7264
        59.0004         52.0004
  21467519.3904  -18752187.50543 -14598828.30042  21467520.3904   21467518.9584
        56.0004         49.0004
  21565706.1294    3740363.17143   2918869.10742  21565707.1544   21565702.7764
        56.0004         49.0004
  20968202.0234  -19668145.68644 -15307730.98742  20968203.8224   20968201.0554
        58.0004         50.0004
 05 10 14  3 24 30.0010000  0  5G 6G 5G10G 2G30
  23153492.8824  -11860214.43343  -9209050.93642  23153493.6134   23153493.6054
        50.0004         43.0004
  20673793.1314   -5680527.56744  -4406857.99242  20673794.1114   20673792.0914
        59.0004         52.0004
  21457914.3574  -18802662.60943 -14638159.53742  21457915.3274   21457913.9604
        56.0004         49.0004
  21578478.3624    3807481.13643   2971168.81642  21578479.6234   21578474.9884
        56.0004         49.0004
  20960609.6714  -19708043.89544 -15338820.50242  20960611.6954   20960608.6254
        58.0004         50.0004
 05 10 14  3 25  0.0010000  0  5G 6G 5G10G 2G30
  23140319.0754  -11929444.78843  -9262996.64742  23140320.4524   23140319.0994
        50.0004         43.0004
  20679732.3754   -5649315.69144  -4382537.06442  20679733.4494   20679731.5044
        59.0004         52.0004
  21448414.5554  -18852586.43743 -14677061.20842  21448415.1104   21448413.9814
        56.0004         49.0004
  21591299.3074    3874856.15143   3023668.82542  21591300.7524   21591295.9504
        56.0004         49.0004
  20953117.8764  -19747413.80444 -15369498.35442  20953119.5874   20953116.9474
        58.0004         50.0004
 05 10 14  3 25 30.0010000  0  5G 6G 5G10G 2G30
  23127150.3604  -11998643.99043  -9316918.09942  23127152.0274   23127149.3184
        49.0004         43.0004
  20685775.4954   -5617558.48744  -4357791.20442  20685776.8784   20685774.6014
        59.0004         51.0004
  21439019.0924  -18901958.47243 -14715532.90942  21439020.0594   21439018.3534
        56.0004         49.0004
  21604168.5794    3942484.85143   3076366.51442  21604170.0944   21604165.2054
        56.0004         49.0004
  20945726.6724  -19786255.08144 -15399764.28642  20945728.4904   20945725.5074
        58.0004         50.0004
 05 10 14  3 26  0.0010000  0  5G 6G 5G10G 2G30
  23113988.9624  -12067813.30243  -9370816.24942  23113989.8534   23113988.4324
        50.0004         43.0004
  20691922.0254   -5585258.47244  -4332622.37942  20691922.9884   20691921.2494
        59.0004         51.0004
  21429729.2784  -18950778.14143 -14753574.19542  21429730.2494   21429728.2934
        56.0004         49.0004
  21617085.5604    4010363.37143   3129258.87242  21617087.1864   21617082.3534
        56.0004         49.0004
  20938436.1714  -19824567.71344 -15429618.29142  20938438.0064   20938434.8564
        58.0004         50.0004
 05 10 14  3 26 30.0010000  0  5G 6G 5G10G 2G30
  23100831.9284  -12136952.02543  -9424690.56042  23100832.4914   23100830.4194
        50.0004         43.0004
  20698171.6134   -5552416.09944  -4307030.93642  20698172.6294   20698170.8334
        59.0004         51.0004
  21420544.5274  -18999043.19243 -14791183.31342  21420545.0054   21420543.4914
        56.0004         49.0004
  21630049.5894    4078489.84143   3182344.42742  21630050.9764   21630046.3544
        56.0004         49.0004
  20931245.9924  -19862349.84344 -15459058.91342  20931247.9414   20931245.0864
        58.0004         50.0004
 05 10 14  3 27  0.0010000  0  5G 6G 5G10G 2G30
  23087680.8734  -12206061.00043  -9478541.69142  23087682.3904   23087679.9214
        50.0004         44.0004
  20704524.4434   -5519033.48644  -4281018.52042  20704525.4714   20704523.3984
        59.0004         52.0004
  21411465.4824  -19046753.01943 -14828359.78442  21411466.6234   21411464.3504
        56.0004         49.0004
  21643060.4214    4146861.07243   3235620.70942  21643061.9884   21643056.7344
        56.0004         49.0004
  20924157.6624  -19899601.06944 -15488085.84342  20924159.3644   20924156.6924
        58.0004         50.0004
 05 10 14  3 27 30.0010000  0  5G 6G 5G10G 2G30
  23074535.7524  -12275136.29143  -9532366.58042  23074538.7594   23074535.8314
        50.0004         44.0004
  20710980.2444   -5485107.89244  -4254583.00342  20710981.2764   20710979.2814
        59.0004         51.0004
  21402493.0534  -19093901.81643 -14865099.09342  21402494.2424   21402492.9394
        56.0004         49.0004
  21656117.8244    4215478.52543   3289088.84942  21656119.2324   21656114.3114
        56.0004         49.0004
  20917170.7424  -19936316.28944 -15516695.10742  20917172.5924   20917169.8634
        58.0004         50.0004
 05 10 14  3 28  0.0010000  0  5G 6G 5G10G 2G30
  23061398.5574  -12344175.71643  -9586163.51942  23061399.3184   23061397.6044
        50.0004         44.0004
  20717539.5974   -5450638.58444  -4227723.80942  20717540.5534   20717538.5194
        59.0004         51.0004
  21393628.5164  -19140486.00243 -14901398.44942  21393629.6134   21393627.8204
        56.0004         49.0004
  21669221.8854    4284341.29643   3342748.14542  21669223.1514   21669218.6134
        56.0004         49.0004
  20910286.6544  -19972492.28044 -15544884.19242  20910288.4204   20910286.0714
        58.0004         50.0004
 05 10 14  3 28 30.0010000  0  5G 6G 5G10G 2G30
  23048266.2094  -12413185.49843  -9639937.36842  23048266.9304   23048265.3184
        50.0004         44.0004
  20724200.9234   -5415633.04144  -4200446.77342  20724201.8864   20724199.8384
        59.0004         51.0004
  21384870.2014  -19186510.20343 -14937261.45442  21384871.2964   21384869.8234
        56.0004         49.0004
  21682371.0224    4353440.79643   3396591.90842  21682372.7224   21682367.6664
        56.0004         49.0004
  20903504.4454  -20008134.07244 -15572657.02242  20903506.2004   20903503.5674
        58.0004         50.0004
 05 10 14  3 29  0.0010000  0  5G 6G 5G10G 2G30
  23035140.6924  -12482161.13343  -9693684.58742  23035141.9874   23035139.9264
        51.0004         44.0004
  20730964.8024   -5380087.94744  -4172749.30542  20730965.8054   20730964.2114
        59.0004         51.0004
  21376220.1184  -19231968.28843 -14972683.32642  21376220.6504   21376219.6374
        56.0004         49.0004
  21695565.8204    4422779.36943   3450621.96142  21695567.2154   21695562.2804
        56.0004         49.0004
  20896824.5644  -20043235.80844 -15600009.02442  20896826.5654   20896823.9284
        58.0004         50.0004
 05 10 14  3 29 30.0010000  0  5G 6G 5G10G 2G30
  23022021.8614  -12551099.89843  -9747403.09142  23022023.3204   23022020.5604
        51.0004         44.0004
  20737831.6064   -5344002.28644  -4144630.61942  20737832.7964   20737831.0634
        59.0004         51.0004
  21367678.4524  -19276856.26843 -15007660.95742  21367679.1954   21367677.8314
        56.0004         49.0004
  21708805.8954    4492356.85943   3504838.17942  21708807.4184   21708802.4564
        56.0004         49.0004
  20890248.5234  -20077794.08844 -15626937.55842  20890250.1134   20890247.5864
        58.0004         50.0004
 05 10 14  3 30  0.0010000  0  5G 6G 5G10G 2G30
  23008909.4684  -12620005.70443  -9801095.91842  23008910.2724   23008910.1014
        50.0004         44.0004
  20744800.3634   -5307381.13444  -4116094.66842  20744801.6534   20744799.5404
        59.0004         51.0004
  21359244.2964  -19321176.58743 -15042196.25742  21359245.0104   21359243.7804
        56.0004         49.0004
  21722090.1474    4562166.83843   3559235.56642  21722091.5214   21722087.0214
        56.0004         49.0004
  20883775.3184  -20111811.46544 -15653444.61342  20883777.1384   20883774.6074
        58.0004         50.0004
 05 10 14  3 30 30.0010000  0  5G 6G 5G10G 2G30
  22995804.1794  -12688874.97543  -9854760.26642  22995805.1304   22995802.8854
        51.0004         44.0004
  20751871.7384   -5270222.50844  -4087139.90842  20751872.5814   20751870.7394
        59.0004         51.0004
  21350919.4914  -19364924.22443 -15076285.31542  21350920.3854   21350919.0434
        56.0004         49.0004
  21735419.2884    4632210.06143   3613814.68742  21735420.0634   21735415.3784
        56.0004         49.0004
  20877405.7374  -20145283.60444 -15679526.79842  20877407.4834   20877404.8624
        58.0004         50.0004
 05 10 14  3 31  0.0010000  0  5G 6G 5G10G 2G30
  22982705.5134  -12757709.93743  -9908397.88542  22982706.7374   22982704.8294
        51.0004         44.0004
  20759044.2044   -5232529.95844  -4057769.09942  20759045.0324   20759043.3014
        59.0004         51.0004
  21342703.3544  -19408099.80943 -15109928.61642  21342703.7784   21342702.6254
        56.0004         49.0004
  21748791.5024    4702482.23943   3668572.22842  21748792.9064   21748788.2024
        56.0004         49.0004
  20871139.8094  -20178211.46744 -15705184.87842  20871141.4214   20871139.0544
        58.0004         50.0004
 05 10 14  3 31 30.0010000  0  5G 6G 5G10G 2G30
  22969613.7194  -12826506.72543  -9962005.76042  22969614.7194   22969613.9514
        51.0004         44.0004
  20766318.9344   -5194301.28444  -4027980.53242  20766319.9224   20766318.0314
        59.0004         51.0004
  21334597.4824  -19450698.51843 -15143122.40242  21334597.7004   21334596.6054
        56.0004         49.0004
  21762207.5474    4772984.19843   3723508.81742  21762208.7504   21762204.4174
        56.0004         49.0004
  20864978.2204  -20210590.43544 -15730415.24142  20864979.8924   20864977.2534
        58.0004         50.0004
 05 10 14  3 32  0.0010000  0  5G 6G 5G10G 2G30
  22956529.0704  -12895265.64743 -10015584.13142  22956530.6804   22956530.0074
        51.0004         44.0004
  20773695.3284   -5155538.16844  -3997775.52142  20773696.3364   20773694.4934
        59.0004         51.0004
  21326600.6514  -19492718.90843 -15175865.55342  21326601.4034   21326600.1174
        56.0004         49.0004
  21775666.8934    4843713.34843   3778622.43442  21775667.9754   21775663.3764
        56.0004         49.0004
  20858921.5154  -20242419.76844 -15755217.32442  20858923.1094   20858920.3614
        58.0004         50.0004
 05 10 14  3 32 30.0010000  0  5G 6G 5G10G 2G30
  22943451.4264  -12963990.49243 -10069135.94742  22943452.7634   22943451.3094
        50.0004         44.0004
  20781172.3384   -5116246.06044  -3967158.30842  20781173.2684   20781171.6624
        59.0004         51.0004
  21318714.3024  -19534163.63944 -15208160.13642  21318715.1054   21318713.2434
        57.0004         49.0004
  21789168.2934    4914663.40343   3833908.18842  21789169.4254   21789165.0254
        56.0004         49.0004
  20852968.6514  -20273702.30344 -15779593.33042  20852970.3854   20852967.3284
        58.0004         50.0004
 05 10 14  3 33  0.0010000  0  6G 6G 5G10G 2G30G21
  22930381.3434  -13032674.12043 -10122655.65142  22930383.0364   22930380.7094
        51.0004         44.0004
  20788751.1184   -5076419.29044  -3936124.47742  20788752.2464   20788750.2714
        59.0004         51.0004
  21310938.7334  -19575024.48943 -15239999.74642  21310939.7884   21310938.2224
        56.0004         49.0004
  21802712.1934    4985838.76743   3889369.51142  21802713.7554   21802709.3144
        56.0004         49.0004
  20847121.4094  -20304430.02144 -15803537.01142  20847122.8974   20847120.1394
        58.0004         50.0004
  24717478.9814   -7103759.26853  -5523910.44352  24717481.1104   24717478.2304
        46.0004         39.0004
 05 10 14  3 33 30.0010000  0  6G 6G 5G10G 2G30G21
  22917318.8834  -13101319.32343 -10176145.41042  22917319.5804   22917318.6484
        51.0004         44.0004
  20796430.8574   -5036062.33744  -3904677.52042  20796431.7474   20796430.3004
        59.0004         51.0004
  21303274.0474  -19615303.06244 -15271385.63342  21303274.8014   21303273.2344
        57.0004         49.0004
  21816298.3654    5057234.00343   3945002.15542  21816299.7574   21816295.4674
        56.0004         49.0004
  20841379.1724  -20334604.96744 -15827049.96242  20841381.0994   20841378.2484
        58.0004         51.0004
  24701308.5694   -7188733.90543  -5590124.41842  24701310.2544   24701308.3874
        46.0004         39.0004
 05 10 14  3 34  0.0010000  0  6G 6G 5G10G 2G30G21
  22904263.2424  -13169926.21743 -10229605.32142  22904265.7394   22904263.0304
        51.0004         44.0004
  20804211.0514   -4995176.96444  -3872818.80542  20804212.0684   20804210.3534
        59.0004         51.0004
  21295720.3004  -19654998.09844 -15302316.81942  21295720.6834   21295720.0854
        57.0004         49.0004
  21829925.8714    5128846.46943   4000804.06542  21829927.3124   21829922.7744
        56.0004         48.0004
  20835742.3044  -20364226.26544 -15850131.49842  20835744.1204   20835741.1924
        58.0004         50.0004
  24685167.7744   -7273555.21443  -5656218.89342  24685168.6394   24685167.0924
        46.0004         39.0004
 05 10 14  3 34 30.0010000  0  6G 6G 5G10G 2G30G21
  22891215.5634  -13238490.92443 -10283032.35542  22891217.3094   22891215.4794
        50.0004         44.0004
  20812092.3944   -4953760.98044  -3840546.63142  20812093.2724   20812091.3894
        59.0004         51.0004
  21288278.7344  -19694104.62944 -15332789.43042  21288279.4614   21288277.7894
        57.0004         49.0004
  21843594.7944    5200677.33043   4056776.16142  21843596.4794   21843591.4904
        56.0004         48.0004
  20830211.8414  -20393289.33844 -15872778.05142  20830213.7684   20830210.8264
        58.0004         50.0004
  24669056.7404   -7358218.77143  -5722190.48142  24669056.4594   24669055.5084
        46.0004         39.0004
 05 10 14  3 35  0.0010000  0  6G 6G 5G10G 2G30G21
  22878176.0844  -13307016.08843 -10336428.57142  22878177.0094   22878175.6524
        51.0004         44.0004
  20820073.7554   -4911818.66844  -3807864.32342  20820074.7454   20820072.7614
        59.0004         51.0004
  21280948.7214  -19732624.20644 -15362804.67042  21280949.2204   21280947.6834
        57.0004         49.0004
  21857304.6294    5272721.58343   4112914.54142  21857306.2164   21857301.0394
        56.0004         48.0004
  20824787.3494  -20421796.00144 -15894991.04342  20824789.1164   20824786.3424
        58.0004         51.0004
  24652975.1014   -7442727.08443  -5788041.07242  24652976.4434   24652974.4844
        46.0004         39.0004
 05 10 14  3 35 30.0010000  0  6G 6G 5G10G 2G30G21
  22865143.2974  -13375500.18643 -10389792.78542  22865144.7794   22865143.5784
        51.0004         44.0004
  20828155.3624   -4869350.21444  -3774772.03642  20828156.1934   20828154.3614
        59.0004         51.0004
  21273730.8274  -19770554.01444 -15392360.35442  21273731.3764   21273729.9994
        57.0004         49.0004
  21871054.3504    5344978.07843   4169218.29042  21871055.5154   21871050.8984
        55.0004         48.0004
  20819468.8144  -20449743.92944 -15916768.64942  20819470.7714   20819468.2134
        58.0004         51.0004
  24636923.5334   -7527078.62543  -5853769.50442  24636924.2594   24636922.1884
        46.0004         39.0004
 05 10 14  3 36  0.0010000  0  6G 6G 5G10G 2G30G21
  22852119.7704  -13443940.56143 -10443122.94042  22852120.1414   22852119.9194
        51.0004         44.0004
  20836337.1284   -4826354.78744  -3741269.12042  20836338.0644   20836336.1024
        59.0004         51.0004
  21266625.7144  -19807890.57944 -15421453.76942  21266626.5644   21266624.9544
        57.0004         49.0004
  21884844.6514    5417446.73843   4225687.37342  21884845.7824   21884841.5834
        55.0004         48.0004
  20814257.2824  -20477129.82244 -15938108.31042  20814259.3754   20814256.5154
        58.0004         51.0004
  24620902.2404   -7611270.79843  -5919373.77942  24620903.8314   24620901.5544
        46.0004         39.0004
 05 10 14  3 36 30.0010000  0  6G 6G 5G10G 2G30G21
  22839104.0164  -13512339.90743 -10496421.11142  22839105.3844   22839102.8124
        51.0004         44.0004
  20844618.1604   -4782836.95644  -3707359.13642  20844619.2824   20844617.4274
        59.0004         51.0004
  21259633.5924  -19844635.41544 -15450086.09642  21259634.3194   21259632.8854
        57.0004         49.0004
  21898674.6524    5490122.24843   4282317.63242  21898675.9184   21898671.2134
        56.0004         48.0004
  20809152.7894  -20503955.69544 -15959011.59242  20809154.5684   20809151.8644
        58.0004         51.0004
  24604910.9974   -7695306.27243  -5984855.94042  24604911.7204   24604909.4194
        46.0004         39.0004
 05 10 14  3 37  0.0010000  0  6G 6G 5G10G 2G30G21
  22826095.8864  -13580697.75343 -10549686.95842  22826096.9824   22826094.8294
        51.0004         45.0004
  20852998.4174   -4738797.92644  -3673043.02242  20852999.4394   20852997.6864
        58.0004         51.0004
  21252753.9404  -19880786.98743 -15478256.14642  21252754.7434   21252753.3034
        56.0004         49.0004
  21912543.0074    5563002.57043   4339107.49142  21912544.3844   21912539.9904
        55.0004         48.0004
  20804154.8744  -20530220.41944 -15979477.61242  20804156.4954   20804153.5864
        58.0004         51.0004
  24588949.1704   -7779184.34143  -6050215.44742  24588950.5394   24588947.7364
        46.0004         39.0004
 05 10 14  3 37 30.0010000  0  6G 6G 5G10G 2G30G21
  22813096.9634  -13649008.21443 -10602915.88242  22813097.7924   22813096.1164
        51.0004         45.0004
  20861478.7804   -4694233.72444  -3638317.68742  20861479.7724   20861478.1644
        58.0004         51.0004
  21245988.8064  -19916338.79444 -15505958.84042  21245989.3154   21245987.7964
        57.0004         49.0004
  21926451.2494    5636091.11443   4396059.60142  21926452.9714   21926447.9594
        55.0004         48.0004
  20799264.6604  -20555917.49244 -15999501.31042  20799266.6644   20799263.7634
        58.0004         51.0004
  24573019.1834   -7862899.29343  -6115447.84742  24573019.7884   24573017.1674
        47.0004         40.0004
 05 10 14  3 38  0.0010000  0  6G 6G 5G10G 2G30G21
  22800106.4904  -13717274.94743 -10656110.73142  22800107.2424   22800106.0164
        51.0004         45.0004
  20870058.0024   -4649149.80144  -3603187.37442  20870059.1364   20870057.0634
        59.0004         51.0004
  21239337.0704  -19951293.39743 -15533196.18142  21239337.5154   21239336.2234
        56.0004         49.0004
  21940398.1624    5709381.56443   4453169.03242  21940399.3104   21940394.5434
        55.0004         48.0004
  20794482.1684  -20581049.80544 -16019084.93642  20794484.1014   20794481.5384
        58.0004         51.0004
  24557119.1584   -7946454.80743  -6180556.02842  24557120.4274   24557118.8244
        47.0004         40.0004
 05 10 14  3 38 30.0010000  0  6G 6G 5G10G 2G30G21
  22787123.8174  -13785497.56243 -10709271.20042  22787124.7824   22787124.1434
        52.0004         45.0004
  20878735.8664   -4603547.87144  -3567653.42042  20878736.7444   20878734.8954
        59.0004         51.0004
  21232799.1804  -19985649.58744 -15559967.23042  21232800.0144   21232798.7944
        57.0004         49.0004
  21954382.9394    5782871.53743   4510433.94542  21954384.3844   21954379.6084
        55.0004         48.0004
  20789807.5244  -20605616.63344 -16038227.92442  20789809.1604   20789806.2874
        58.0004         51.0004
  24541249.3494   -8029850.50143  -6245539.64142  24541251.0624   24541248.6314
        48.0004         40.0004
 05 10 14  3 39  0.0010000  0  6G 6G 5G10G 2G30G21
  22774150.3114  -13853672.41043 -10762394.44842  22774151.3824   22774150.1484
        51.0004         45.0004
  20887512.4314   -4557425.95444  -3531714.28142  20887513.2604   20887511.0924
        58.0004         51.0004
  21226376.4184  -20019402.75144 -15586268.38842  21226377.0394   21226375.2804
        57.0004         49.0004
  21968405.6254    5856562.24343   4567855.26342  21968406.9414   21968402.4554
        55.0004         48.0004
  20785241.1404  -20629613.55544 -16056926.83342  20785242.8704   20785239.7144
        58.0004         51.0004
  24525410.2694   -8113082.24443  -6310395.51442  24525410.9994   24525411.1564
        47.0004         40.0004
 05 10 14  3 39 30.0010000  0  6G 6G 5G10G 2G30G21
  22761185.3734  -13921804.50943 -10815484.37742  22761186.5254   22761185.2154
        51.0004         45.0004
  20896386.5334   -4510791.13444  -3495375.47242  20896387.3834   20896385.8244
        58.0004         51.0004
  21220067.1444  -20052557.21844 -15612103.02742  21220067.7624   21220066.4124
        57.0004         50.0004
  21982464.8344    5930445.93843   4625426.97842  21982466.1854   21982461.8724
        55.0004         48.0004
  20780781.9224  -20653045.15544 -16075185.23042  20780783.7254   20780781.0684
        58.0004         51.0004
  24509602.8434   -8196155.63343  -6375128.00342  24509604.1044   24509600.3704
        48.0004         40.0004
 05 10 14  3 40  0.0010000  0  6G 6G 5G10G 2G30G21
  22748229.3014  -13989888.40543 -10868536.75442  22748231.2044   22748228.3004
        51.0004         45.0004
  20905359.1924   -4463639.97244  -3458634.32042  20905360.1844   20905358.6324
        58.0004         51.0004
  21213873.0474  -20085106.78344 -15637466.31142  21213873.7304   21213872.5144
        57.0004         49.0004
  21996562.3374    6004525.46143   4683151.27642  21996563.9364   21996558.3974
        55.0004         48.0004
  20776431.7554  -20675905.61844 -16092998.58242  20776433.5684   20776430.8024
        58.0004         51.0004
  24493825.3734   -8279065.17943  -6439732.81742  24493828.1434   24493823.6744
        47.0004         40.0004
 05 10 14  3 40 30.0010000  0  6G 6G 5G10G 2G30G21
  22735282.9464  -14057921.76443 -10921549.74542  22735284.0704   22735282.5314
        51.0004         45.0004
  20914430.0814   -4415972.02544  -3421490.48142  20914431.3664   20914429.5324
        58.0004         51.0004
  21207794.9334  -20117048.27344 -15662355.77542  21207795.3994   21207794.1134
        57.0004         49.0004
  22010696.3574    6078800.66943   4741028.05442  22010697.3154   22010692.8254
        55.0004         48.0004
  20772190.7894  -20698191.89144 -16110364.51342  20772192.6634   20772189.7604
        58.0004         51.0004
  24478079.9864   -8361808.50443  -6504208.09142  24478082.3244   24478080.1234
        48.0004         40.0004
 05 10 14  3 41  0.0010000  0  6G 6G 5G10G 2G30G21
  22722345.8114  -14125908.00943 -10974526.03542  22722347.2364   22722345.5974
        51.0004         45.0004
  20923598.4444   -4367792.89344  -3383948.31442  20923599.4434   20923597.8424
        58.0004         51.0004
  21201831.7394  -20148384.25244 -15686773.41042  21201832.7434   21201830.9054
        57.0004         49.0004
  22024866.1574    6153265.45943   4799052.56342  22024867.2654   22024862.7564
        55.0004         48.0004
  20768058.5344  -20719907.17044 -16127285.51642  20768060.4474   20768057.6294
        58.0004         51.0004
  24462364.8784   -8444389.42343  -6568556.83942  24462367.1124   24462364.1674
        48.0004         40.0004
 05 10 14  3 41 30.0010000  0  6G 6G 5G10G 2G30G21
  22709417.5204  -14193843.17943 -11027462.52842  22709418.8294   22709417.6394
        51.0004         45.0004
  20932864.3584   -4319100.59244  -3346006.27942  20932865.2624   20932863.6824
        58.0004         51.0004
  21195985.0404  -20179110.01144 -15710715.55142  21195985.5604   21195984.0124
        57.0004         50.0004
  22039072.9114    6227921.20443   4857225.86342  22039074.1344   22039069.6344
        55.0004         48.0004
  20764035.9024  -20741046.93544 -16143758.06742  20764037.6674   20764035.1104
        58.0004         51.0004
  24446682.0314   -8526803.56843  -6632775.62442  24446683.3394   24446680.2754
        48.0004         40.0004
 05 10 14  3 42  0.0010000  0  6G 6G 5G10G 2G30G21
  22696499.6114  -14261729.75443 -11080361.14742  22696500.8324   22696498.5204
        52.0004         45.0004
  20942227.1614   -4269899.67144  -3307667.91642  20942227.7574   20942226.1574
        58.0004         51.0004
  21190253.6224  -20209227.55144 -15734183.75442  21190254.6824   21190252.8324
        57.0004         50.0004
  22053314.8714    6302762.80643   4915543.98442  22053316.5534   22053311.2904
        55.0004         48.0004
  20760122.3084  -20761613.24944 -16159783.77342  20760124.1734   20760121.2914
        58.0004         51.0004
  24431030.8904   -8609053.88143  -6696866.76442  24431031.8464   24431026.8614
        47.0004         40.0004
 05 10 14  3 42 30.0010000  0  6G 6G 5G10G 2G30G21
  22683590.5744  -14329565.12843 -11133219.86042  22683593.2684   22683589.6454
        51.0004         45.0004
  20951686.6754   -4220189.74144  -3268932.92042  20951687.5234   20951685.5664
        59.0004         51.0004
  21184638.7064  -20238734.02443 -15757175.80142  21184639.5684   21184637.9774
        56.0004         50.0004
  22067592.1624    6377790.06643   4974006.78142  22067593.3634   22067588.5634
        55.0004         48.0004
  20756318.1694  -20781603.42744 -16175360.54442  20756320.1024   20756317.3084
        58.0004         51.0004
  24415409.8954   -8691137.92343  -6760828.33142  24415411.1864   24415409.0664
        47.0004         40.0004
 05 10 14  3 43  0.0010000  0  6G 6G 5G10G 2G30G21
  22670692.2414  -14397346.66843 -11186036.63742  22670694.1944   22670692.0144
        51.0004         45.0004
  20961242.8954   -4169970.34244  -3229800.93642  20961243.9834   20961241.8624
        58.0004         51.0004
  21179140.8774  -20267626.06244 -15779689.07142  21179141.6624   21179140.1664
        57.0004         50.0004
  22081904.7664    6453003.04143   5032614.28942  22081905.9124   22081900.6724
        55.0004         48.0004
  20752624.4854  -20801014.46644 -16190486.03642  20752626.4504   20752623.7304
        58.0004         51.0004
  24399822.6024   -8773053.13143  -6824658.34742  24399824.2944   24399820.3714
        47.0004         40.0004
 05 10 14  3 43 30.0010000  0  6G 6G 5G10G 2G30G21
  22657803.8784  -14465079.13943 -11238815.17242  22657804.9554   22657803.9104
        52.0004         45.0004
  20970894.8934   -4119248.42944  -3190277.38742  20970895.9754   20970894.0424
        58.0004         51.0004
  21173758.7794  -20295907.63443 -15801726.65342  21173759.6514   21173758.1294
        56.0004         50.0004
  22096251.1904    6528394.38343   5091360.78442  22096252.3464   22096248.0134
        55.0004         48.0004
  20749040.0764  -20819850.77344 -16205163.68942  20749042.0264   20749039.1444
        58.0004         51.0004
  24384265.4694   -8854804.10443  -6888360.37642  24384266.1904   24384266.3874
        47.0004         40.0004
 05 10 14  3 44  0.0010000  0  6G 6G 5G10G 2G30G21
  22644924.8624  -14532757.31343 -11291551.40642  22644925.7324   22644924.5954
        52.0004         45.0004
  20980643.2654   -4068020.93844  -3150359.87642  20980644.3054   20980642.5314
        58.0004         51.0004
  21168494.4564  -20323573.17444 -15823284.20642  21168495.0174   21168493.7024
        57.0004         50.0004
  22110632.0374    6603966.69043   5150248.29642  22110633.4994   22110628.1534
        55.0004         47.0004
  20745566.0594  -20838106.99344 -16219389.32242  20745567.9544   20745565.0844
        58.0004         51.0004
  24368741.0744   -8936386.43843  -6951931.02042  24368742.3234   24368739.1964
        48.0004         40.0004
 05 10 14  3 44 30.0010000  0  6G 6G 5G10G 2G30G21
  22632056.4694  -14600381.21943 -11344245.35142  22632057.5494   22632055.7084
        52.0004         45.0004
  20990487.3934   -4016289.93844  -3110050.02242  20990488.5014   20990486.5374
        58.0004         51.0004
  21163347.1244  -20350622.04544 -15844361.23742  21163348.0264   21163346.4274
        57.0004         50.0004
  22125046.9344    6679717.41943   5209274.83242  22125048.2054   22125043.5644
        55.0004         48.0004
  20742202.2644  -20855782.70244 -16233162.61142  20742204.2754   20742201.2494
        58.0004         51.0004
  24353249.1064   -9017799.89643  -7015370.06242  24353249.1804   24353247.7264
        48.0004         40.0004
 05 10 14  3 45  0.0010000  0  6G 6G 5G10G 2G30G21
  22619198.0784  -14667950.88043 -11396897.03242  22619199.6344   22619198.3634
        52.0004         45.0004
  21000426.7524   -3964058.03244  -3069349.85342  21000427.8774   21000425.9464
        58.0004         51.0004
  21158317.2614  -20377054.14244 -15864957.66742  21158317.9694   21158316.2454
        57.0004         49.0004
  22139495.3064    6755643.90743   5268438.31942  22139496.4654   22139491.6014
        54.0004         47.0004
  20738949.2754  -20872878.00644 -16246483.63442  20738951.2574   20738948.2264
        58.0004         51.0004
  24337787.9274   -9099044.98143  -7078677.89942  24337789.6404   24337786.0054
        47.0004         40.0004
 05 10 14  3 45 30.0010000  0  6G 6G 5G10G 2G30G21
  22606350.4724  -14735464.92043 -11449505.36442  22606352.2224   22606350.6774
        52.0004         45.0004
  21010461.3964   -3911325.94444  -3028259.93242  21010462.5134   21010460.7624
        58.0004         51.0004
  21153405.3644  -20402867.56444 -15885072.01542  21153406.0814   21153404.3944
        57.0004         50.0004
  22153976.5214    6831744.79743   5327737.71142  22153978.2574   22153973.6134
        54.0004         47.0004
  20735806.8964  -20889391.22144 -16259351.08042  20735808.7544   20735806.0684
        58.0004         51.0004
  24322360.6344   -9180120.23443  -7141853.41142  24322360.4484   24322358.1284
        48.0004         40.0004
 05 10 14  3 46  0.0010000  0  6G 6G 5G10G 2G30G21
  22593513.8834  -14802923.55143 -11502070.52742  22593515.4764   22593512.7964
        52.0004         45.0004
  21020590.7874   -3858096.09044  -2986782.14042  21020591.8484   21020589.8274
        58.0004         51.0004
  21148610.9804  -20428061.90144 -15904703.95642  21148611.5394   21148610.0144
        57.0004         50.0004
  22168490.7434    6908017.29743   5387170.81942  22168491.9704   22168487.6914
        54.0004         47.0004
  20732775.2494  -20905322.36844 -16271764.96542  20732777.2094   20732774.5614
        58.0004         51.0004
  24306963.9174   -9261025.92643  -7204896.78242  24306964.2714   24306962.7154
        48.0004         40.0004
 05 10 14  3 46 30.0010000  0  6G 6G 5G10G 2G30G21
  22580687.8764  -14870324.36043 -11554590.63542  22580689.4104   22580688.2464
        52.0004         45.0004
  21030814.7924   -3804368.49544  -2944916.49742  21030815.6514   21030813.7584
        58.0004         51.0004
  21143934.9854  -20452634.67144 -15923851.56142  21143935.6764   21143934.0654
        57.0004         50.0004
  22183037.9884    6984461.24643   5446737.53642  22183038.8594   22183034.2264
        54.0004         47.0004
  20729854.9044  -20920668.97644 -16283723.36742  20729856.7354   20729854.0794
        58.0004         51.0004
  24291600.5844   -9341760.43043  -7267806.76842  24291603.0514   24291598.6164
        48.0004         40.0004
 05 10 14  3 47  0.0010000  0  6G 6G 5G10G 2G30G21
  22567873.2094  -14937665.88543 -11607064.54842  22567874.7634   22567872.7724
        53.0004         46.0004
  21041133.3184   -3750144.23144  -2902663.84242  21041134.0704   21041132.2504
        58.0004         51.0004
  21139377.3404  -20476584.21744 -15942513.53742  21139378.4434   21139376.6004
        57.0004         50.0004
  22197616.7584    7061075.29843   5506436.78742  22197618.3804   22197614.2984
        54.0004         47.0004
  20727046.2254  -20935429.63544 -16295225.18942  20727047.8874   20727045.0044
        58.0004         51.0004
  24276270.5384   -9422322.49243  -7330582.38242  24276272.0454   24276268.1244
        48.0004         40.0004
 05 10 14  3 47 30.0010000  0  6G 6G 5G10G 2G30G21
  22555069.1094  -15004951.84843 -11659495.16542  22555070.9754   22555068.3394
        53.0004         46.0004
  21051545.2464   -3695429.11844  -2860028.70142  21051546.3114   21051543.9664
        58.0004         51.0004
  21134937.6834  -20499913.65944 -15960692.31542  21134938.5704   21134937.5184
        57.0004         50.0004
  22212227.4644    7137853.45643   5566263.91842  22212228.7804   22212224.2244
        54.0004         47.0004
  20724348.1204  -20949607.76844 -16306273.09342  20724349.7974   20724347.0744
        58.0004         51.0004
  24260971.7624   -9502715.75643  -7393226.47442  24260974.5894   24260970.8364
        47.0004         40.0004
 05 10 14  3 48  0.0010000  0  6G 6G 5G10G 2G30G21
  22542277.0754  -15072175.84643 -11711877.49542  22542278.6434   22542276.6444
        53.0004         45.0004
  21062051.1994   -3640219.28444  -2817008.06842  21062052.0034   21062050.2964
        58.0004         51.0004
  21130617.8394  -20522616.65044 -15978382.95042  21130618.3224   21130616.5664
        57.0004         50.0004
  22226869.9594    7214799.18343   5626221.62142  22226871.0824   22226866.4144
        54.0004         47.0004
  20721762.0444  -20963197.36644 -16316862.40342  20721763.9354   20721761.1674
        58.0004         51.0004
  24245707.1614   -9582934.11543  -7455734.26642  24245707.5924   24245706.1164
        48.0004         40.0004
 05 10 14  3 48 30.0010000  0  6G 6G 5G10G 2G30G21
  22529495.2494  -15139341.61343 -11764214.44842  22529497.2614   22529494.9034
        52.0004         46.0004
  21072650.1024   -3584520.99044  -2773606.81342  21072651.2754   21072649.4274
        58.0004         51.0004
  21126415.9944  -20544696.68044 -15995588.15642  21126416.8544   21126415.1974
        57.0004         50.0004
  22241542.8444    7291906.00143   5686304.84242  22241544.0434   22241539.4534
        54.0004         47.0004
  20719287.3244  -20976202.00544 -16326995.89542  20719289.3214   20719286.3324
        58.0004         51.0004
  24230475.0654   -9662981.83743  -7518109.10842  24230475.8034   24230471.9894
        48.0004         40.0004
 05 10 14  3 49  0.0010000  0  6G 6G 5G10G 2G30G21
  22516726.1934  -15206443.96743 -11816501.99142  22516727.4254   22516726.1384
        52.0004         45.0004
  21083342.9144   -3528331.55044  -2729822.84742  21083343.6494   21083342.5984
        58.0004         51.0004
  21122333.9884  -20566148.61444 -16012303.93642  21122334.8254   21122332.9244
        57.0004         50.0004
  22256246.9064    7369176.63743   5746515.72442  22256248.1174   22256243.5924
        54.0004         47.0004
  20716924.8534  -20988616.46844 -16336669.51342  20716926.8324   20716924.3304
        58.0004         51.0004
  24215275.6044   -9742853.96343  -7580347.12142  24215278.0194   24215276.1784
        48.0004         40.0004
 05 10 14  3 49 30.0010000  0  6G 6G 5G10G 2G30G21
  22503968.4724  -15273487.12243 -11868743.40442  22503969.9474   22503967.8924
        52.0004         45.0004
  21094127.6444   -3471657.53944  -2685661.29742  21094128.5094   21094126.9274
        58.0004         51.0004
  21118370.7654  -20586976.39344 -16028533.36542  21118371.4994   21118369.5664
        57.0004         50.0004
  22270980.6444    7446604.40943   5806849.04642  22270981.7674   22270977.3594
        54.0004         47.0004
  20714673.9004  -21000445.12144 -16345886.65342  20714675.9614   20714673.3024
        58.0004         51.0004
  24200108.8714   -9822554.90343  -7642451.73642  24200108.8114   24200109.1204
        49.0004         40.0004
 05 10 14  3 50  0.0010000  0  6G 6G 5G10G 2G30G21
  22491223.6644  -15340464.40243 -11920933.47942  22491224.5294   22491222.4014
        53.0004         45.0004
  21105005.3734   -3414494.85644  -2641118.95942  21105006.0924   21105004.6424
        58.0004         51.0004
  21114527.2404  -20607173.29544 -16044271.20342  21114527.7704   21114526.5844
        57.0004         50.0004
  22285744.9034    7524192.84743   5867307.56342  22285746.6064   22285742.2884
        54.0004         47.0004
  20712535.7794  -21011681.50044 -16354642.28042  20712537.5904   20712534.8644
        58.0004         51.0004
  24184975.5374   -9902078.64243  -7704418.27542  24184976.2914   24184973.3634
        47.0004         40.0004
 05 10 14  3 50 30.0010000  0  6G 6G 5G10G 2G30G21
  22478489.5614  -15407379.56043 -11973075.15242  22478491.0624   22478489.4264
        52.0004         46.0004
  21115975.0324   -3356849.81744  -2596200.75642  21115975.6854   21115974.1364
        58.0004         51.0004
  21110803.0104  -20626743.17044 -16059520.44342  21110803.7674   21110802.2164
        57.0004         50.0004
  22300539.0844    7601935.76743   5927886.45242  22300540.2134   22300535.8284
        53.0004         47.0004
  20710509.7254  -21022329.58244 -16362939.49842  20710511.6374   20710508.8324
        58.0004         51.0004
  24169875.6104   -9981429.44743  -7766250.06542  24169877.7054   24169873.5354
        48.0004         41.0004
 05 10 14  3 51  0.0010000  0  6G 6G 5G10G 2G30G21
  22465768.6334  -15474228.14643 -12025164.95642  22465770.0304   22465768.6304
        52.0004         46.0004
  21127036.4584   -3298720.69244  -2550905.34642  21127037.2244   21127035.8024
        58.0004         51.0004
  21107198.9364  -20645681.50444 -16074277.58442  21107199.8344   21107198.3624
        57.0004         50.0004
  22315363.0994    7679835.09743   5988587.22842  22315364.4944   22315359.7824
        54.0004         47.0004
  20708596.2134  -21032385.13744 -16370775.00542  20708598.0124   20708595.3284
        58.0004         51.0004
  24154809.8464  -10060602.55943  -7827943.38942  24154810.1524   24154808.1514
        48.0004         41.0004
 05 10 14  3 51 30.0010000  0  6G 6G 5G10G 2G30G21
  22453059.7474  -15541014.88243 -12077206.56242  22453061.2934   22453059.1064
        53.0004         46.0004
  21138188.6064   -3240114.39444  -2505238.11242  21138189.7484   21138188.0244
        58.0004         50.0004
  21103714.3664  -20663993.02144 -16088546.29342  21103715.3454   21103713.8284
        57.0004         50.0004
  22330214.8904    7757883.94143   6049404.49742  22330216.8404   22330211.5004
        53.0004         47.0004
  20706794.3804  -21041852.74744 -16378152.37242  20706796.2174   20706793.5494
        58.0004         51.0004
  24139776.5584  -10139603.33543  -7889502.42442  24139777.4394   24139776.6504
        49.0004         41.0004
 05 10 14  3 52  0.0010000  0  6G 6G 5G10G 2G30G21
  22440363.8054  -15607733.22443 -12129194.88042  22440365.2934   22440362.9434
        53.0004         46.0004
  21149432.6594   -3181027.40044  -2459196.30942  21149433.6124   21149432.0324
        58.0004         50.0004
  21100350.6214  -20681671.48444 -16102321.70742  21100351.2614   21100349.6894
        57.0004         50.0004
  22345096.7624    7836085.57743   6110340.83242  22345097.8434   22345093.6314
        54.0004         47.0004
  20705105.9254  -21050726.47644 -16385066.97542  20705107.7654   20705105.0684
        58.0004         51.0004
  24124776.7494  -10218426.10543  -7950922.74142  24124778.5004   24124775.2244
        48.0004         41.0004
 05 10 14  3 52 30.0010000  0  6G 6G 5G10G 2G30G21
  22427680.1734  -15674384.81743 -12181131.18442  22427681.5214   22427679.4384
        53.0004         46.0004
  21160767.1634   -3121463.71944  -2412783.06042  21160768.1564   21160766.6304
        58.0004         50.0004
  21097106.6694  -20698718.31144 -16115604.93942  21097107.4404   21097106.0774
        57.0004         50.0004
  22360006.3094    7914435.74843   6171392.91142  22360007.6184   22360002.2724
        54.0004         47.0004
  20703530.0464  -21059008.00144 -16391520.11942  20703531.8424   20703529.4744
        58.0004         51.0004
  24109811.1494  -10297072.52043  -8012205.65942  24109812.4134   24109810.3774
        49.0004         41.0004
 05 10 14  3 53  0.0010000  0  6G 6G 5G10G 2G30G21
  22415010.1014  -15740966.46043 -12233012.97742  22415011.7434   22415008.7974
        53.0004         46.0004
  21172192.7884   -3061423.11344  -2365998.18642  21172193.5644   21172192.0694
        58.0004         50.0004
  21093983.0194  -20715130.66744 -16128393.78242  21093984.0684   21093982.5204
        57.0004         50.0004
  22374944.3364    7992935.22343   6232561.31942  22374945.8194   22374941.3714
        54.0004         47.0004
  20702067.4394  -21066694.75544 -16397509.80142  20702069.0904   20702066.4794
        58.0004         51.0004
  24094878.6014  -10375540.07943  -8073349.20342  24094880.4004   24094879.1484
        49.0004         41.0004
 05 10 14  3 53 30.0010000  0  6G 6G 5G10G 2G30G21
  22402353.0554  -15807480.06843 -12284841.75642  22402354.0224   22402352.1424
        53.0004         46.0004
  21183707.7914   -3000909.91444  -2318845.06042  21183708.9224   21183707.1264
        58.0004         50.0004
  21090980.6904  -20730910.47444 -16140689.72842  21090981.6124   21090980.0104
        57.0004         50.0004
  22389909.4254    8071579.25243   6293842.37142  22389911.0024   22389906.4194
        53.0004         47.0004
  20700717.3844  -21073788.75444 -16403037.59942  20700719.1334   20700716.4874
        58.0004         51.0004
  24079980.4394  -10453830.88743  -8134355.02742  24079980.6454   24079980.1434
        49.0004         41.0004
 05 10 14  3 54  0.0010000  0  6G 6G 5G10G 2G30G21
  22389709.2744  -15873924.10043 -12336616.32642  22389710.1864   22389708.7614
        53.0004         46.0004
  21195312.9784   -2939925.39644  -2271324.67242  21195314.0704   21195312.4314
        58.0004         50.0004
  21088098.7644  -20746056.55244 -16152491.85842  21088099.4564   21088097.7194
        57.0004         50.0004
  22404902.2674    8150366.96943   6355235.38042  22404903.4144   22404899.5454
        53.0004         47.0004
  20699480.3024  -21080288.88244 -16408102.63942  20699482.1284   20699479.6004
        58.0004         51.0004
  24065115.9044  -10531943.88743  -8195222.28642  24065117.2844   24065114.1714
        48.0004         41.0004
 05 10 14  3 54 30.0010000  0  6G 6G 5G10G 2G30G21
  22377078.3154  -15940300.55843 -12388338.23842  22377079.3584   22377077.4914
        53.0004         46.0004
  21207006.8974   -2878474.41844  -2223440.80642  21207007.9454   21207005.8394
        58.0004         50.0004
  21085336.4004  -20760571.23544 -16163801.99042  21085337.3524   21085335.6474
        57.0004         50.0004
  22419921.4094    8229293.40843   6416736.48242  22419922.9694   22419918.2754
        54.0004         47.0004
  20698355.8334  -21086197.73444 -16412706.94642  20698357.8964   20698355.3024
        58.0004         51.0004
  24050285.1644  -10609881.73943  -8255953.06142  24050286.7924   24050284.2484
        49.0004         41.0004
 05 10 14  3 55  0.0010000  0  6G 6G 5G10G 2G30G21
  22364461.8644  -16006600.42743 -12440000.46942  22364463.2334   22364461.2404
        53.0004         46.0004
  21218790.2334   -2816550.71544  -2175188.58142  21218791.4474   21218789.7604
        58.0004         50.0004
  21082696.1434  -20774445.63944 -16174613.20642  21082696.9144   21082695.1634
        57.0004         50.0004
  22434968.4634    8308365.17143   6478350.84142  22434970.2184   22434965.5174
        54.0004         47.0004
  20697345.7344  -21091506.81344 -16416843.90142  20697347.6584   20697344.9914
        58.0004         51.0004
  24035489.4104  -10687635.98043  -8316540.76342  24035490.2194   24035489.1284
        49.0004         41.0004
 05 10 14  3 55 30.0010000  0  6G 6G 5G10G 2G30G21
  22351859.2644  -16072828.85443 -12491607.02342  22351860.9394   22351858.4874
        53.0004         46.0004
  21230662.3064   -2754162.11044  -2126574.09342  21230663.4994   21230661.9174
        58.0004         50.0004
  21080176.4434  -20787685.30844 -16184929.82242  21080177.2324   21080176.0544
        57.0004         50.0004
  22450041.6114    8387574.55243   6540072.42742  22450042.6804   22450037.8984
        54.0004         46.0004
  20696448.5784  -21096221.47244 -16420517.66942  20696450.6394   20696447.8864
        59.0004         51.0004
  24020726.9984  -10765212.06543  -8376989.65842  24020729.0614   24020724.5204
        49.0004         41.0004
 05 10 14  3 56  0.0010000  0  6G 6G 5G10G 2G30G21
  22339269.8164  -16138984.01243 -12543156.48942  22339271.1014   22339269.4064
        53.0004         46.0004
  21242622.8294   -2691309.74244  -2077598.23342  21242623.7654   21242621.8224
        57.0004         50.0004
  21077778.2324  -20800288.98644 -16194750.86042  21077779.0484   21077777.6084
        57.0004         50.0004
  22465140.4754    8466920.43443   6601900.38942  22465141.7964   22465137.5584
        54.0004         46.0004
  20695664.8504  -21100340.67644 -16423727.45042  20695666.6074   20695663.6454
        59.0004         51.0004
  24005998.9854  -10842608.71243  -8437298.72342  24005999.5714   24005997.9294
        49.0004         41.0004
 05 10 14  3 56 30.0010000  0  6G 6G 5G10G 2G30G21
  22326695.0094  -16205064.41343 -12594647.70242  22326696.3974   22326694.4144
        53.0004         46.0004
  21254671.2334   -2627994.81244  -2028261.93942  21254672.1264   21254670.7224
        58.0004         50.0004
  21075501.1434  -20812255.34644 -16204075.29242  21075501.6714   21075500.2824
        57.0004         50.0004
  22480265.6234    8546401.90243   6663833.98642  22480267.0484   22480262.3704
        54.0004         46.0004
  20694994.4394  -21103863.19044 -16426472.27842  20694996.3224   20694993.3904
        59.0004         51.0004
  23991304.5324  -10919824.97443  -8497467.22742  23991306.5944   23991304.6474
        49.0004         42.0004
 05 10 14  3 57  0.0010000  0  6G 6G 5G10G 2G30G21
  22314135.1424  -16271068.83143 -12646079.71042  22314136.8514   22314134.3704
        53.0004         46.0004
  21266807.5284   -2564219.13544  -1978566.62042  21266808.4734   21266806.5514
        58.0004         50.0004
  21073345.3954  -20823583.75344 -16212902.61542  21073345.9274   21073344.7764
        57.0004         50.0004
  22495415.3064    8626017.44143   6725872.06542  22495416.8944   22495411.7104
        53.0004         46.0004
  20694437.6184  -21106788.54844 -16428751.78942  20694439.4584   20694436.9984
        58.0004         51.0004
  23976645.5534  -10996860.29543  -8557494.73842  23976646.9384   23976643.1214
        49.0004         42.0004
 05 10 14  3 57 30.0010000  0  6G 6G 5G10G 2G30G21
  22301589.4514  -16336996.86143 -12697452.19242  22301591.4724   22301589.0534
        54.0004         46.0004
  21279030.7894   -2499985.04644  -1928514.09942  21279031.6174   21279029.9774
        57.0004         50.0004
  21071311.0014  -20834274.33744 -16221232.92742  21071311.8744   21071310.0084
        57.0004         50.0004
  22510591.4074    8705764.91343   6788012.94842  22510592.9704   22510587.2204
        54.0004         46.0004
  20693994.6204  -21109116.95844 -16430566.14242  20693996.4514   20693993.7834
        58.0004         51.0004
  23962021.3524  -11073714.76543  -8617381.32842  23962022.2774   23962019.7014
        50.0004         42.0004
 05 10 14  3 58  0.0010000  0  6G 6G 5G10G 2G30G21
  22289058.3664  -16402847.88743 -12748764.68042  22289059.8704   22289058.4324
        54.0004         46.0004
  21291341.1754   -2435294.86344  -1878106.18342  21291341.9284   21291340.4954
        58.0004         50.0004
  21069397.7514  -20844327.00644 -16229066.16342  21069398.4014   21069397.2414
        57.0004         50.0004
  22525791.3734    8785642.21443   6850254.99842  22525792.4334   22525787.7514
        53.0004         46.0004
  20693665.2504  -21110848.36444 -16431915.29942  20693667.1964   20693664.3744
        58.0004         51.0004
  23947430.4824  -11150388.10043  -8677126.76542  23947431.9724   23947426.7224
        49.0004         42.0004
 05 10 14  3 58 30.0010000  0  6G 6G 5G10G 2G30G21
  22276542.0954  -16468620.56643 -12800016.11442  22276543.5794   22276541.3384
        53.0004         46.0004
  21303737.5384   -2370150.31844  -1827344.21842  21303738.6024   21303736.9314
        58.0004         50.0004
  21067606.4354  -20853741.02444 -16236401.74942  21067607.4724   21067606.2004
        57.0004         50.0004
  22541016.0054    8865647.91743   6912597.10342  22541017.6764   22541012.6154
        54.0004         46.0004
  20693449.3924  -21111982.37444 -16432798.95842  20693451.0514   20693448.5234
        58.0004         51.0004
  23932874.5344  -11226880.15143  -8736730.95142  23932875.5724   23932873.2054
        50.0004         42.0004
 05 10 14  3 59  0.0010000  0  6G 6G 5G10G 2G30G21
  22264041.5704  -16534312.73543 -12851204.81542  22264043.2534   22264040.6954
        54.0004         47.0004
  21316220.6554   -2304552.12644  -1776228.76542  21316221.6204   21316219.8814
        58.0004         50.0004
  21065937.0884  -20862514.65644 -16243238.33742  21065937.7374   21065936.3994
        57.0004         50.0004
  22556265.0614    8945781.74043   6975039.03742  22556266.2554   22556261.4854
        54.0004         46.0004
  20693347.4924  -21112517.28944 -16433215.78842  20693349.4844   20693346.8274
        58.0004         51.0004
  23918353.2034  -11303188.90843  -8796192.30542  23918355.2084   23918352.8854
        49.0004         42.0004
 05 10 14  3 59 30.0010000  0  6G 6G 5G10G 2G30G21
  22251555.8204  -16599926.39643 -12902332.33142  22251556.9884   22251554.8814
        54.0004         47.0004
  21328789.0794   -2238505.17944  -1724763.63042  21328790.0044   21328788.1864
        58.0004         50.0004
  21064388.9674  -20870650.58444 -16249578.01242  21064389.7704   21064387.8204
        57.0004         50.0004
  22571537.3744    9026038.95543   7037577.12242  22571539.0094   22571533.6554
        53.0004         46.0004
  20693359.3144  -21112455.89444 -16433167.96342  20693361.0184   20693358.4174
        59.0004         51.0004
  23903866.5034  -11379317.20043  -8855513.03842  23903868.5864   23903865.8484
        49.0004         42.0004
 05 10 14  4  0  0.0010000  0  6G 6G 5G10G 2G30G21
  22239086.0504  -16665454.39143 -12953393.10142  22239086.8194   22239085.3934
        53.0004         47.0004
  21341443.6044   -2172005.46644  -1672945.68542  21341444.7474   21341442.5214
        58.0004         50.0004
  21062963.2014  -20878142.43444 -16255415.81042  21062964.1214   21062962.2104
        57.0004         50.0004
  22586834.0514    9106424.18343   7100214.96542  22586835.3674   22586830.0784
        53.0004         46.0004
  20693485.7484  -21111791.90044 -16432650.58042  20693487.4134   20693484.9844
        59.0004         51.0004
  23889415.7854  -11455258.26543  -8914687.87542  23889415.2994   23889415.0204
        50.0004         42.0004
 05 10 14  4  0 30.0010000  0  6G 6G 5G10G 2G30G21
  22226631.7054  -16730900.24343 -13004389.85942  22226633.1614   22226630.7574
        53.0004         46.0004
  21354182.6934   -2105059.59944  -1620780.08342  21354183.6744   21354182.0204
        57.0004         50.0004
  21061659.1654  -20884994.45744 -16260755.04242  21061660.1264   21061658.2104
        57.0004         50.0004
  22602154.0124    9186931.12343   7162947.63542  22602155.8504   22602149.6764
        53.0004         46.0004
  20693725.9134  -21110529.67544 -16431667.04042  20693727.7424   20693725.0484
        58.0004         51.0004
  23874998.9374  -11531016.76043  -8973720.45042  23875000.9894   23874998.3084
        50.0004         42.0004
 05 10 14  4  1  0.0010000  0  6G 6G 5G10G 2G30G21
  22214193.2474  -16796266.13943 -13055324.31842  22214194.8864   22214192.6114
        53.0004         47.0004
  21367005.8694   -2037672.75844  -1568270.86542  21367006.9214   21367005.1584
        57.0004         50.0004
  21060476.6944  -20891209.75944 -16265598.12642  21060477.4924   21060475.5454
        57.0004         50.0004
  22617496.2174    9267555.04343   7225771.46242  22617497.5824   22617493.3944
        53.0004         46.0004
  20694079.4344  -21108672.26544 -16430219.71442  20694081.1764   20694078.6084
        58.0004         51.0004
  23860616.4954  -11606595.15443  -9032612.69642  23860618.4994   23860614.3434
        49.0004         42.0004
 05 10 14  4  1 30.0010000  0  6G 6G 5G10G 2G30G21
  22201771.5394  -16861544.72443 -13106190.73942  22201773.0494   22201770.4244
        54.0004         47.0004
  21379914.0534   -1969840.53744  -1515414.59942  21379915.0114   21379913.2274
        57.0004         50.0004
  21059416.1784  -20896781.55244 -16269939.76842  21059417.1274   21059415.1124
        57.0004         50.0004
  22632861.6524    9348300.56543   7288690.03342  22632862.8374   22632858.8124
        53.0004         46.0004
  20694547.3274  -21106213.20144 -16428303.56642  20694549.4124   20694546.4904
        58.0004         51.0004
  23846269.9294  -11681986.83343  -9091359.43542  23846271.2134   23846267.1254
        49.0004         42.0004
 05 10 14  4  2  0.0010000  0  6G 6G 5G10G 2G30G21
  22189365.1824  -16926739.39443 -13156991.76742  22189366.3364   22189364.2024
        53.0004         47.0004
  21392905.8004   -1901569.60144  -1462216.47642  21392906.5854   21392904.8384
        57.0004         50.0004
  21058477.4484  -20901714.25544 -16273783.42742  21058478.0244   21058476.5054
        57.0004         50.0004
  22648249.0444    9429161.43743   7351698.50142  22648250.4214   22648245.0274
        53.0004         46.0004
  20695128.8824  -21103156.80944 -16425921.97342  20695130.8804   20695128.1894
        58.0004         51.0004
  23831958.7264  -11757195.88643  -9149963.87442  23831959.9374   23831957.8724
        49.0004         42.0004
 05 10 14  4  2 30.0010000  0  6G 6G 5G10G 2G30G21
  22176975.5624  -16991845.87143 -13207724.08242  22176976.5834   22176975.0494
        53.0004         47.0004
  21405980.8994   -1832858.66744  -1408675.50042  21405982.1144   21405980.4044
        57.0004         50.0004
  21057661.1254  -20906004.08644 -16277126.14442  21057661.8834   21057660.3004
        57.0004         50.0004
  22663658.5424    9510139.61143   7414798.36642  22663659.6634   22663655.3464
        53.0004         46.0004
  20695824.7304  -21099499.64644 -16423072.24842  20695826.7234   20695824.1944
        58.0004         51.0004
  23817681.9594  -11832218.82043  -9208423.28942  23817683.1184   23817681.3714
        49.0004         42.0004
 05 10 14  4  3  0.0010000  0  6G 6G 5G10G 2G30G21
  22164603.2884  -17056863.87943 -13258387.45942  22164604.5334   22164602.4064
        53.0004         47.0004
  21419139.4634   -1763710.66544  -1354793.94342  21419140.3384   21419138.8624
        57.0004         50.0004
  21056967.1104  -20909651.95344 -16279968.63242  21056967.9204   21056966.0034
        57.0004         50.0004
  22679089.9044    9591232.67443   7477987.75342  22679090.8634   22679086.9964
        52.0004         45.0004
  20696634.9374  -21095242.49644 -16419754.99942  20696636.8974   20696634.2364
        58.0004         51.0004
  23803441.0054  -11907056.15043  -9266738.07942  23803442.7844   23803439.6314
        50.0004         42.0004
 05 10 14  4  3 30.0010000  0  6G 6G 5G10G 2G30G21
  22152247.5364  -17121793.36743 -13308981.86442  22152248.6684   22152247.0694
        54.0004         47.0004
  21432380.1744   -1694128.84044  -1300574.34942  21432381.3194   21432379.5354
        57.0004         50.0004
  21056395.0764  -20912659.01344 -16282311.78942  21056395.7594   21056394.1334
        57.0004         50.0004
  22694543.0734    9672438.07943   7541264.67942  22694544.2554   22694540.0924
        53.0004         46.0004
  20697558.9104  -21090386.44344 -16415971.07242  20697560.9484   20697558.1444
        58.0004         51.0004
  23789235.3954  -11981708.64443  -9324908.83842  23789236.9644   23789232.2914
        50.0004         42.0004
 05 10 14  4  4  0.0010000  0  6G 6G 5G10G 2G30G21
  22139908.8254  -17186632.58043 -13359505.91642  22139910.2364   22139908.5434
        54.0004         47.0004
  21445703.7554   -1624114.47844  -1246017.71442  21445704.5734   21445703.0604
        57.0004         50.0004
  21055945.6644  -20915024.27144 -16284154.84342  21055945.6924   21055943.9614
        57.0004         50.0004
  22710016.9284    9753754.90043   7604628.42342  22710018.8794   22710014.2094
        53.0004         46.0004
  20698597.1524  -21084930.64544 -16411719.81242  20698599.2424   20698596.2514
        58.0004         51.0004
  23775064.4734  -12056175.00743  -9382934.56542  23775064.7904   23775062.8204
        50.0004         42.0004
 05 10 14  4  4 30.0010000  0  6G 6G 5G10G 2G30G21
  22127587.8594  -17251381.39043 -13409959.52542  22127588.6434   22127587.5474
        54.0004         47.0004
  21459108.7264   -1553670.76044  -1191126.52042  21459109.5944   21459107.9074
        57.0004         50.0004
  21055616.8934  -20916748.71644 -16285498.55842  21055617.3974   21055615.7524
        57.0004         50.0004
  22725511.5984    9835180.33543   7668076.81242  22725513.3804   22725508.1454
        52.0004         46.0004
  20699749.5744  -21078876.33544 -16407002.17542  20699751.2014   20699748.3944
        58.0004         51.0004
  23760929.0444  -12130456.16143  -9440815.97042  23760930.2264   23760928.5474
        50.0004         42.0004
 05 10 14  4  5  0.0010000  0  6G 6G 5G10G 2G30G21
  22115283.8754  -17316038.22043 -13460341.45742  22115285.5984   22115283.1614
        54.0004         47.0004
  21472594.9594   -1482799.26744  -1135902.00242  21472595.9314   21472594.3134
        57.0004         50.0004
  21055410.3784  -20917831.74144 -16286342.46542  21055411.3634   21055409.5164
        57.0004         50.0004
  22741026.9544    9916713.80643   7731609.38642  22741028.6164   22741023.6484
        52.0004         45.0004
  20701015.6254  -21072222.80544 -16401817.61342  20701017.4294   20701014.6964
        59.0004         51.0004
  23746830.0234  -12204551.16243  -9498552.33342  23746831.0454   23746828.9464
        50.0004         42.0004
 05 10 14  4  5 30.0010000  0  6G 6G 5G10G 2G30G21
  22102998.4624  -17380599.14643 -13510648.66942  22102999.5904   22102997.8504
        54.0004         47.0004
  21486162.9374   -1411499.44944  -1080343.71942  21486163.9314   21486162.3774
        57.0004         50.0004
  21055326.7804  -20918270.50544 -16286684.35042  21055327.7484   21055325.9114
        57.0004         50.0004
  22756562.8874    9998356.33443   7795226.93142  22756564.3764   22756559.8854
        52.0004         45.0004
  20702396.2304  -21064967.37544 -16396164.04042  20702398.2234   20702395.4324
        59.0004         51.0004
  23732765.8774  -12278456.96443  -9556141.24142  23732766.7944   23732763.9034
        50.0004         42.0004
 05 10 14  4  6  0.0010000  0  6G 6G 5G10G 2G30G21
  22090730.5484  -17445067.51343 -13560883.75342  22090731.4434   22090730.4774
        54.0004         47.0004
  21499811.1154   -1339777.75244  -1024456.68442  21499812.2504   21499810.6144
        57.0004         49.0004
  21055365.3174  -20918069.36944 -16286527.61342  21055365.8774   21055364.3944
        57.0004         50.0004
  22772118.4144   10080101.61243   7858924.54042  22772119.9804   22772115.6694
        52.0004         45.0004
  20703890.5554  -21057114.59844 -16390045.00342  20703892.5014   20703889.7944
        59.0004         51.0004
  23718736.8174  -12352177.92343  -9613586.13942  23718738.6604   23718735.5364
        50.0004         42.0004
 05 10 14  4  6 30.0010000  0  6G 6G 5G10G 2G30G21
  22078481.1184  -17509439.20243 -13611043.50542  22078482.3844   22078480.5124
        54.0004         47.0004
  21513539.6154   -1267633.49544   -968240.38942  21513540.7374   21513539.4864
        57.0004         49.0004
  21055526.1464  -20917225.50244 -16285870.04842  21055526.7574   21055525.3744
        57.0004         50.0004
  22787693.8994   10161951.48443   7922703.65842  22787694.6004   22787690.8094
        52.0004         45.0004
  20705499.0264  -21048661.45444 -16383458.15142  20705501.2174   20705498.4054
        58.0004         51.0004
  23704744.1834  -12425710.39043  -9670884.15842  23704745.3284   23704743.5294
        50.0004         42.0004
 05 10 14  4  7  0.0010000  0  6G 6G 5G10G 2G30G21
  22066249.4264  -17573714.88343 -13661128.44342  22066250.7204   22066248.7234
        54.0004         47.0004
  21527347.7184   -1195070.48444   -911697.79642  21527348.7954   21527347.7094
        57.0004         49.0004
  21055808.2564  -20915740.67544 -16284713.03142  21055809.0684   21055807.5294
        57.0004         50.0004
  22803289.0944   10243902.92743   7986561.91242  22803290.4514   22803286.0024
        52.0004         45.0004
  20707221.4364  -21039609.90444 -16376405.01442  20707223.5004   20707220.8254
        58.0004         51.0004
  23690787.1914  -12499055.81543  -9728036.43042  23690788.7604   23690785.2374
        50.0004         42.0004
 05 10 14  4  7 30.0010000  0  6G 6G 5G10G 2G30G21
  22054036.2554  -17637895.50443 -13711139.30742  22054037.9674   22054035.6904
        54.0004         47.0004
  21541234.9674   -1122093.22444   -854832.41442  21541236.0504   21541234.5864
        57.0004         49.0004
  21056212.5604  -20913617.26144 -16283058.41942  21056213.1834   21056211.5594
        57.0004         50.0004
  22818902.6884   10325952.08943   8050496.32342  22818904.1524   22818899.1364
        52.0004         45.0004
  20709057.4784  -21029962.34444 -16368887.45342  20709059.4204   20709056.8964
        59.0004         51.0004
  23676865.2634  -12572216.09243  -9785044.41942  23676866.6004   23676864.4574
        50.0004         42.0004
 05 10 14  4  8  0.0010000  0  6G 6G 5G10G 2G30G21
  22041842.8154  -17701973.46443 -13761070.17842  22041843.7854   22041842.2074
        54.0004         47.0004
  21555201.8434   -1048697.30444   -797640.80642  21555202.9824   21555201.4414
        57.0004         49.0004
  21056739.4494  -20910848.80644 -16280901.17342  21056740.0664   21056738.5444
        57.0004         50.0004
  22834535.6494   10408103.71543   8114510.57142  22834536.3364   22834532.7734
        52.0004         46.0004
  20711007.9794  -21019712.44444 -16360900.53642  20711009.9784   20711007.1934
        58.0004         51.0004
  23662979.5294  -12645184.66343  -9841903.03942  23662981.6734   23662977.7144
        51.0004         43.0004
 05 10 14  4  8 30.0010000  0  6G 6G 5G10G 2G30G21
  22029667.7584  -17765954.36543 -13810925.41542  22029669.0634   22029666.7374
        54.0004         47.0004
  21569246.7764    -974891.85244   -740130.07642  21569247.5354   21569245.7904
        57.0004         49.0004
  21057387.4124  -20907442.58244 -16278246.96642  21057388.0164   21057386.4164
        57.0004         50.0004
  22850186.8604   10490349.69243   8178598.33242  22850187.5954   22850182.3654
        53.0004         45.0004
  20713071.7804  -21008867.20544 -16352449.71242  20713073.4854   20713071.0744
        58.0004         51.0004
  23649129.7524  -12717968.09643  -9898617.39342  23649131.1584   23649127.4894
        51.0004         43.0004
 05 10 14  4  9  0.0010000  0  6G 6G 5G10G 2G30G21
  22017511.8454  -17829833.93743 -13860701.69842  22017512.8714   22017511.4154
        54.0004         47.0004
  21583369.5154    -900675.93044   -682299.51042  21583370.4674   21583368.5924
        57.0004         49.0004
  21058157.5394  -20903395.63444 -16275093.49542  21058158.2374   21058156.7484
        57.0004         50.0004
  22865855.8904   10572691.80343   8242761.01442  22865856.8904   22865851.7674
        53.0004         45.0004
  20715249.2064  -20997423.71144 -16343532.71542  20715251.2124   20715248.8674
        58.0004         51.0004
  23635315.1854  -12790563.14243  -9955184.94842  23635317.6134   23635313.8444
        52.0004         43.0004
 05 10 14  4  9 30.0010000  0  6G 6G 5G10G 2G30G21
  22005375.8564  -17893609.42743 -13910396.87842  22005377.0844   22005375.0364
        55.0004         47.0004
  21597569.8604    -826050.28944   -624149.67142  21597571.1894   21597569.3544
        57.0004         49.0004
  21059049.8084  -20898706.55244 -16271439.65742  21059050.6514   21059049.0054
        57.0004         50.0004
  22881543.2264   10655129.91743   8306998.50242  22881544.9104   22881540.1794
        53.0004         45.0004
  20717541.2354  -20985380.58944 -16334148.47342  20717542.9964   20717540.3544
        58.0004         51.0004
  23621537.0664  -12862967.77443 -10011604.12742  23621538.6274   23621535.2404
        51.0004         43.0004
 05 10 14  4 10  0.0010000  0  6G 6G 5G10G 2G30G21
  21993259.2604  -17957282.16443 -13960012.00142  21993260.5784   21993258.4974
        55.0004         47.0004
  21611848.0914    -751019.66144   -565684.26442  21611848.9884   21611847.2584
        57.0004         49.0004
  21060063.7904  -20893378.00044 -16267287.53142  21060064.6514   21060063.1224
        57.0004         50.0004
  22897248.3314   10737660.22643   8371307.82042  22897249.6014   22897245.2474
        53.0004         45.0004
  20719946.5554  -20972740.70144 -16324299.22542  20719948.2264   20719945.5534
        58.0004         51.0004
  23607794.5974  -12935184.13343 -10067876.61242  23607795.9594   23607792.9174
        51.0004         43.0004
 05 10 14  4 10 30.0010000  0  6G 6G 5G10G 2G30G21
  21981163.1514  -18020847.45743 -14009543.39742  21981164.6914   21981162.6414
        54.0004         48.0004
  21626203.1794    -675582.80744   -506902.32142  21626204.4834   21626202.7084
        57.0004         49.0004
  21061200.2784  -20887406.76144 -16262634.60942  21061201.2384   21061199.2564
        57.0004         50.0004
  22912971.2614   10820284.75843   8435690.56642  22912972.9454   22912967.1804
        52.0004         45.0004
  20722466.0324  -20959500.92244 -16313982.52742  20722467.7544   20722465.2694
        58.0004         51.0004
  23594088.7534  -13007208.78243 -10123999.71342  23594089.1234   23594087.1444
        51.0004         43.0004
 05 10 14  4 11  0.0010000  0  6G 6G 5G10G 2G30G21
  21969087.2554  -18084307.46243 -14058992.75142  21969088.1704   21969086.6294
        55.0004         48.0004
  21640634.8844    -599745.32444   -447808.19942  21640635.5664   21640634.2984
        57.0004         49.0004
  21062458.0464  -20880796.41044 -16257483.67842  21062458.8254   21062457.2324
        57.0004         50.0004
  22928710.9664   10902998.62343   8500142.91742  22928712.5514   22928707.9314
        52.0004         45.0004
  20725098.8774  -20945664.80544 -16303201.15042  20725100.8304   20725098.0884
        58.0004         51.0004
  23580419.1584  -13079044.47843 -10179975.56642  23580420.8084   23580418.0384
        51.0004         43.0004
 05 10 14  4 11 30.0010000  0  6G 6G 5G10G 2G30G21
  21957031.0304  -18147661.58043 -14108359.58742  21957032.8114   21957030.6054
        55.0004         48.0004
  21655142.0054    -523510.08344   -388404.13242  21655143.1094   21655141.1144
        57.0004         49.0004
  21063837.3464  -20873547.90044 -16251835.48142  21063837.9984   21063836.3564
        57.0004         50.0004
  22944467.6774   10985800.03443   8564663.49542  22944468.3704   22944463.6114
        52.0004         45.0004
  20727844.8864  -20931233.40344 -16291955.91242  20727846.9674   20727844.2404
        58.0004         51.0004
  23566785.1564  -13150691.63243 -10235804.51442  23566785.9534   23566783.5534
        51.0004         43.0004
 05 10 14  4 12  0.0010000  0  6G 6G 5G10G 2G30G21
  21944995.7684  -18210907.55543 -14157642.16242  21944997.2124   21944995.5284
        55.0004         48.0004
  21669724.2474    -446878.47544   -328691.20242  21669725.5974   21669723.5754
        57.0004         49.0004
  21065338.5514  -20865660.63744 -16245689.55742  21065339.0894   21065337.1404
        57.0004         50.0004
  22960240.3104   11068688.53043   8629251.93042  22960241.2314   22960238.0614
        52.0004         45.0004
  20730704.4574  -20916206.03644 -16280246.28842  20730706.3004   20730703.9824
        58.0004         51.0004
  23553186.9504  -13222149.35343 -10291485.85142  23553187.4534   23553185.5364
        51.0004         43.0004
 05 10 14  4 12 30.0010000  0  6G 6G 5G10G 2G30G21
  21932981.6764  -18274041.49343 -14206837.43042  21932983.2464   21932981.3604
        55.0004         48.0004
  21684382.2934    -369850.07144   -268669.08242  21684383.3814   21684381.8034
        57.0004         49.0004
  21066961.0284  -20857132.34444 -16239044.12642  21066962.2694   21066960.3444
        57.0004         50.0004
  22976030.6174   11151665.38143   8693909.21642  22976031.7964   22976026.5814
        52.0004         45.0004
  20733677.9434  -20900580.45344 -16268070.52042  20733680.1074   20733677.4354
        58.0004         51.0004
  23539625.9584  -13293414.40143 -10347017.04342  23539627.8694   23539624.0004
        51.0004         43.0004
 05 10 14  4 13  0.0010000  0  6G 6G 5G10G 2G30G21
  21920988.5934  -18337067.00243 -14255948.21242  21920990.1094   21920987.8294
        55.0004         48.0004
  21699114.6824    -292432.05843   -208343.37642  21699115.6444   21699113.5354
        56.0004         49.0004
  21068704.8654  -20847968.26344 -16231903.27642  21068705.6104   21068703.7534
        57.0004         50.0004
  22991836.0164   11234724.10943   8758630.31842  22991837.1114   22991833.0804
        52.0004         44.0004
  20736764.6224  -20884361.99144 -16255432.77042  20736766.2084   20736763.6744
        59.0004         51.0004
  23526099.8634  -13364491.21143 -10402401.56342  23526101.5424   23526097.7354
        51.0004         43.0004
 05 10 14  4 13 30.0010000  0  6G 6G 5G10G 2G30G21
  21909016.7764  -18399979.67543 -14304971.06742  21909018.4954   21909015.6694
        55.0004         48.0004
  21713921.0254    -214623.62044   -147713.43642  21713922.2604   21713920.1734
        57.0004         49.0004
  21070570.3174  -20838165.90244 -16224265.06542  21070570.9324   21070569.3734
        57.0004         50.0004
  23007657.7454   11317866.73443   8823416.77642  23007658.6524   23007654.6214
        52.0004         45.0004
  20739964.2334  -20867547.88444 -16242330.88042  20739965.8654   20739963.1844
        58.0004         51.0004
  23512610.9144  -13435376.72743 -10457637.02642  23512612.1574   23512609.3274
        51.0004         43.0004
 05 10 14  4 14  0.0010000  0  6G 6G 5G10G 2G30G21
  21897066.0804  -18462779.60843 -14353906.07942  21897067.3254   21897065.3004
        55.0004         48.0004
  21728800.9734    -136428.57043    -86782.24742  21728802.2354   21728800.7664
        56.0004         49.0004
  21072556.8534  -20827726.95244 -16216130.81342  21072557.2924   21072556.1784
        57.0004         50.0004
  23023495.2384   11401090.52143   8888266.46442  23023496.1854   23023490.5744
        52.0004         44.0004
  20743276.8244  -20850139.99344 -16228766.29942  20743278.5714   20743275.9524
        59.0004         51.0004
  23499158.4144  -13506072.14243 -10512724.34442  23499160.0804   23499156.1844
        51.0004         43.0004
 05 10 14  4 14 30.0010000  0  6G 6G 5G10G 2G30G21
  21885137.9424  -18525463.73343 -14402750.84742  21885139.2684   21885136.8214
        55.0004         48.0004
  21743754.5454     -57847.43343    -25550.20842  21743755.2944   21743754.0824
        56.0004         49.0004
  21074664.4604  -20816650.14144 -16207499.52642  21074665.1424   21074663.7074
        57.0004         50.0004
  23039347.4874   11484395.65943   8953179.56642  23039349.0724   23039343.6104
        52.0004         44.0004
  20746702.4554  -20832137.22244 -16214738.17842  20746704.4414   20746701.6894
        58.0004         51.0004
  23485741.3784  -13576575.66843 -10567662.14642  23485743.3394   23485739.7014
        51.0004         43.0004
 05 10 14  4 15  0.0010000  0  6G 6G 5G10G 2G30G21
  21873231.3204  -18588032.98143 -14451506.10042  21873232.2974   21873231.0964
        55.0004         48.0004
  21758781.0034      21115.42843     35979.27942  21758781.7924   21758779.8074
        56.0004         49.0004
  21076893.4274  -20804938.17244 -16198373.30842  21076893.9754   21076892.2644
        57.0004         50.0004
  23055214.4714   11567778.85143   9018153.46642  23055216.3634   23055211.5454
        51.0004         44.0004
  20750240.8274  -20813541.85244 -16200248.29242  20750242.8054   20750240.3064
        58.0004         51.0004
  23472362.1104  -13646888.84443 -10622451.62842  23472362.0934   23472360.3954
        51.0004         43.0004
 05 10 14  4 15 30.0010000  0  6G 6G 5G10G 2G30G21
  21861347.2504  -18650483.56543 -14500168.88542  21861348.7374   21861347.0074
        55.0004         48.0004
  21773879.5534     100460.12444     97806.30642  21773880.6414   21773878.8524
        57.0004         49.0004
  21079243.2694  -20792589.13244 -16188750.67442  21079244.0534   21079242.5474
        57.0004         50.0004
  23071096.8384   11651241.27443   9083189.11442  23071098.6204   23071093.6144
        51.0004         44.0004
  20753892.5384  -20794352.22944 -16185295.35242  20753894.4924   20753892.1664
        58.0004         51.0004
  23459018.5364  -13717009.10043 -10677090.76942  23459020.2304   23459017.9394
        51.0004         43.0004
 05 10 14  4 16  0.0010000  0  6G 6G 5G10G 2G30G21
  21849485.8014  -18712817.36743 -14548740.67242  21849487.1634   21849484.9074
        55.0004         48.0004
  21789049.7374     180180.98643    159926.45042  21789050.9784   21789049.8004
        56.0004         49.0004
  21081713.7704  -20779606.79344 -16178634.55742  21081714.4564   21081712.8204
        57.0004         50.0004
  23086993.6094   11734778.33143   9148282.92042  23086993.6554   23086990.4854
        51.0004         44.0004
  20757656.7064  -20774571.99444 -16169882.19642  20757658.6094   20757656.0374
        58.0004         51.0004
  23445711.0894  -13786939.49343 -10731581.96942  23445712.8974   23445710.9044
        51.0004         43.0004
 05 10 14  4 16 30.0010000  0  6G 6G 5G10G 2G30G21
  21837646.4864  -18775031.83643 -14597219.47642  21837647.8684   21837645.8414
        55.0004         48.0004
  21804291.7074     260276.96843    222338.90042  21804292.6954   21804291.0284
        56.0004         49.0004
  21084304.7454  -20765990.33744 -16168024.32342  21084305.3234   21084303.8334
        57.0004         50.0004
  23102903.4854   11818389.93643   9213434.81242  23102904.3774   23102901.1924
        50.0004         44.0004
  20761533.6234  -20754200.49044 -16154008.31042  20761535.3184   20761532.5964
        58.0004         51.0004
  23432440.3134  -13856678.34443 -10785923.92642  23432441.7914   23432438.6844
        51.0004         43.0004
 05 10 14  4 17  0.0010000  0  6G 6G 5G10G 2G30G21
  21825831.2734  -18837121.21343 -14645600.80442  21825832.6604   21825830.7304
        55.0004         48.0004
  21819605.2074     340750.07243    285045.21942  21819606.1474   21819604.6874
        56.0004         49.0004
  21087017.4454  -20751735.96744 -16156917.02142  21087017.8824   21087016.5694
        57.0004         50.0004
  23118828.4014   11902079.06643   9278647.11742  23118829.9054   23118825.8414
        49.0004         43.0004
  20765523.2844  -20733233.99444 -16137670.79442  20765525.0784   20765522.4524
        58.0004         51.0004
  23419206.2744  -13926221.10243 -10840113.07742  23419207.2144   23419204.8194
        51.0004         43.0004
 05 10 14  4 17 30.0010000  0  6G 6G 5G10G 2G30G21
  21814039.0084  -18899091.24443 -14693889.13842  21814040.0504   21814037.9824
        55.0004         48.0004
  21834988.3954     421590.79043    348037.98242  21834989.3304   21834988.4644
        56.0004         49.0004
  21089849.7764  -20736851.78644 -16145318.95142  21089850.4114   21089848.9704
        57.0004         50.0004
  23134767.8104   11985837.79143   9343913.65242  23134769.6644   23134765.9624
        50.0004         43.0004
  20769624.6814  -20711680.24544 -16120875.67742  20769626.5824   20769624.1344
        58.0004         51.0004
  23406008.4774  -13995574.90843 -10894154.98342  23406009.7384   23406005.9194
        50.0004         43.0004
 05 10 14  4 18  0.0010000  0  6G 6G 5G10G 2G30G21
  21802270.2264  -18960936.54543 -14742080.27642  21802271.2944   21802268.9334
        55.0004         48.0004
  21850442.1744     502800.72143    411318.43142  21850443.2524   21850442.1764
        56.0004         49.0004
  21092802.5394  -20721334.27644 -16133227.37542  21092803.4224   21092801.9134
        57.0004         50.0004
  23150720.3614   12069668.69943   9409236.44342  23150721.5734   23150718.4814
        50.0004         43.0004
  20773838.4564  -20689535.69144 -16103620.19242  20773840.4194   20773837.8204
        58.0004         51.0004
  23392848.2664  -14064735.43343 -10948046.30042  23392848.3884   23392845.8394
        51.0004         43.0004
 05 10 14  4 18 30.0010000  0  6G 6G 5G10G 2G30G21
  21790524.8224  -19022658.59843 -14790175.37842  21790525.9784   21790524.3694
        55.0004         48.0004
  21865965.4314     584374.73543    474882.57942  21865966.5154   21865965.3554
        56.0004         48.0004
  21095875.2884  -20705186.86644 -16120644.96942  21095875.9074   21095874.6584
        57.0004         50.0004
  23166685.6414   12153567.55043   9474612.14742  23166687.2154   23166683.7344
        50.0004         44.0004
  20778164.2384  -20666804.02044 -16085907.21542  20778166.1474   20778163.7304
        58.0004         51.0004
  23379723.5174  -14133705.06443 -11001788.84442  23379725.2094   23379722.0934
        51.0004         43.0004
 05 10 14  4 19  0.0010000  0  6G 6G 5G10G 2G30G21
  21778804.1554  -19084251.84443 -14838170.11442  21778805.4274   21778803.2234
        55.0004         48.0004
  21881557.9944     666314.55043    538731.75942  21881558.9824   21881557.7344
        55.0004         48.0004
  21099068.6814  -20688406.19444 -16107569.11642  21099069.4694   21099067.4774
        57.0004         50.0004
  23182665.1624   12237537.35643   9540043.16442  23182665.7694   23182661.5574
        51.0004         44.0004
  20782602.4934  -20643481.67644 -16067733.97542  20782604.3234   20782601.9194
        58.0004         51.0004
  23366636.0364  -14202479.69543 -11055379.45642  23366638.4204   23366634.1924
        51.0004         43.0004
 05 10 14  4 19 30.0010000  0  6G 6G 5G10G 2G30G21
  21767106.7004  -19145720.44743 -14886067.72142  21767108.4084   21767105.7844
        55.0004         48.0004
  21897218.6724     748612.06143    602859.66542  21897219.7834   21897218.2374
        56.0004         48.0004
  21102381.3704  -20670998.78744 -16094004.89742  21102382.1294   21102380.3244
        57.0004         50.0004
  23198656.4064   12321571.19443   9605524.06942  23198656.9064   23198653.9064
        51.0004         44.0004
  20787151.7534  -20619575.01644 -16049105.42542  20787153.6324   20787151.1394
        58.0004         51.0004
  23353585.3614  -14271064.72143 -11108822.32242  23353586.0804   23353582.9824
        51.0004         44.0004
 05 10 14  4 20  0.0010000  0  6G 6G 5G10G 2G30G21
  21755433.9474  -19207061.15943 -14933865.67242  21755435.2854   21755433.6994
        55.0004         48.0004
  21912947.6164     831266.95743    667266.05542  21912948.6764   21912947.3694
        56.0004         48.0004
  21105813.1034  -20652963.18944 -16079951.17742  21105814.0774   21105811.9854
        57.0004         50.0004
  23214659.9904   12405669.96943   9671055.56742  23214660.8554   23214657.1774
        51.0004         44.0004
  20791812.4574  -20595082.76844 -16030020.56742  20791814.4534   20791811.7204
        58.0004         51.0004
  23340570.2974  -14339457.99443 -11162115.77142  23340571.5754   23340568.4014
        51.0004         44.0004
 05 10 14  4 20 30.0010000  0  6G 6G 5G10G 2G30G21
  21743786.1244  -19268271.74443 -14981562.22942  21743787.5174   21743785.1694
        55.0004         48.0004
  21928743.9284     914277.63443    731949.68042  21928745.0164   21928743.3634
        56.0004         48.0004
  21109364.4894  -20634299.25244 -16065407.84542  21109365.4114   21109363.8424
        57.0004         50.0004
  23230675.7874   12489833.22843   9736637.32142  23230677.5714   23230672.0844
        52.0004         45.0004
  20796584.5644  -20570004.86644 -16010479.35642  20796586.4294   20796584.0894
        58.0004         51.0004
  23327591.9974  -14407658.38943 -11215258.92642  23327592.6894   23327589.8854
        51.0004         44.0004
 05 10 14  4 21  0.0010000  0  6G 6G 5G10G 2G30G21
  21732163.4984  -19329348.78643 -15029154.71842  21732164.5444   21732162.8114
        55.0004         48.0004
  21944607.8414     997643.47943    796910.06142  21944608.9424   21944607.8144
        56.0004         48.0004
  21113035.8844  -20615006.22444 -16050374.31042  21113036.6784   21113034.8774
        57.0004         50.0004
  23246704.1014   12574061.64843   9802269.84442  23246705.3334   23246701.0294
        52.0004         45.0004
  20801468.5274  -20544340.29744 -15990480.99942  20801470.2344   20801467.8194
        58.0004         51.0004
  23314650.6504  -14475664.17243 -11268250.43942  23314651.3324   23314648.8604
        51.0004         43.0004
 05 10 14  4 21 30.0010000  0  6G 6G 5G10G 2G30G21
  21720566.1834  -19390293.17743 -15076643.85042  21720567.5724   21720565.7284
        55.0004         48.0004
  21960538.4784    1081359.91343    862143.63142  21960539.8064   21960538.2004
        56.0004         48.0004
  21116826.6114  -20595087.05444 -16034852.87242  21116827.4734   21116825.5584
        57.0004         50.0004
  23262743.6964   12658351.91143   9867950.55442  23262745.1984   23262740.3424
        52.0004         45.0004
  20806463.4054  -20518091.95844 -15970027.75842  20806465.4074   20806462.6904
        58.0004         51.0004
  23301746.3904  -14543477.05743 -11321091.64342  23301747.3384   23301745.2914
        51.0004         43.0004
 05 10 14  4 22  0.0010000  0  6G 6G 5G10G 2G30G21
  21708994.4834  -19451103.27543 -15124028.33442  21708995.9484   21708993.7724
        55.0004         48.0004
  21976535.6824    1165424.62543    927648.59642  21976536.9724   21976535.0494
        56.0004         48.0004
  21120736.2794  -20574542.57444 -16018844.18342  21120736.8514   21120735.2284
        57.0004         50.0004
  23278795.0294   12742702.92643   9933678.60542  23278796.7884   23278792.7614
        52.0004         45.0004
  20811569.1064  -20491260.60344 -15949120.22442  20811571.2024   20811568.4334
        58.0004         51.0004
  23288878.6374  -14611096.59743 -11373782.17942  23288879.9454   23288877.7094
        52.0004         44.0004
 05 10 14  4 22 30.0010000  0  6G 6G 5G10G 2G30G21
  21697448.6274  -19511776.56043 -15171306.21442  21697449.7174   21697448.1154
        55.0004         48.0004
  21992598.5154    1249836.32143    993423.93142  21992599.5664   21992598.1414
        55.0004         48.0004
  21124764.7254  -20553372.35344 -16002347.90142  21124765.4814   21124763.7544
        57.0004         50.0004
  23294858.4114   12827114.93443   9999454.19342  23294859.3704   23294854.2984
        51.0004         45.0004
  20816786.0514  -20463845.92444 -15927758.14942  20816787.9234   20816785.3034
        58.0004         51.0004
  23276048.6294  -14678521.29243 -11426320.89742  23276049.7134   23276047.4874
        51.0004         44.0004
 05 10 14  4 23  0.0010000  0  6G 6G 5G10G 2G30G21
  21685928.4564  -19572315.34143 -15218479.28842  21685929.9104   21685927.7524
        55.0004         48.0004
  22008726.4644    1334588.68143   1059464.71842  22008727.6324   22008726.0824
        55.0004         48.0004
  21128911.2814  -20531581.23544 -15985367.80642  21128912.2124   21128910.4274
        57.0004         50.0004
  23310931.8584   12911582.31343  10065272.91542  23310932.6834   23310929.2034
        51.0004         45.0004
  20822112.9154  -20435852.71244 -15905945.27242  20822114.6574   20822112.0984
        58.0004         51.0004
  23263254.6454  -14745755.57743 -11478711.23642  23263255.4114   23263252.8884
        53.0004         44.0004
 05 10 14  4 23 30.0010000  0  6G 6G 5G10G 2G30G21
  21674435.3254  -19632712.93043 -15265542.34342  21674436.4564   21674434.4444
        56.0004         48.0004
  22024919.9004    1419684.52643   1125773.15142  22024920.3324   22024919.0054
        55.0004         48.0004
  21133176.8684  -20509164.67844 -15967900.35642  21133177.4254   21133176.2614
        57.0004         50.0004
  23327016.5214   12996109.60743  10131138.32842  23327017.9364   23327013.6854
        51.0004         45.0004
  20827551.0434  -20407276.46844 -15883678.08642  20827552.8474   20827550.1324
        58.0004         51.0004
  23250497.1984  -14812793.45543 -11530948.52942  23250498.1264   23250495.5194
        52.0004         44.0004
 05 10 14  4 24  0.0010000  0  6G 6G 5G10G 2G30G21
  21662968.0624  -19692972.74543 -15312498.03842  21662969.4924   21662966.9934
        56.0004         48.0004
  22041176.9484    1505116.53243   1192343.52942  22041178.2514   22041176.3864
        55.0004         48.0004
  21137560.4654  -20486128.65344 -15949950.19842  21137561.2484   21137559.5284
        57.0004         50.0004
  23343111.9324   13080690.78943  10197045.74242  23343113.1824   23343109.5484
        51.0004         45.0004
  20833098.7234  -20378123.05244 -15860961.15742  20833100.4874   20833098.1214
        58.0004         51.0004
  23237776.6344  -14879639.81443 -11583036.58942  23237778.3044   23237775.1294
        53.0004         44.0004
 05 10 14  4 24 30.0010000  0  6G 6G 5G10G 2G30G21
  21651527.8394  -19753092.03243 -15359344.22742  21651529.3784   21651527.3554
        56.0004         48.0004
  22057497.7554    1590883.39343   1259174.83542  22057498.5854   22057497.5184
        55.0004         48.0004
  21142062.1904  -20462473.02544 -15931517.23542  21142063.0094   21142061.0534
        57.0004         50.0004
  23359217.5834   13165326.07443  10262995.30342  23359219.2774   23359215.7934
        51.0004         45.0004
  20838756.3884  -20348392.18244 -15837794.25842  20838757.9064   20838755.5934
        58.0004         51.0004
  23225093.0224  -14946293.15943 -11634974.24342  23225093.6524   23225091.7854
        53.0004         44.0004
 05 10 14  4 25  0.0010000  0  6G 6G 5G10G 2G30G21
  21640115.0334  -19813066.99343 -15406077.96042  21640116.3854   21640114.5804
        56.0004         49.0004
  22073882.2964    1676985.07043   1326267.03842  22073883.0234   22073882.1874
        55.0004         48.0004
  21146681.8734  -20438196.30944 -15912600.30842  21146682.8344   21146680.7384
        57.0004         50.0004
  23375334.0834   13250016.53243  10328987.85542  23375335.4744   23375331.1424
        51.0004         45.0004
  20844523.9884  -20318082.31844 -15814176.19442  20844525.9044   20844523.3024
        58.0004         51.0004
  23212446.7984  -15012751.04643 -11686759.60242  23212448.7654   23212443.9704
        52.0004         44.0004
 05 10 14  4 25 30.0010000  0  6G 6G 5G10G 2G30G21
  21628729.5404  -19872898.00143 -15452699.51942  21628731.1824   21628728.6274
        56.0004         49.0004
  22090329.5694    1763417.13643   1393616.68242  22090330.5564   22090328.9594
        55.0004         48.0004
  21151419.1914  -20413301.65544 -15893201.86942  21151420.0554   21151418.1364
        57.0004         50.0004
  23391459.8384   13334759.34043  10395021.20742  23391461.3444   23391456.2934
        51.0004         44.0004
  20850401.1804  -20287196.48444 -15790109.32642  20850403.3634   20850400.6354
        58.0004         51.0004
  23199837.0934  -15079015.29143 -11738394.06442  23199838.8314   23199834.4414
        52.0004         44.0004
 05 10 14  4 26  0.0010000  0  6G 6G 5G10G 2G30G21
  21617371.8924  -19932582.96443 -15499207.28342  21617373.3924   21617371.0494
        56.0004         49.0004
  22106839.7414    1850177.65543   1461222.27142  22106840.7524   22106839.1594
        55.0004         48.0004
  21156273.9004  -20387789.59844 -15873322.34342  21156274.7914   21156272.8944
        57.0004         50.0004
  23407595.4964   13419553.90143  10461094.86342  23407596.9134   23407592.1234
        50.0004         44.0004
  20856388.2734  -20255735.23944 -15765594.08442  20856390.3024   20856387.6464
        58.0004         51.0004
  23187264.1214  -15145085.25043 -11789877.13742  23187266.6814   23187261.6664
        52.0004         44.0004
 05 10 14  4 26 30.0010000  0  6G 6G 5G10G 2G30G21
  21606041.8124  -19992123.21443 -15545602.27642  21606043.1754   21606040.9314
        56.0004         49.0004
  22123411.4824    1937261.25043   1529079.61442  22123412.5724   22123410.4754
        55.0004         48.0004
  21161245.3854  -20361664.08044 -15852964.79442  21161246.4424   21161244.6834
        57.0004         50.0004
  23423740.3294   13504396.16143  10527205.69842  23423741.1154   23423737.3604
        50.0004         44.0004
  20862483.9244  -20223702.28544 -15740633.35642  20862485.8684   20862483.3164
        58.0004         51.0004
  23174728.0134  -15210963.34643 -11841210.70742  23174729.8874   23174726.4684
        52.0004         44.0004
 05 10 14  4 27  0.0010000  0  6G 6G 5G10G 2G30G21
  21594739.7984  -20051514.12643 -15591880.90242  21594741.5194   21594739.2334
        56.0004         49.0004
  22140044.2244    2024668.70743   1597189.30942  22140045.6824   22140043.7254
        55.0004         47.0004
  21166334.2214  -20334922.94844 -15832127.54242  21166334.9174   21166333.4204
        57.0004         50.0004
  23439894.9714   13589288.54543  10593355.60642  23439895.3274   23439891.2004
        50.0004         43.0004
  20868689.0164  -20191095.51344 -15715225.49342  20868690.6824   20868688.2794
        58.0004         51.0004
  23162229.2684  -15276646.46843 -11892392.35342  23162229.4774   23162227.1644
        52.0004         44.0004
 05 10 14  4 27 30.0010000  0  6G 6G 5G10G 2G30G21
  21583466.9324  -20110754.81643 -15638042.47342  21583468.1794   21583466.2814
        56.0004         49.0004
  22156738.4454    2112396.90243   1665548.93242  22156739.4744   22156738.1084
        55.0004         47.0004
  21171539.4354  -20307567.91744 -15810811.92842  21171540.4674   21171538.8574
        57.0004         50.0004
  23456058.3984   13674229.12943  10659543.08542  23456060.1974   23456055.8034
        50.0004         43.0004
  20875002.8114  -20157916.61544 -15689371.81842  20875004.5764   20875001.9614
        58.0004         51.0004
  23149767.0824  -15342135.05643 -11943422.42142  23149768.2634   23149765.4684
        52.0004         44.0004
 05 10 14  4 28  0.0010000  0  6G 6G 5G10G 2G30G21
  21572222.4814  -20169844.91743 -15684086.70042  21572223.6244   21572221.3014
        56.0004         49.0004
  22173493.0374    2200441.83143   1734155.35642  22173493.6644   22173492.3624
        55.0004         47.0004
  21176861.4994  -20279601.55344 -15789019.95142  21176862.2504   21176860.5874
        57.0004         50.0004
  23472231.0584   13759215.45143  10725766.17742  23472231.9404   23472227.0754
        49.0004         43.0004
  20881424.8794  -20124168.15244 -15663074.32942  20881426.6954   20881424.0874
        58.0004         51.0004
  23137341.7964  -15407430.31943 -11994301.82942  23137342.9134   23137339.5024
        52.0004         44.0004
 05 10 14  4 28 30.0010000  0  6G 6G 5G10G 2G30G21
  21561006.9814  -20228782.73043 -15730012.27342  21561008.7154   21561005.9354
        56.0004         49.0004
  22190307.1344    2288801.31843   1803006.89442  22190308.4134   22190306.5274
        55.0004         47.0004
  21182299.5424  -20251024.96344 -15766752.47542  21182300.6954   21182298.2034
        57.0004         50.0004
  23488411.6004   13844246.98243  10792024.49542  23488414.0954   23488409.1254
        48.0004         43.0004
  20887955.0334  -20089850.98144 -15636333.69042  20887956.8134   20887954.5434
        58.0004         51.0004
  23124953.0164  -15472531.79543 -12045030.24242  23124954.8224   23124952.0024
        52.0004         44.0004
 05 10 14  4 29  0.0010000  0  6G 6G 5G10G 2G30G21
  21549820.8064  -20287566.43543 -15775817.75942  21549822.1074   21549819.9434
        56.0004         49.0004
  22207180.8624    2377473.00843   1872101.70442  22207181.6924   22207180.1604
        55.0004         47.0004
  21187853.5294  -20221838.89944 -15744010.08642  21187854.4184   21187852.4794
        57.0004         50.0004
  23504601.4064   13929322.76243  10858317.30342  23504602.4534   23504598.4554
        50.0004         43.0004
  20894593.4184  -20054965.88144 -15609150.50742  20894595.4634   20894592.7764
        58.0004         51.0004
  23112601.5124  -15537439.13143 -12095607.36942  23112602.1954   23112599.7644
        53.0004         44.0004
 05 10 14  4 29 30.0010000  0  6G 6G 5G10G 2G30G21
  21538664.3274  -20346193.20743 -15821500.95542  21538666.0194   21538663.3224
        56.0004         49.0004
  22224113.7804    2466455.82743   1941438.95142  22224114.9764   22224113.0724
        55.0004         47.0004
  21193523.4464  -20192043.12244 -15720792.59842  21193523.8724   21193522.3164
        57.0004         50.0004
  23520799.0704   14014443.32343  10924645.01542  23520801.1554   23520796.3494
        49.0004         43.0004
  20901340.0394  -20019512.85244 -15581524.77842  20901341.7914   20901339.3384
        58.0004         51.0004
  23100287.5214  -15602151.12843 -12146032.29342  23100288.3534   23100286.1844
        52.0004         45.0004
 05 10 14  4 30  0.0010000  0  6G 6G 5G10G 2G30G21
  21527537.6954  -20404664.24543 -15867062.79742  21527539.4684   21527536.7844
        56.0004         49.0004
  22241104.7644    2555744.33643   2011014.40742  22241105.6594   22241104.0764
        54.0004         47.0004
  21199308.1024  -20161642.14344 -15697103.52042  21199309.1624   21199307.3244
        57.0004         50.0004
  23537005.4854   14099604.48643  10991004.35142  23537005.8904   23537002.1704
        49.0004         43.0004
  20908193.5754  -19983495.76544 -15553459.52442  20908195.8434   20908193.2884
        58.0004         51.0004
  23088010.0074  -15666670.16043 -12196306.85042  23088011.1244   23088008.1514
        53.0004         45.0004
 05 10 14  4 30 30.0010000  0  6G 6G 5G10G 2G30G21
  21516438.4934  -20462989.75843 -15912511.24542  21516440.4024   21516437.6314
        56.0004         49.0004
  22258151.3434    2645324.31843   2080816.97142  22258152.6824   22258150.6524
        55.0004         47.0004
  21205206.2254  -20130648.80144 -15672952.86242  21205207.0394   21205205.2294
        57.0004         50.0004
  23553216.1104   14184793.82843  11057385.61642  23553217.7184   23553213.0134
        49.0004         42.0004
  20915152.4194  -19946927.66744 -15524964.91542  20915154.2384   20915151.6574
        58.0004         51.0004
  23075766.5834  -15731007.61143 -12246439.91142  23075768.4744   23075764.7294
        53.0004         45.0004
 05 10 14  4 31  0.0010000  0  6G 6G 5G10G 2G30G21
  21505372.2354  -20521143.59643 -15957825.92342  21505373.7064   21505371.4804
        56.0004         49.0004
  22275257.6464    2735217.59043   2150863.66542  22275258.7414   22275256.8674
        55.0004         47.0004
  21211221.1814  -20099039.87244 -15648322.52142  21211221.9074   21211220.5844
        57.0004         50.0004
  23569437.2454   14270034.67643  11123807.05142  23569438.8424   23569433.0234
        49.0004         42.0004
  20922220.4014  -19909785.15644 -15496022.71142  20922222.3104   20922219.5984
        58.0004         51.0004
  23063562.6604  -15795139.50243 -12296412.80142  23063564.0294   23063561.3604
        53.0004         45.0004
 05 10 14  4 31 30.0010000  0  6G 6G 5G10G 2G30G21
  21494337.4494  -20579133.05943 -16003012.51842  21494338.4334   21494336.7754
        56.0004         49.0004
  22292421.0444    2825412.88343   2221145.68742  22292422.3044   22292420.6184
        54.0004         47.0004
  21217351.5754  -20066825.50744 -15623220.41542  21217352.2974   21217350.7844
        57.0004         50.0004
  23585665.4044   14355317.23643  11190261.00642  23585666.9994   23585662.5714
        50.0004         42.0004
  20929395.9764  -19872078.63644 -15466641.02342  20929397.7464   20929394.9534
        58.0004         51.0004
  23051396.7104  -15859074.51243 -12346232.27542  23051397.0654   23051394.2754
        53.0004         45.0004
 05 10 14  4 32  0.0010000  0  6G 6G 5G10G 2G30G21
  21483332.9894  -20636961.49443 -16048073.63142  21483334.2904   21483332.1754
        56.0004         49.0004
  22309640.4994    2915902.54643   2291657.09142  22309641.6564   22309640.7174
        54.0004         47.0004
  21223595.8684  -20034012.04644 -15597651.48242  21223596.2154   21223594.6404
        57.0004         50.0004
  23601901.1974   14440635.67943  11256742.89742  23601903.1854   23601897.9604
        50.0004         42.0004
  20936676.9414  -19833814.11744 -15436824.52542  20936678.8884   20936676.4224
        58.0004         50.0004
  23039266.5784  -15922817.37543 -12395902.02942  23039268.7914   23039264.5474
        53.0004         45.0004
 05 10 14  4 32 30.0010000  0  6G 6G 5G10G 2G30G21
  21472360.2774  -20694624.41643 -16093005.77042  21472361.2404   21472359.1384
        56.0004         49.0004
  22326916.3504    3006687.00143   2362398.20742  22326917.5074   22326915.9544
        54.0004         47.0004
  21229954.1954  -20000597.98244 -15571614.55042  21229954.8534   21229953.2274
        57.0004         50.0004
  23618143.1154   14525991.82043  11323254.15642  23618145.7594   23618141.8634
        49.0004         42.0004
  20944065.1504  -19794990.09044 -15406572.04842  20944066.8044   20944064.6424
        58.0004         50.0004
  23027174.3154  -15986365.04443 -12445419.67742  23027175.2894   23027171.9024
        53.0004         45.0004
 05 10 14  4 33  0.0010000  0  6G 6G 5G10G 2G30G21
  21461418.6794  -20752121.86643 -16137808.98242  21461419.9944   21461417.6594
        56.0004         49.0004
  22344247.3164    3097762.15843   2433365.84642  22344248.3914   22344247.0244
        54.0004         47.0004
  21236426.2334  -19966586.46844 -15545112.06742  21236427.1944   21236424.8404
        57.0004         49.0004
  23634392.4564   14611383.08143  11389792.79442  23634395.3094   23634388.8714
        49.0004         42.0004
  20951559.2384  -19755609.39344 -15375885.80242  20951561.0674   20951558.3374
        58.0004         51.0004
  23015117.9824  -16049718.91543 -12494786.32242  23015120.3914   23015116.2744
        53.0004         45.0004
 05 10 14  4 33 30.0010000  0  6G 6G 5G10G 2G30G21
  21450509.2554  -20809451.69943 -16182481.57842  21450510.5804   21450508.1624
        56.0004         49.0004
  22361633.4964    3189125.76843   2504558.25742  22361634.2894   22361632.7844
        54.0004         47.0004
  21243011.9064  -19931978.35544 -15518144.70342  21243012.8694   21243010.5114
        57.0004         49.0004
  23650649.0074   14696809.03443  11456358.48542  23650650.6884   23650646.7384
        50.0004         42.0004
  20959158.7494  -19715673.07244 -15344766.60342  20959160.7574   20959157.9804
        58.0004         51.0004
  23003099.4264  -16112878.43743 -12544001.51842  23003100.0814   23003098.1474
        53.0004         45.0004
 05 10 14  4 34  0.0010000  0  6G 6G 5G10G 2G30G21
  21439631.9694  -20866612.17943 -16227022.20642  21439633.1194   21439631.1044
        56.0004         49.0004
  22379073.8784    3280775.35443   2575973.50842  22379075.0354   22379073.7584
        54.0004         47.0004
  21249710.6044  -19896775.05944 -15490713.55942  21249711.7424   21249709.2484
        57.0004         49.0004
  23666911.9154   14782268.93843  11522950.62242  23666912.6744   23666907.8134
        50.0004         42.0004
  20966863.8694  -19675182.42244 -15313215.46142  20966865.8564   20966863.4284
        58.0004         50.0004
  22991117.0214  -16175843.72643 -12593065.37042  22991118.9494   22991115.3534
        53.0004         45.0004
 05 10 14  4 34 30.0010000  0  6G 6G 5G10G 2G30G21
  21428786.9804  -20923602.55643 -16271430.28942  21428788.6044   21428786.4224
        56.0004         49.0004
  22396567.6074    3372707.59943   2647609.00642  22396568.8074   22396567.2224
        54.0004         47.0004
  21256522.3144  -19860978.98944 -15462820.51242  21256523.1334   21256521.3294
        57.0004         49.0004
  23683180.3144   14867760.98143  11589567.79942  23683181.5774   23683177.3794
        50.0004         42.0004
  20974674.3144  -19634139.41944 -15281233.91342  20974676.1674   20974673.4824
        58.0004         51.0004
  22979172.2644  -16238615.15443 -12641978.16542  22979173.4124   22979171.4574
        53.0004         45.0004
 05 10 14  4 35  0.0010000  0  6G 6G 5G10G 2G30G21
  21417974.9944  -20980420.52943 -16315704.03342  21417976.1164   21417973.9244
        56.0004         49.0004
  22414115.3784    3464920.44043   2719463.14842  22414116.2224   22414114.9854
        54.0004         47.0004
  21263446.7724  -19824591.05644 -15434466.27442  21263447.6424   21263445.8104
        57.0004         49.0004
  23699455.0474   14953284.79043  11656209.72042  23699456.3374   23699451.5844
        50.0004         42.0004
  20982589.3364  -19592545.12744 -15248822.79242  20982591.2904   20982588.5704
        58.0004         51.0004
  22967264.0544  -16301192.49043 -12690739.71742  22967266.0414   22967262.7814
        53.0004         45.0004
 05 10 14  4 35 30.0010000  0  6G 6G 5G10G 2G30G21
  21407195.3984  -21037066.31743 -16359843.60442  21407196.8114   21407194.4474
        56.0004         49.0004
  22431715.5294    3557409.46943   2791532.51042  22431716.3764   22431714.8974
        54.0004         47.0004
  21270483.3444  -19787614.30644 -15405653.22142  21270484.0614   21270482.6114
        57.0004         49.0004
  23715735.4834   15038837.78943  11722874.40042  23715735.9024   23715729.3754
        50.0004         43.0004
  20990608.8074  -19550402.62144 -15215984.48842  20990610.6414   20990608.4344
        58.0004         50.0004
  22955392.8714  -16363577.16043 -12739351.13842  22955394.1414   22955391.3204
        53.0004         45.0004
 05 10 14  4 36  0.0010000  0  6G 6G 5G10G 2G30G21
  21396449.5124  -21093535.90643 -16403845.87642  21396450.8394   21396448.7524
        56.0004         49.0004
  22449367.6744    3650174.58743   2863816.99342  22449368.5044   22449367.5074
        53.0004         47.0004
  21277632.0444  -19750047.90944 -15376380.70242  21277633.0314   21277631.2844
        57.0004         49.0004
  23732021.1924   15124421.40843  11789562.93442  23732023.7694   23732019.0854
        51.0004         43.0004
  20998732.6134  -19507711.09244 -15182718.37542  20998734.3444   20998732.0474
        58.0004         50.0004
  22943558.3144  -16425766.67943 -12787810.48942  22943559.7914   22943556.3194
        53.0004         45.0004
 05 10 14  4 36 30.0010000  0  6G 6G 5G10G 2G30G21
  21385737.6414  -21149829.21743 -16447710.78942  21385739.1134   21385736.6584
        56.0004         49.0004
  22467072.6864    3743211.37643   2936313.17142  22467073.0474   22467071.7084
        54.0004         47.0004
  21284892.2184  -19711895.18644 -15346651.30242  21284892.9044   21284891.5464
        57.0004         49.0004
  23748312.6104   15210032.98643  11856273.25142  23748312.9754   23748309.4134
        50.0004         43.0004
  21006960.5914  -19464473.62244 -15149026.85542  21006962.5314   21006959.8304
        58.0004         50.0004
  22931761.1624  -16487762.85543 -12836119.18542  22931762.4594   22931759.6864
        53.0004         45.0004
 05 10 14  4 37  0.0010000  0  6G 6G 5G10G 2G30G21
  21375059.1884  -21205944.35543 -16491436.87242  21375060.8374   21375058.6984
        56.0004         49.0004
  22484828.4184    3836517.68143   3009019.36942  22484829.5524   22484827.6134
        54.0004         47.0004
  21292263.9014  -19673157.30144 -15316465.93742  21292264.4674   21292262.8224
        57.0004         49.0004
  23764609.2514   15295672.02943  11923004.97442  23764609.7314   23764606.1144
        50.0004         43.0004
  21015292.0434  -19420691.39544 -15114910.84742  21015293.9324   21015291.5614
        58.0004         50.0004
  22920000.4794  -16549565.35243 -12884276.95842  22920001.7444   22919998.6454
        53.0004         45.0004
 05 10 14  4 37 30.0010000  0  6G 6G 5G10G 2G30G21
  21364415.2074  -21261878.16543 -16535021.65842  21364416.5634   21364414.9954
        56.0004         49.0004
  22502634.6304    3930092.27943   3081934.61442  22502635.7944   22502634.3854
        54.0004         47.0004
  21299746.8354  -19633834.63344 -15285824.89342  21299747.6394   21299745.6554
        57.0004         49.0004
  23780911.2614   15381339.19643  11989758.58842  23780912.2784   23780908.8684
        50.0004         43.0004
  21023727.0784  -19376364.53744 -15080370.44942  21023728.8584   21023726.6294
        58.0004         50.0004
  22908276.5484  -16611172.78643 -12932282.73542  22908277.7084   22908275.3834
        53.0004         45.0004
 05 10 14  4 38  0.0010000  0  6G 6G 5G10G 2G30G21
  21353805.9254  -21317630.60344 -16578465.10742  21353807.0924   21353805.6034
        57.0004         49.0004
  22520491.7044    4023930.91043   3155055.60642  22520492.9454   22520490.6534
        54.0004         47.0004
  21307340.2534  -19593930.59144 -15254730.83442  21307340.9124   21307339.5814
        57.0004         49.0004
  23797217.5774   15467031.99643  12056532.18542  23797219.8294   23797214.8464
        50.0004         43.0004
  21032265.1964  -19331496.25044 -15045408.16042  21032267.0174   21032264.5384
        58.0004         50.0004
  22896589.8754  -16672586.56943 -12980137.62342  22896591.1214   22896587.6774
        53.0004         45.0004
 05 10 14  4 38 30.0010000  0  6G 6G 5G10G 2G30G21
  21343231.5294  -21373200.41844 -16621766.26142  21343232.9004   21343231.0284
        57.0004         49.0004
  22538398.1684    4118030.50243   3228379.94942  22538399.5304   22538397.7954
        54.0004         47.0004
  21315043.8074  -19553447.21843 -15223185.34442  21315044.5254   21315043.0274
        56.0004         49.0004
  23813529.3224   15552748.96443  12123324.63242  23813530.3614   23813525.5474
        50.0004         43.0004
  21040906.1444  -19286088.68644 -15010025.65542  21040907.7624   21040905.6364
        58.0004         50.0004
  22884939.9564  -16733806.88743 -13027841.74942  22884941.6074   22884938.8844
        53.0004         45.0004
 05 10 14  4 39  0.0010000  0  6G 6G 5G10G 2G30G21
  21332691.7194  -21428587.40744 -16664924.95842  21332692.9434   21332690.9104
        57.0004         49.0004
  22556353.7274    4212387.02543   3301904.51142  22556354.9904   22556353.1224
        54.0004         46.0004
  21322857.4314  -19512387.35843 -15191190.64342  21322857.9234   21322856.3964
        56.0004         49.0004
  23829845.0784   15638488.09243  12190134.33342  23829848.1344   23829841.1174
        50.0004         43.0004
  21049649.3684  -19240144.52044 -14974225.01942  21049650.9784   21049648.3884
        58.0004         50.0004
  22873327.0114  -16794835.12543 -13075396.20742  22873328.3024   22873325.1524
        53.0004         45.0004
 05 10 14  4 39 30.0010000  0  6G 6G 5G10G 2G30G21
  21322187.3974  -21483787.60844 -16707938.09942  21322188.7614   21322186.6294
        57.0004         49.0004
  22574357.9734    4307000.29443   3375629.12642  22574358.7524   22574357.4524
        54.0004         46.0004
  21330780.9744  -19470750.40344 -15158746.26742  21330781.7444   21330779.9634
        57.0004         49.0004
  23846164.4754   15724250.73343  12256962.34142  23846165.5084   23846161.8624
        49.0004         43.0004
  21058494.3544  -19193663.22244 -14938005.83942  21058496.1514   21058493.5904
        58.0004         50.0004
  22861750.7804  -16855669.16543 -13122799.34442  22861751.8514   22861749.7814
        53.0004         45.0004
 05 10 14  4 40  0.0010000  0  6G 6G 5G10G 2G30G21
  21311718.9994  -21538799.51044 -16750804.50842  21311720.2024   21311718.2524
        57.0004         49.0004
  22592410.4814    4401867.20443   3449551.38242  22592411.0684   22592409.9824
        53.0004         46.0004
  21338813.2874  -19428538.40144 -15125853.79842  21338814.0104   21338812.6684
        57.0004         49.0004
  23862489.6914   15810035.67743  12323807.75042  23862490.2344   23862485.8674
        48.0004         43.0004
  21067441.0354  -19146646.75644 -14901369.64342  21067442.8264   21067440.5024
        58.0004         50.0004
  22850211.2404  -16916309.34143 -13170051.41942  22850212.5664   22850209.8464
        53.0004         46.0004
 05 10 14  4 40 30.0010000  0  6G 6G 5G10G 2G30G21
  21301286.5384  -21593620.68543 -16793522.29742  21301287.9154   21301285.9944
        56.0004         49.0004
  22610510.8764    4496985.98343   3523669.90042  22610512.4224   22610510.2044
        53.0004         46.0004
  21346954.9454  -19385752.51244 -15092514.14042  21346955.7404   21346954.1004
        57.0004         49.0004
  23878817.8794   15895842.87343  12390670.47442  23878818.9804   23878814.4524
        48.0004         42.0004
  21076489.8164  -19099095.94544 -14864317.07842  21076491.5264   21076489.0214
        58.0004         50.0004
  22838708.4864  -16976754.73743 -13217151.71442  22838710.7484   22838707.9874
        53.0004         46.0004
 05 10 14  4 41  0.0010000  0  6G 6G 5G10G 2G30G21
  21290890.4664  -21648252.13043 -16836092.24742  21290892.0284   21290890.1104
        56.0004         49.0004
  22628658.2424    4592351.35543   3597980.56942  22628658.7114   22628657.5314
        54.0004         46.0004
  21355205.4444  -19342397.09744 -15058730.69442  21355206.1784   21355204.7244
        57.0004         49.0004
  23895148.8204   15981669.00443  12457547.96142  23895150.5964   23895146.0744
        46.0004         41.0004
  21085639.2414  -19051015.11544 -14826851.50542  21085641.1614   21085638.7424
        58.0004         50.0004
  22827242.4854  -17037008.13943 -13264102.40442  22827244.1494   22827241.8524
        53.0004         45.0004
 05 10 14  4 41 30.0010000  0  6G 6G 5G10G 2G30G21
  21280531.8194  -21702687.88843 -16878509.71742  21280533.2534   21280531.3034
        56.0004         49.0004
  22646852.5194    4687964.71443   3672484.47242  22646853.4714   22646852.4374
        53.0004         46.0004
  21363564.6144  -19298469.74244 -15024501.58342  21363565.2174   21363563.1894
        57.0004         49.0004
  23911485.3394   16067517.24843  12524442.68942  23911486.0134   23911482.6374
        45.0004         41.0004
  21094889.9404  -19002401.87844 -14788971.07242  21094891.8684   21094889.5624
        58.0004         50.0004
  22815814.6064  -17097064.74443 -13310899.74842  22815815.1944   22815812.6394
        53.0004         45.0004
 05 10 14  4 42  0.0010000  0  6G 6G 5G10G 2G30G21
  21270209.7384  -21756932.32844 -16920778.10242  21270210.9644   21270208.9314
        57.0004         50.0004
  22665093.2834    4783817.48043   3747174.91542  22665093.9044   22665092.0734
        53.0004         46.0004
  21372030.9074  -19253978.25444 -14989832.89042  21372031.8604   21372030.2094
        57.0004         49.0004
  23927824.8464   16153381.06543  12591349.52542  23927827.0534   23927823.3644
        46.0004         41.0004
  21104240.5074  -18953263.98644 -14750681.81542  21104242.3804   21104240.0974
        58.0004         50.0004
  22804422.3604  -17156931.23243 -13357548.95042  22804423.6994   22804420.6164
        53.0004         45.0004
 05 10 14  4 42 30.0010000  0  6G 6G 5G10G 2G30G21
  21259924.1314  -21810983.65944 -16962896.02242  21259925.5084   21259923.5514
        57.0004         50.0004
  22683378.1504    4879907.00943   3822049.85942  22683379.2424   22683378.0564
        53.0004         46.0004
  21380604.3104  -19208924.45843 -14954726.03442  21380605.2964   21380603.8754
        56.0004         49.0004
  23944168.3114   16239259.66343  12658267.89142  23944169.7944   23944164.9864
        47.0004         42.0004
  21113690.7954  -18903603.11044 -14711985.03342  21113692.7104   21113690.3044
        58.0004         50.0004
  22793066.6124  -17216607.19543 -13404049.68942  22793068.1744   22793064.1854
        54.0004         46.0004
 05 10 14  4 43  0.0010000  0  6G 6G 5G10G 2G30G21
  21249674.5164  -21864844.59744 -17004865.58442  21249675.8824   21249673.8434
        57.0004         50.0004
  22701707.1704    4976226.20443   3897103.76342  22701708.0294   22701706.5084
        52.0004         46.0004
  21389283.7394  -19163314.71944 -14919185.97342  21389284.3294   21389282.8134
        57.0004         49.0004
  23960511.4264   16325147.67143  12725193.57942  23960513.4654   23960508.8374
        47.0004         42.0004
  21123239.4014  -18853425.35444 -14672885.49242  21123240.9294   21123238.7284
        58.0004         50.0004
  22781745.4774  -17276097.79343 -13450405.98542  22781747.2924   22781744.3834
        54.0004         46.0004
 05 10 14  4 43 30.0010000  0  6G 6G 5G10G 2G30G21
  21239465.3074  -21918496.89844 -17046672.57042  21239466.5994   21239464.1724
        57.0004         50.0004
  22720082.5854    5072789.03643   3972347.51342  22720083.3044   22720081.9274
        53.0004         46.0004
  21398071.6334  -19117134.31844 -14883201.24342  21398072.1654   21398070.4994
        57.0004         49.0004
  23976860.8454   16411060.79443  12792138.84442  23976862.2304   23976856.9054
        47.0004         42.0004
  21132888.9344  -18802716.04444 -14633371.75442  21132890.7334   21132888.4424
        58.0004         50.0004
  22770463.3484  -17335385.05343 -13496603.83942  22770464.9724   22770462.2304
        54.0004         46.0004
 05 10 14  4 44  0.0010000  0  6G 6G 5G10G 2G30G21
  21229293.2384  -21971948.34544 -17088323.04742  21229294.8964   21229292.7244
        57.0004         50.0004
  22738501.9754    5169583.25443   4047771.56842  22738502.9224   22738502.1074
        53.0004         45.0004
  21406965.7694  -19070394.59643 -14846780.68242  21406966.9264   21406965.1724
        56.0004         49.0004
  23993212.5584   16496988.89143  12859095.78342  23993213.7964   23993210.6494
        48.0004         42.0004
  21142637.8504  -18751486.46944 -14593452.61642  21142639.4324   21142637.2154
        58.0004         50.0004
  22759218.5194  -17394479.64643 -13542651.56142  22759219.9624   22759216.8734
        54.0004         46.0004
 05 10 14  4 44 30.0010000  0  6G 6G 5G10G 2G30G21
  21219160.6344  -22025196.61344 -17129815.19842  21219161.9894   21219159.7594
        57.0004         50.0004
  22756965.4584    5266606.76743   4123374.29942  22756966.4114   22756964.2114
        53.0004         46.0004
  21415966.3494  -19023096.86043 -14809925.30842  21415967.2504   21415965.5064
        56.0004         49.0004
  24009566.2104   16582931.67843  12926064.19442  24009568.3934   24009562.6894
        48.0004         42.0004
  21152485.2564  -18699737.84844 -14553129.02942  21152486.9434   21152484.6774
        58.0004         50.0004
  22748009.1604  -17453380.69643 -13588548.47442  22748010.6844   22748007.9254
        54.0004         46.0004
 05 10 14  4 45  0.0010000  0  6G 6G 5G10G 2G30G21
  21209066.1524  -22078243.61144 -17171150.52142  21209067.7334   21209065.1874
        57.0004         50.0004
  22775470.6174    5363853.35343   4199150.85642  22775472.1634   22775469.9054
        53.0004         46.0004
  21425072.0254  -18975246.55443 -14772639.34942  21425072.8934   21425070.8754
        56.0004         49.0004
  24025923.5804   16668884.86343  12993040.68342  24025923.4854   24025918.8344
        49.0004         42.0004
  21162430.2504  -18647475.59444 -14512405.20342  21162431.9674   21162429.5884
        58.0004         50.0004
  22736837.3774  -17512092.00843 -13634297.53942  22736838.9944   22736835.2214
        54.0004         46.0004
 05 10 14  4 45 30.0010000  0  6G 6G 5G10G 2G30G21
  21199011.1774  -22131082.01244 -17212323.29742  21199012.5544   21199010.3544
        57.0004         50.0004
  22794018.8694    5461325.84043   4275103.44142  22794020.6324   22794019.0304
        53.0004         46.0004
  21434283.2454  -18926840.37643 -14734920.24742  21434284.0134   21434282.0004
        56.0004         49.0004
  24042282.3194   16754853.20543  13060028.99242  24042283.9164   24042278.6184
        49.0004         41.0004
  21172473.8574  -18594696.19644 -14471278.40742  21172475.3624   21172473.4874
        58.0004         50.0004
  22725702.3434  -17570607.95943 -13679894.37142  22725703.3774   22725700.3724
        54.0004         46.0004
 05 10 14  4 46  0.0010000  0  6G 6G 5G10G 2G30G21
  21188995.9974  -22183713.13744 -17253334.55942  21188997.4414   21188995.1014
        57.0004         50.0004
  22812609.2984    5559018.58643   4351227.65042  22812610.3164   22812609.6784
        53.0004         46.0004
  21443599.6784  -18877883.10043 -14696771.72142  21443600.2754   21443598.2334
        56.0004         49.0004
  24058643.6524   16840833.13343  13127026.33042  24058644.8994   24058641.1234
        49.0004         41.0004
  21182614.9274  -18541404.46344 -14429752.39342  21182617.0494   21182614.4824
        58.0004         50.0004
  22714603.6584  -17628931.58543 -13725341.34242  22714605.4644   22714602.3604
        54.0004         46.0004
 05 10 14  4 46 30.0010000  0  6G 6G 5G10G 2G30G21
  21179019.6864  -22236137.62344 -17294184.80742  21179021.2004   21179019.2124
        57.0004         50.0004
  22831240.6194    5656926.30843   4427519.37642  22831241.6014   22831240.5114
        53.0004         46.0004
  21453019.6654  -18828379.42343 -14658197.42442  21453020.5904   21453018.5114
        56.0004         49.0004
  24075006.2084   16926821.35743  13194030.12342  24075008.9404   24075003.1544
        49.0004         41.0004
  21192852.8014  -18487604.80044 -14387830.58842  21192854.6174   21192852.1934
        58.0004         50.0004
  22703541.1354  -17687065.41843 -13770640.42742  22703542.5474   22703539.7394
        54.0004         46.0004
 05 10 14  4 47  0.0010000  0  6G 6G 5G10G 2G30G21
  21169083.9844  -22288350.83144 -17334870.41642  21169085.0884   21169083.2714
        57.0004         50.0004
  22849912.4734    5755049.45143   4503978.95042  22849913.6574   22849912.2154
        52.0004         46.0004
  21462544.1164  -18778328.17843 -14619196.45242  21462545.2084   21462542.9084
        56.0004         49.0004
  24091371.7634   17012820.05843  13261042.07242  24091373.9844   24091368.0994
        49.0004         42.0004
  21203187.3354  -18433296.09744 -14345512.12642  21203189.2794   21203186.9884
        58.0004         50.0004
  22692515.0974  -17745006.34443 -13815789.18842  22692516.9974   22692513.5514
        54.0004         46.0004
 05 10 14  4 47 30.0010000  0  6G 6G 5G10G 2G30G21
  21159189.0084  -22340350.02344 -17375389.26542  21159190.2524   21159188.1764
        57.0004         50.0004
  22868625.3094    5853386.20043   4580604.97942  22868627.3244   22868624.6034
        52.0004         45.0004
  21472172.6224  -18727730.39443 -14579769.60642  21472173.3664   21472171.4884
        56.0004         49.0004
  24107738.9544   17098829.29043  13328062.25642  24107739.7364   24107735.3814
        50.0004         41.0004
  21213618.4854  -18378479.43644 -14302797.85442  21213620.3814   21213618.0434
        57.0004         50.0004
  22681526.0084  -17802753.72743 -13860787.13742  22681527.6884   22681524.1764
        54.0004         46.0004
 05 10 14  4 48  0.0010000  0  7G 6G29G 5G10G 2G30G21
  21149334.4724  -22392135.23844 -17415741.37342  21149335.9224   21149333.6754
        57.0004         50.0004
  24218703.4484   -7348937.10553  -5554062.06052  24218703.2334   24218703.7024
        45.0004         39.0004
  22887377.9214    5951932.10943   4657393.97942  22887378.8674   22887378.3464
        52.0004         45.0004
  21481904.5754  -18676590.08744 -14539920.01342  21481905.4204   21481903.3144
        57.0004         49.0004
  24124107.4584   17184846.89443  13395088.98042  24124109.1214   24124104.7374
        50.0004         41.0004
  21224145.7064  -18323158.57044 -14259690.69842  21224147.6344   21224145.1594
        57.0004         50.0004
  22670573.8914  -17860309.06943 -13905635.44942  22670575.3554   22670572.5494
        54.0004         46.0004
 05 10 14  4 48 30.0010000  0  7G 6G29G 5G10G 2G30G21
  21139521.3854  -22443705.17144 -17455925.72942  21139522.5034   21139520.4084
        57.0004         50.0004
  24205073.6684   -7420562.86243  -5609874.31642  24205074.4444   24205075.4494
        45.0004         39.0004
  22906169.9844    6050684.03943   4734343.51942  22906170.8164   22906170.0414
        52.0004         45.0004
  21491738.7564  -18624909.77643 -14499649.63942  21491739.6454   21491737.8094
        56.0004         49.0004
  24140477.0034   17270871.72943  13462121.34542  24140477.8594   24140472.6984
        50.0004         41.0004
  21234768.7154  -18267335.87644 -14216192.50742  21234770.2054   21234767.9264
        57.0004         50.0004
  22659657.5954  -17917673.12743 -13950334.70742  22659659.8234   22659655.6514
        54.0004         46.0004
 05 10 14  4 49  0.0010000  0  7G 6G29G 5G10G 2G30G21
  21129748.1904  -22495061.47844 -17495943.62542  21129749.5754   21129747.6684
        57.0004         50.0004
  24191473.4474   -7492031.12443  -5665563.84242  24191474.2064   24191474.7024
        44.0004         39.0004
  22925000.1984    6149635.83543   4811448.79842  22925000.9524   22924999.4194
        53.0004         45.0004
  21501674.6854  -18572694.85543 -14458962.68642  21501675.4854   21501673.9294
        56.0004         49.0004
  24156847.6524   17356899.54643  13529156.00042  24156849.9314   24156845.1314
        50.0004         41.0004
  21245485.8914  -18211016.79944 -14172307.51842  21245487.7014   21245485.2414
        58.0004         50.0004
  22648777.5064  -17974849.58043 -13994887.77842  22648779.2104   22648775.5184
        54.0004         46.0004
 05 10 14  4 49 30.0010000  0  7G 6G29G 5G10G 2G30G21
  21120018.3094  -22546193.19944 -17535786.52542  21120019.5164   21120017.3674
        57.0004         50.0004
  24177905.6054   -7563329.47343  -5721120.98242  24177906.7884   24177906.8034
        45.0004         39.0004
  22943869.0574    6248794.04543   4888714.92442  22943869.7804   22943868.6364
        52.0004         45.0004
  21511714.0254  -18519938.33443 -14417853.70742  21511714.9754   21511713.1234
        56.0004         49.0004
  24173219.7594   17442938.80243  13596199.58342  24173221.7844   24173219.5214
        49.0004         41.0004
  21256298.8634  -18154194.02344 -14128030.03942  21256300.7584   21256298.6394
        58.0004         50.0004
  22637935.1454  -18031829.00343 -14039287.31542  22637935.6234   22637932.7404
        55.0004         46.0004
 05 10 14  4 50  0.0010000  0  7G 6G29G 5G10G 2G30G21
  21110329.2534  -22597107.75344 -17575460.20342  21110330.9604   21110328.4434
        57.0004         50.0004
  24164370.6614   -7634463.97343  -5776550.43442  24164370.9344   24164369.7544
        45.0004         39.0004
  22962775.5734    6348146.71143   4966132.57142  22962776.3774   22962775.6964
        52.0004         45.0004
  21521854.1414  -18466651.51143 -14376331.50442  21521855.1204   21521853.1824
        56.0004         49.0004
  24189593.1904   17528979.58943  13663244.35542  24189593.2664   24189591.6354
        49.0004         41.0004
  21267205.4584  -18096879.02844 -14083369.01242  21267207.3544   21267205.3224
        58.0004         50.0004
  22627127.6794  -18088620.72843 -14083540.59742  22627128.4544   22627125.5994
        54.0004         46.0004
 05 10 14  4 50 30.0010000  0  7G 6G29G 5G10G 2G30G21
  21100683.4744  -22647796.96544 -17614958.28642  21100684.8874   21100683.1284
        57.0004         50.0004
  24150867.5744   -7705424.85743  -5831844.60742  24150868.2844   24150867.3694
        46.0004         39.0004
  22981719.0514    6447697.59243   5043704.67842  22981720.5104   22981719.5724
        52.0004         45.0004
  21532096.1734  -18412830.10443 -14334392.73942  21532096.6624   21532095.2114
        56.0004         49.0004
  24205968.2514   17615027.71343  13730294.84642  24205969.9364   24205965.7494
        49.0004         42.0004
  21278206.3474  -18039067.37144 -14038320.97542  21278208.5834   21278206.0884
        57.0004         50.0004
  22616357.5804  -18145218.29843 -14127642.59342  22616358.8924   22616356.4954
        54.0004         46.0004
 05 10 14  4 51  0.0010000  0  7G 6G29G 5G10G 2G30G21
  21091080.0074  -22698264.98644 -17654284.01942  21091081.1494   21091079.0744
        57.0004         50.0004
  24137395.8784   -7776214.76843  -5887005.56642  24137397.7454   24137396.8904
        46.0004         40.0004
  23000699.4834    6547438.13943   5121424.56942  23000700.6734   23000699.2274
        52.0004         45.0004
  21542438.3684  -18358482.09143 -14292043.63942  21542438.9724   21542437.1334
        56.0004         49.0004
  24222343.2634   17701076.58943  13797345.93142  24222343.4004   24222341.0874
        50.0004         42.0004
  21289300.7734  -17980767.00344 -13992892.12742  21289302.8074   21289300.4204
        58.0004         50.0004
  22605622.8964  -18201627.65443 -14171597.92142  22605624.1634   22605620.9854
        54.0004         46.0004
 05 10 14  4 51 30.0010000  0  7G 6G29G 5G10G 2G30G21
  21081519.0694  -22748507.37944 -17693433.93742  21081520.5204   21081518.0784
        57.0004         50.0004
  24123958.4624   -7846827.98943  -5942028.82242  24123959.8424   24123959.8554
        46.0004         40.0004
  23019715.3724    6647368.14843   5199292.09442  23019717.0234   23019715.5124
        52.0004         45.0004
  21552880.9544  -18303607.32643 -14249284.07742  21552881.7024   21552879.6314
        56.0004         49.0004
  24238718.2834   17787128.27443  13864399.17842  24238719.2604   24238715.8594
        49.0004         42.0004
  21300487.9934  -17921977.47844 -13947082.12142  21300489.9584   21300487.6254
        57.0004         50.0004
  22594924.6844  -18257846.48643 -14215404.79142  22594926.0104   22594923.1044
        54.0004         46.0004
